GFSSGP_850_temp_000.txt.gz
Temp
22 20 20 20 26 29 24 24 29 27 26 24 23 24 23 20 24 23 18 17 17 17 16 17 17 18 18 18 18 18 18 19 19 19 19 19 19 19 19 19 19 19 19 19 18 18 19 18 18
20 20 21 26 30 28 28 29 28 28 26 25 24 23 25 21 19 17 18 17 17 18 18 17 18 18 18 18 18 18 18 18 19 19 19 19 19 19 19 19 19 19 19 18 18 19 18 18 18
22 22 27 31 31 29 28 29 28 26 25 26 25 24 24 21 20 21 19 18 18 17 18 18 18 18 18 18 18 18 18 19 19 19 19 19 19 19 19 19 19 19 19 18 18 18 18 18 18
24 25 27 30 30 29 29 29 27 27 25 25 25 24 22 21 21 20 18 18 19 17 17 18 18 18 18 18 18 18 18 18 19 19 19 19 19 19 19 19 19 19 19 19 18 18 18 18 18
25 28 31 31 30 30 30 28 28 28 27 25 26 25 22 20 20 19 19 19 19 19 18 17 18 18 18 18 19 19 19 19 19 19 19 19 19 19 19 19 19 19 19 18 18 18 18 18 19
29 29 32 31 30 30 29 28 28 28 26 25 26 24 22 20 19 19 19 18 19 19 18 17 18 18 18 18 19 19 19 19 19 19 19 19 19 19 19 19 19 18 18 18 18 18 18 18 19
31 32 31 32 30 29 29 28 28 28 26 26 25 26 22 20 20 20 19 19 19 19 18 18 18 18 19 19 19 19 19 19 19 19 19 19 19 19 19 19 18 18 18 18 18 18 18 18 19
30 33 31 31 31 30 30 28 28 28 27 25 25 25 23 21 20 20 20 19 19 19 19 18 17 17 17 18 19 19 19 19 19 19 19 19 19 19 19 18 18 19 18 18 18 18 18 18 19
28 32 32 32 31 31 29 29 27 26 25 25 25 25 23 21 20 20 19 18 18 19 19 18 18 17 18 17 18 19 19 19 19 18 19 18 18 18 18 18 18 19 18 18 19 18 18 18 18
31 33 32 33 33 32 29 30 28 27 26 26 24 24 22 20 20 20 20 19 20 19 19 19 19 18 18 18 17 17 17 18 17 17 17 18 17 17 18 18 19 19 19 18 18 18 18 18 18
32 32 33 32 32 32 30 29 28 28 28 27 25 23 21 21 20 21 21 21 20 20 20 19 19 18 18 18 18 18 18 18 18 17 17 18 17 18 18 18 18 18 18 19 18 18 18 17 17
32 33 32 33 31 31 31 30 29 28 29 27 26 23 22 21 21 21 21 21 21 20 20 19 18 18 18 18 18 18 19 18 18 18 18 17 18 18 17 18 18 18 18 17 17 18 17 17 18
32 33 33 32 31 31 31 30 30 28 27 27 25 23 22 22 22 21 21 21 20 20 19 19 19 17 18 17 18 18 18 18 19 18 17 18 18 18 18 18 18 18 17 18 17 17 17 16 17
33 33 33 33 32 31 31 30 29 29 27 26 24 23 23 22 22 22 21 21 20 20 19 19 18 17 17 17 17 17 18 18 18 18 18 19 18 18 17 17 17 17 17 17 17 17 17 16 17
32 32 32 32 32 31 30 29 29 29 27 26 25 24 23 23 22 22 21 21 20 20 19 19 19 18 18 17 17 17 18 18 19 18 17 19 18 18 18 17 17 17 17 18 17 16 16 17 17
32 33 33 32 31 30 31 31 30 28 27 26 25 24 24 23 23 22 21 21 21 20 19 19 19 19 18 18 18 18 18 18 19 19 18 18 18 18 18 17 17 17 17 17 17 17 17 17 17
33 32 33 31 31 30 31 32 31 28 28 28 26 25 24 23 23 22 22 21 21 20 19 19 18 18 18 18 18 17 18 18 18 18 18 18 18 18 17 17 17 17 18 17 17 17 16 17 17
32 32 33 33 31 31 31 32 30 29 29 29 27 26 25 24 23 23 22 21 21 20 19 19 18 18 18 18 18 18 18 18 18 18 18 17 18 17 17 17 17 17 17 17 17 16 17 16 16
34 33 33 34 33 32 32 32 32 29 29 29 28 26 26 25 24 23 22 22 21 21 20 19 19 18 18 18 18 19 19 19 18 19 18 18 17 18 18 17 17 17 17 16 15 16 16 16 16
33 33 33 34 33 32 33 32 32 31 29 29 28 27 26 26 25 23 23 22 22 21 20 19 19 18 18 19 19 19 19 20 19 19 18 18 17 17 17 17 17 17 17 15 15 15 16 16 16
33 33 33 33 32 32 33 32 32 33 30 29 28 28 27 26 26 24 23 23 22 22 20 20 19 19 19 19 19 18 18 18 18 19 18 18 18 17 18 18 17 17 16 17 15 15 15 17 16
32 34 34 33 32 31 32 31 33 34 31 30 28 28 28 27 26 25 24 23 23 22 21 20 19 19 19 19 19 19 20 20 21 20 20 19 17 17 17 17 16 17 16 15 15 15 15 15 17
32 34 33 33 33 32 32 31 33 33 33 32 31 29 28 28 27 25 24 24 23 23 22 21 20 21 20 19 19 19 19 20 20 20 18 17 18 17 17 16 18 17 16 15 15 14 14 15 16
33 32 32 33 33 31 32 32 32 34 33 34 34 31 29 28 27 26 25 24 23 23 22 21 21 22 21 19 19 19 19 19 20 19 19 18 18 17 16 16 17 17 15 15 15 15 14 15 14
32 31 30 29 30 30 33 32 32 35 35 35 36 34 30 29 28 27 25 25 24 23 23 22 21 22 22 20 19 19 18 19 19 19 19 19 19 18 17 17 17 16 15 15 15 15 14 14 14
31 32 31 28 30 31 32 31 33 34 35 35 35 34 32 30 29 27 26 25 24 24 23 22 22 23 22 22 21 21 19 19 19 19 20 19 19 18 17 17 17 16 15 14 15 15 14 15 14
31 31 33 32 33 32 33 32 34 35 34 35 34 33 33 31 30 29 27 26 25 24 23 23 23 23 23 21 22 22 21 20 20 19 18 18 18 18 17 18 17 15 15 14 14 15 14 14 14
32 33 31 32 30 29 31 32 32 33 34 35 35 33 33 31 30 30 28 27 26 25 24 23 24 24 23 22 22 22 21 21 19 19 18 19 18 18 16 18 17 16 15 14 14 15 14 14 14
31 31 31 32 32 30 30 32 34 33 34 35 36 34 34 32 30 30 29 28 26 26 25 24 23 23 24 23 23 23 21 20 20 19 20 20 20 20 18 18 18 16 18 15 14 14 15 14 14
32 31 32 31 29 31 32 32 36 35 35 35 35 36 36 33 31 30 30 29 27 26 26 25 24 23 23 24 24 23 20 20 19 19 21 22 20 21 20 18 17 16 17 15 14 14 15 15 14

GFSSGP_850_temp_003.txt.gz
Temp
23 21 19 19 20 22 25 29 28 28 28 27 27 22 23 21 22 22 18 18 18 18 17 18 18 18 18 18 18 18 18 18 19 19 19 19 20 20 20 20 19 19 19 19 19 18 18 18 18
21 21 22 26 29 22 22 29 27 29 27 28 27 26 25 20 22 20 19 18 19 19 18 17 18 18 18 18 18 18 18 18 19 19 19 20 20 19 20 20 19 19 19 19 19 18 18 18 18
23 24 24 28 30 27 27 28 31 29 29 29 28 26 24 19 22 21 19 19 19 19 18 19 18 18 18 18 18 18 18 19 19 19 20 20 19 19 19 19 19 19 19 19 19 18 18 18 18
25 26 28 33 32 32 30 31 30 30 29 28 27 27 24 24 23 22 21 20 19 18 18 18 18 18 18 18 19 18 19 19 19 19 20 19 19 19 19 19 19 19 19 19 18 19 18 18 18
26 29 31 32 32 32 32 31 31 30 30 29 28 26 24 24 23 21 21 20 20 19 18 18 18 18 18 19 19 19 19 19 19 19 19 19 19 19 19 19 20 19 19 18 18 18 18 19 18
28 32 31 33 32 32 32 31 31 31 30 28 27 25 24 23 22 22 21 20 20 19 19 18 19 18 19 19 19 19 19 19 19 19 19 19 19 19 19 19 19 19 18 18 18 18 18 18 19
31 30 32 34 32 32 32 31 32 31 29 29 27 27 24 23 23 22 20 20 20 20 19 18 18 19 19 19 19 19 19 19 19 19 19 19 19 19 20 19 19 18 18 18 18 18 18 18 19
31 32 34 32 33 32 32 32 31 31 30 29 28 27 25 23 23 21 21 20 20 21 19 19 19 18 17 19 19 19 19 19 19 19 20 20 20 20 20 19 19 19 19 18 19 19 19 19 19
31 31 33 33 30 33 32 32 31 30 29 29 28 27 25 23 24 22 20 19 20 20 19 20 20 19 18 18 19 19 19 19 19 19 19 20 19 18 19 19 19 19 19 19 19 19 19 19 19
33 25 33 35 33 34 33 32 31 30 29 29 28 27 24 23 24 23 21 20 21 21 21 21 20 18 19 20 18 17 18 18 18 18 19 19 19 19 19 19 19 19 19 19 19 19 19 19 19
34 29 33 35 34 34 33 32 31 31 30 29 28 26 24 23 24 24 22 22 22 22 22 20 19 19 19 19 19 19 19 19 19 18 18 19 19 19 19 19 19 19 19 18 18 19 18 18 18
34 33 34 35 33 34 34 33 32 31 31 29 28 26 24 24 24 24 24 24 23 22 22 21 19 19 19 19 19 20 20 20 20 19 18 19 19 19 19 19 19 19 18 19 18 19 18 17 17
34 35 34 34 33 34 33 33 33 32 31 29 28 26 25 24 24 24 24 24 24 23 22 21 20 19 19 19 20 20 20 20 21 20 19 19 19 19 19 19 18 19 19 18 19 18 18 18 17
35 35 35 34 34 33 34 33 32 31 30 29 28 26 25 25 25 24 24 24 23 23 22 21 20 18 18 18 18 19 20 20 20 20 20 18 19 18 18 18 18 18 19 18 18 18 17 17 18
34 34 35 35 35 34 33 33 32 32 30 29 28 27 26 26 25 24 24 23 23 22 22 21 20 19 18 18 18 18 20 20 20 20 19 18 18 18 19 18 18 19 19 18 18 17 18 19 19
34 35 34 35 35 34 33 32 33 32 31 30 29 27 27 26 26 25 24 23 23 22 21 21 21 20 19 18 18 19 20 19 20 20 20 19 18 18 18 18 18 19 18 18 18 18 17 18 19
34 33 34 34 35 35 34 32 34 32 31 31 30 29 27 26 26 25 24 23 23 22 21 20 20 21 20 19 19 19 20 19 19 19 19 18 18 18 18 19 19 18 18 17 17 18 18 18 18
33 33 35 34 35 35 33 32 34 32 32 32 30 30 28 27 26 26 25 24 23 22 21 20 20 20 19 19 19 19 20 18 19 19 19 19 18 18 18 19 18 17 18 18 17 17 17 17 17
35 35 35 36 36 34 34 34 34 33 32 32 31 30 29 28 27 26 25 24 23 23 21 20 20 19 19 18 18 19 19 20 20 20 19 18 18 18 18 18 18 17 18 17 17 16 17 18 18
34 35 35 36 35 35 35 34 35 34 33 32 32 31 30 29 28 26 25 25 24 23 22 21 20 19 19 19 19 20 21 21 21 21 20 19 19 18 18 18 19 18 18 17 16 15 16 18 17
34 34 35 35 35 35 35 34 35 35 33 32 32 32 31 30 29 27 26 25 24 23 22 21 20 20 19 20 20 20 20 21 21 21 20 19 18 18 18 18 18 17 17 18 16 16 16 17 17
33 35 35 36 33 32 35 33 34 35 35 34 32 32 31 30 29 28 26 25 25 24 22 22 21 20 20 20 20 20 20 20 21 21 22 20 18 18 18 17 17 17 17 17 16 16 16 16 18
33 35 35 35 35 30 34 34 34 36 35 35 34 32 32 31 30 29 27 26 25 25 23 22 21 20 20 20 20 20 20 22 22 22 21 20 19 18 18 18 17 16 17 17 16 15 16 16 16
34 34 35 35 35 33 34 33 34 33 36 36 36 33 32 32 31 29 28 27 26 25 24 23 21 21 20 20 20 20 20 21 22 22 21 20 20 19 18 18 17 16 17 16 15 15 15 15 16
33 33 31 32 32 32 35 34 30 37 37 37 37 36 34 32 31 30 28 27 26 25 24 23 22 21 21 20 20 20 20 20 20 21 20 21 20 20 19 17 17 16 16 16 15 15 15 15 15
33 33 32 29 31 33 35 33 35 37 37 37 37 36 36 33 32 31 29 28 26 25 24 24 23 21 21 21 20 20 20 20 20 20 21 20 20 20 19 17 17 16 16 15 15 15 15 16 15
33 33 35 33 34 34 35 35 36 37 37 37 36 36 36 34 33 31 30 28 27 26 25 24 23 22 21 21 21 20 20 20 21 21 20 20 20 20 18 17 17 17 16 16 15 15 15 16 15
33 35 33 34 31 31 34 34 35 35 35 36 36 36 36 35 33 32 30 29 27 26 25 24 23 22 22 21 21 21 20 20 20 20 20 20 20 19 19 17 19 19 17 16 17 15 15 15 15
32 33 34 34 34 32 32 34 37 36 35 35 36 36 36 35 34 32 31 30 28 27 26 25 24 23 22 22 22 21 20 20 20 20 20 19 19 18 19 22 21 19 17 15 15 15 16 16 15
33 32 33 33 31 33 34 34 38 37 36 36 36 36 36 35 34 33 32 31 29 28 27 26 25 24 23 23 22 22 21 20 20 19 19 20 21 22 23 23 21 17 18 16 17 15 16 15 15

GFSSGP_850_temp_006.txt.gz
Temp
22 21 19 19 20 22 24 26 28 21 27 26 25 22 23 23 22 20 17 17 17 16 17 17 18 18 18 18 18 19 19 19 19 19 19 19 19 20 20 20 19 19 19 19 19 18 18 18 18
20 20 20 16 19 21 24 26 24 27 29 25 23 23 23 23 20 19 18 18 18 17 17 18 18 18 18 18 18 19 18 18 19 19 19 19 19 20 20 20 20 19 19 19 18 18 18 18 18
21 21 22 22 25 22 22 20 29 29 26 26 24 24 22 22 20 19 19 19 19 18 18 19 18 18 18 18 18 18 18 18 19 19 19 19 20 20 20 20 20 19 19 19 18 18 18 18 18
21 23 24 26 28 26 27 26 32 31 28 28 27 24 23 22 22 20 20 19 19 19 18 18 18 18 18 18 18 18 18 19 19 19 19 20 20 20 20 20 19 19 19 19 18 18 18 19 18
23 25 25 29 32 31 29 32 30 30 29 28 26 25 24 24 22 21 20 20 19 18 19 19 19 18 18 19 18 18 18 19 19 19 19 20 20 20 20 20 19 19 19 19 19 18 19 19 19
18 25 25 32 32 33 33 32 30 30 28 27 26 24 23 23 23 21 20 20 20 19 18 19 18 18 19 19 19 19 19 19 19 19 20 20 20 20 19 20 19 19 19 19 19 19 18 19 19
18 23 31 32 33 33 33 33 32 32 30 28 26 24 23 23 22 21 21 20 20 19 18 19 18 18 19 19 19 19 19 19 20 20 20 20 20 19 20 19 19 19 19 19 19 19 19 19 19
24 27 30 32 33 32 33 33 32 32 29 29 26 26 24 23 22 21 21 20 20 20 19 18 18 19 19 19 19 19 20 20 20 20 20 20 19 19 19 20 19 19 19 19 19 19 19 19 19
32 31 31 31 33 33 33 33 32 31 30 28 27 26 25 24 22 21 21 20 20 20 19 19 18 19 18 19 19 19 19 20 20 20 20 19 20 19 18 19 19 19 20 19 19 20 19 19 19
33 30 30 30 33 34 34 33 32 31 30 30 28 27 26 24 23 21 21 21 20 21 20 19 19 19 19 18 19 19 19 20 20 20 20 19 18 19 19 19 18 19 19 18 19 19 18 18 19
32 29 32 33 32 33 34 33 32 31 30 30 27 26 25 25 23 22 22 22 21 21 21 21 20 19 19 19 20 19 19 19 19 18 19 19 19 19 19 18 19 18 18 18 18 19 18 19 19
34 33 32 34 34 33 34 33 33 32 31 30 28 26 25 26 25 24 23 23 23 23 22 20 21 20 19 20 20 20 20 20 20 20 20 19 19 19 18 17 19 18 19 18 18 18 19 18 18
35 34 34 35 35 34 34 34 33 33 31 30 28 26 25 26 26 25 24 24 24 23 22 21 21 20 20 20 20 21 20 21 21 20 20 20 19 19 19 19 19 19 19 19 18 19 18 19 19
35 36 36 36 35 35 34 34 33 32 31 30 28 27 26 26 26 26 25 25 24 24 23 22 20 20 19 20 20 20 21 20 21 20 20 20 20 19 19 18 20 20 19 19 19 19 19 19 18
35 35 36 36 35 35 35 34 33 32 32 30 29 27 27 26 26 26 26 25 25 24 23 22 21 20 20 19 19 20 20 20 20 21 20 20 20 19 19 19 19 19 19 19 19 18 18 18 19
34 35 34 36 36 35 34 32 34 32 32 31 29 28 27 27 26 26 25 25 25 24 23 22 22 20 20 19 19 19 20 20 20 20 20 20 19 19 19 19 18 19 18 19 18 18 18 18 18
33 33 33 35 36 35 34 31 33 33 32 31 30 29 28 27 27 26 25 25 24 24 23 22 21 21 20 20 18 19 19 20 20 20 20 19 19 18 19 18 18 18 19 19 18 18 17 18 18
32 33 34 34 35 35 34 25 25 29 33 32 31 30 29 28 27 26 26 25 24 23 22 22 21 21 21 20 20 19 20 20 20 19 19 19 19 19 18 18 18 19 19 18 18 18 17 18 18
34 34 34 36 35 35 33 23 21 25 32 33 32 31 30 29 28 27 26 25 24 23 22 22 21 21 20 20 19 19 20 20 20 20 20 19 20 19 19 19 18 19 18 17 17 18 18 18 18
33 34 35 36 36 35 35 28 26 30 33 33 33 31 31 30 29 28 26 26 25 24 23 22 21 20 20 20 19 19 20 21 20 20 20 21 19 20 20 19 18 18 18 18 17 18 18 18 18
33 33 34 35 36 36 35 34 33 34 34 34 33 32 32 31 30 28 27 26 25 24 23 22 21 20 20 20 19 19 19 19 20 21 21 20 20 20 18 18 18 18 18 18 18 17 17 17 17
32 35 35 35 34 32 34 31 32 33 34 33 33 33 32 31 30 29 27 26 26 25 24 22 21 21 20 20 19 20 20 20 21 21 21 21 20 19 18 19 19 18 18 18 17 17 17 17 17
33 35 35 35 34 33 33 32 33 34 33 34 34 33 33 32 31 30 28 27 26 25 24 23 22 21 20 20 20 20 20 21 21 22 22 21 20 19 19 18 18 18 19 17 17 17 18 17 17
35 34 34 35 35 32 34 32 33 34 32 34 35 34 34 33 32 31 29 28 26 26 24 23 22 21 21 20 20 20 20 21 22 22 22 21 20 20 19 18 18 18 18 18 18 18 17 16 16
34 33 31 31 32 32 35 32 32 34 35 35 30 32 34 33 33 31 30 28 27 26 25 23 22 21 21 20 21 21 20 21 21 22 22 21 20 20 19 19 18 18 18 18 18 18 16 17 17
33 33 32 29 31 32 35 34 35 36 35 34 32 28 35 34 33 32 30 29 27 26 25 24 23 22 21 21 21 21 21 22 22 21 22 21 21 20 20 20 20 19 18 18 18 18 17 16 16
33 32 34 32 33 33 34 36 37 38 35 33 34 37 37 35 34 33 31 29 28 26 26 25 23 22 22 21 21 21 21 21 22 21 21 21 21 21 20 20 20 19 18 17 17 17 16 16 15
34 34 32 32 30 30 33 33 35 35 36 35 34 35 37 36 34 33 32 30 29 27 26 25 24 23 22 21 21 21 21 22 22 21 21 21 20 21 20 20 20 19 18 17 17 17 16 16 17
32 32 33 33 33 32 31 33 37 35 36 36 36 36 37 37 34 34 33 31 29 27 26 25 24 23 22 21 21 21 21 23 22 21 21 21 21 20 20 20 19 19 18 17 17 17 17 16 16
33 33 32 31 30 33 33 34 38 36 37 37 37 36 36 36 36 35 33 31 30 28 27 25 24 23 22 21 21 22 23 22 22 22 21 21 21 20 20 20 20 19 18 18 18 18 17 16 17

GFSSGP_850_temp_009.txt.gz
Temp
21 20 19 18 19 19 21 23 24 25 24 25 24 22 21 21 22 18 17 17 17 17 17 17 18 18 18 18 19 19 19 19 19 19 20 20 20 19 19 19 19 19 19 18 18 18 18 18 18
21 20 19 16 19 20 20 22 24 25 24 23 23 23 21 20 18 17 17 17 18 18 18 18 18 18 18 19 19 19 19 19 19 19 20 20 20 20 20 20 19 19 19 18 18 18 19 18 18
21 20 19 18 20 20 20 22 25 23 23 24 24 23 21 18 18 18 18 17 18 18 18 18 18 18 18 19 19 19 19 19 19 19 20 19 20 20 20 20 20 19 19 18 19 19 19 19 19
20 18 17 20 24 23 23 24 20 24 24 24 23 22 20 19 19 19 18 18 18 18 19 19 19 18 18 18 19 19 19 19 19 19 19 19 20 20 20 20 19 19 18 18 18 19 19 19 19
20 18 20 22 26 25 26 23 22 26 26 24 23 21 21 20 19 19 19 18 18 19 19 19 19 18 18 18 19 19 19 19 19 19 19 19 20 20 20 20 19 19 19 19 19 19 19 19 19
19 19 22 26 28 28 27 28 27 26 25 24 23 22 21 20 20 20 19 19 19 19 19 19 18 18 19 19 19 19 19 19 19 19 19 20 20 20 20 19 19 19 19 19 19 19 19 19 19
20 20 25 26 27 30 27 27 26 26 25 25 23 22 21 20 21 20 20 19 19 19 19 19 19 19 19 19 19 19 19 19 19 19 20 20 20 20 20 19 19 19 19 19 19 19 19 19 19
26 22 26 25 27 29 30 30 25 27 26 24 23 22 22 21 20 20 20 19 19 19 19 19 19 19 19 19 19 19 19 19 19 19 20 20 19 19 19 19 19 19 19 19 19 19 19 19 19
26 23 22 25 29 30 31 29 28 28 24 24 24 23 21 21 21 20 20 19 19 19 19 19 19 19 19 19 19 19 19 20 20 20 20 19 20 19 18 18 18 18 19 19 19 18 18 19 18
29 25 27 29 30 31 32 29 28 28 25 23 24 22 22 21 21 21 21 19 19 19 19 19 19 19 19 20 20 19 20 20 20 20 19 19 19 18 17 18 18 19 19 18 19 19 18 19 19
31 28 29 31 32 33 31 31 31 28 26 25 23 22 22 21 21 21 21 20 20 20 19 19 19 20 20 20 20 20 20 20 20 20 19 19 19 19 20 19 19 19 19 19 19 18 19 18 19
30 32 32 32 32 33 31 32 30 30 28 26 24 22 22 21 21 22 21 21 21 20 20 20 20 19 19 19 20 20 20 20 20 20 20 19 19 19 19 21 19 18 19 19 18 18 18 19 19
30 31 33 33 32 33 33 32 30 30 28 26 25 24 23 22 22 22 22 21 22 21 20 20 20 20 20 20 20 20 20 20 20 20 20 20 19 19 19 19 18 18 19 18 18 18 19 19 18
32 32 33 34 34 33 32 32 31 29 27 26 26 25 24 23 23 22 23 22 22 21 21 21 21 21 20 20 20 20 20 20 20 19 20 20 20 20 19 19 19 19 19 18 19 19 19 19 19
32 30 32 33 34 33 32 25 30 30 28 26 25 25 25 25 23 23 24 23 22 22 22 22 21 21 20 20 20 20 20 21 21 20 20 20 20 20 20 19 19 19 19 19 19 19 18 18 18
30 29 28 32 33 34 31 25 29 30 29 27 26 25 25 25 25 25 25 24 23 23 22 22 21 21 21 20 20 20 20 20 20 20 20 19 20 20 20 19 19 18 18 18 18 19 18 18 18
27 27 28 30 33 33 31 26 31 31 29 28 27 26 26 25 26 25 25 25 24 24 23 22 21 21 21 20 20 20 20 20 20 20 20 19 19 19 19 18 18 18 18 18 18 18 18 18 18
25 27 28 29 32 31 28 26 28 31 30 28 27 27 26 26 26 26 25 25 25 24 23 23 22 21 21 21 21 20 20 20 20 20 20 19 20 19 20 19 18 19 18 18 18 19 18 18 17
29 29 29 31 32 31 27 26 27 29 29 28 28 27 27 26 26 26 25 25 25 24 23 23 22 21 21 21 20 20 20 20 20 20 20 20 20 20 19 19 19 19 18 19 18 18 18 17 18
29 29 29 31 33 30 27 27 29 30 29 29 29 28 27 27 27 27 26 25 25 24 24 23 22 22 21 20 20 20 20 20 20 20 20 20 20 20 20 19 19 19 19 18 18 18 18 18 18
28 28 29 30 33 33 27 25 25 27 30 29 30 29 28 28 27 27 26 25 25 24 24 23 23 22 21 20 20 19 20 20 20 20 20 20 20 20 20 19 19 18 18 18 18 18 18 17 18
27 30 31 31 31 29 31 27 24 26 28 26 28 30 29 28 28 27 26 26 25 25 24 23 23 22 21 20 20 20 20 21 21 20 20 20 20 20 19 19 19 18 18 18 18 18 18 17 17
29 31 31 31 30 28 30 28 26 27 26 24 27 31 30 30 29 28 27 26 26 25 25 24 23 22 22 21 20 20 20 20 20 20 20 21 21 20 19 19 18 19 18 18 19 19 19 18 17
32 30 30 30 29 27 28 29 27 27 25 24 30 31 31 30 30 30 28 27 26 26 25 24 24 23 22 21 20 20 20 21 20 21 21 21 20 20 20 19 19 19 19 19 19 19 19 18 18
30 27 27 26 26 25 27 28 26 32 31 31 31 32 32 31 30 29 28 27 26 26 25 24 24 23 22 21 21 20 20 21 22 22 21 21 21 20 20 20 20 20 19 20 19 19 19 18 17
28 28 27 23 25 27 27 29 29 32 32 33 33 33 33 33 31 30 30 28 26 26 25 25 24 24 23 22 21 20 20 21 22 21 21 21 21 21 20 20 20 20 19 19 20 19 19 19 18
28 28 29 26 26 25 28 29 30 31 32 32 32 32 33 33 32 30 30 29 27 26 26 25 24 24 23 22 21 21 20 21 22 22 21 20 21 21 20 20 20 20 19 19 20 19 19 18 18
30 30 27 28 25 25 28 27 28 29 31 30 29 30 32 33 32 31 30 30 28 27 27 26 25 24 24 23 22 22 22 21 21 22 21 21 20 21 21 20 20 20 20 19 20 19 18 17 17
29 28 27 26 28 26 25 28 29 29 29 29 30 32 31 33 33 32 31 30 29 27 27 26 25 24 23 23 23 22 22 22 21 22 22 21 21 21 21 21 20 20 20 20 20 19 18 17 17
30 27 27 24 24 25 26 27 30 32 31 31 31 33 35 35 32 31 32 29 28 27 26 26 25 25 24 24 23 23 23 22 21 22 22 22 21 21 21 20 20 20 20 20 20 20 18 18 17

GFSSGP_850_temp_012.txt.gz
Temp
20 18 18 17 18 18 21 23 24 24 24 23 24 23 19 18 21 18 17 17 17 17 17 17 17 18 18 19 19 19 19 19 20 20 20 20 20 20 19 19 19 19 19 19 19 19 18 18 18
18 18 18 18 18 20 21 23 23 23 23 23 22 21 20 19 17 17 16 17 17 17 17 17 18 18 18 19 19 19 19 19 20 20 20 20 20 20 19 19 19 19 19 19 18 18 18 18 18
18 19 18 18 19 20 20 22 23 22 23 24 23 21 19 17 17 17 18 17 18 18 18 18 18 18 18 19 19 19 19 19 19 20 20 20 20 19 19 19 19 19 19 18 18 19 19 18 18
21 19 17 19 22 22 22 20 24 23 23 23 21 19 19 18 18 19 18 18 18 18 18 18 18 18 19 18 18 19 19 19 19 20 20 20 19 19 19 19 19 19 19 19 19 19 19 19 18
19 18 19 20 24 25 22 19 22 24 24 23 22 20 19 18 19 19 18 18 19 18 18 18 18 18 19 19 18 19 19 19 19 20 20 19 19 19 19 19 19 19 19 19 19 19 19 19 18
19 18 20 23 25 25 23 21 20 23 23 21 20 20 19 19 19 18 19 19 19 19 18 18 18 18 18 19 19 19 19 19 19 19 20 19 19 20 19 19 19 19 19 19 19 19 19 19 18
20 19 22 24 26 24 24 22 24 23 22 22 21 19 19 18 18 18 19 19 19 19 18 18 18 18 18 18 19 19 19 19 19 19 20 20 20 19 19 19 19 18 18 19 19 19 19 19 18
23 20 25 23 25 26 25 25 24 23 24 22 22 19 18 19 19 19 19 19 19 19 19 19 18 18 19 18 19 19 19 19 20 20 20 19 19 18 18 19 19 19 19 19 19 18 18 18 17
23 22 25 23 26 27 26 25 24 24 22 23 23 20 20 20 19 19 19 19 19 19 19 19 19 19 19 19 19 19 19 19 20 20 20 19 18 19 19 19 19 19 19 19 19 18 19 19 18
23 22 25 27 26 27 26 26 25 23 23 23 21 20 20 20 20 19 19 19 19 19 19 19 19 19 19 19 19 20 20 20 20 20 19 18 19 19 19 20 19 19 19 18 18 18 19 19 18
26 25 27 29 29 29 27 26 25 23 23 22 21 20 20 20 20 20 20 19 19 20 19 19 19 20 20 20 20 20 20 20 20 19 19 19 19 19 19 19 19 19 19 19 18 19 18 18 18
26 28 29 31 32 30 27 27 25 25 24 23 23 21 20 20 20 20 20 19 19 20 20 20 20 20 20 20 20 20 20 20 20 20 20 19 19 19 19 19 19 19 19 19 19 19 18 18 18
26 28 30 31 32 31 29 28 26 26 24 22 21 21 20 21 21 21 21 20 20 20 20 20 20 20 20 20 20 20 20 20 20 20 19 19 19 19 19 19 19 19 19 19 19 19 19 19 18
29 29 30 31 32 32 30 29 29 25 24 22 21 21 21 21 21 21 21 21 20 20 20 20 20 21 20 20 20 20 20 20 20 20 19 19 19 20 20 19 19 19 19 19 19 18 19 19 18
29 27 28 29 32 30 30 27 26 25 24 22 22 21 21 22 22 22 22 21 21 21 21 21 20 20 20 20 20 20 20 20 19 20 19 19 20 20 19 19 19 18 18 18 18 19 19 18 18
27 26 26 29 30 30 29 25 26 25 24 23 22 22 21 21 22 22 23 22 21 21 21 21 21 20 20 20 20 19 19 20 20 20 20 20 19 19 19 19 19 19 18 18 18 18 18 18 18
23 24 25 27 29 28 27 25 27 25 25 24 24 22 22 21 22 23 23 22 22 22 22 21 20 21 20 20 20 20 19 20 20 20 20 20 19 19 19 19 19 19 19 18 18 18 18 18 18
23 25 25 26 29 29 26 25 27 26 25 25 24 24 24 23 23 23 23 23 23 22 22 22 21 21 21 20 20 20 20 19 20 20 20 20 19 19 19 19 19 18 18 18 18 18 18 18 17
25 25 24 27 29 27 26 26 27 26 25 25 24 24 24 25 24 24 24 24 23 23 23 22 21 21 21 20 20 20 20 20 20 20 20 20 19 19 20 19 19 18 18 18 18 18 18 18 18
25 25 25 27 28 28 25 27 27 27 26 26 25 24 24 24 25 25 25 25 24 24 23 22 22 21 21 21 20 20 20 20 20 20 20 20 20 20 19 19 19 18 18 18 18 18 18 18 18
25 25 26 25 27 29 26 25 26 27 27 27 26 25 25 25 24 25 25 25 25 24 23 23 23 22 22 21 21 20 20 20 20 20 19 20 20 20 19 19 19 19 19 19 18 18 18 18 17
22 27 28 27 26 25 28 24 24 25 25 25 26 26 25 25 25 26 25 25 25 25 24 23 23 23 22 22 21 20 20 20 20 20 20 20 20 20 19 19 19 19 19 19 18 18 18 18 17
25 27 27 27 26 25 26 24 24 25 25 24 26 27 26 26 26 25 26 26 25 25 25 24 23 23 23 22 21 20 20 20 21 20 20 20 20 20 19 19 19 19 19 18 18 19 19 18 17
27 27 26 26 25 22 24 26 23 23 26 27 28 28 27 27 26 26 27 26 25 25 25 25 24 23 23 22 22 21 21 20 20 20 20 20 20 20 20 19 19 19 19 19 19 19 18 18 17
25 23 23 23 24 23 24 24 26 26 28 28 29 28 28 28 27 26 26 25 25 25 25 25 24 23 23 22 22 22 21 21 21 20 20 20 20 20 20 20 20 20 19 19 19 20 19 19 18
23 24 24 22 22 23 24 23 25 26 29 29 31 30 28 28 28 27 27 27 26 25 25 25 25 24 23 23 22 22 21 21 20 21 20 20 20 21 21 20 20 20 20 19 20 20 20 19 18
26 23 26 22 22 22 24 26 26 27 27 28 29 28 29 29 29 28 28 28 26 25 26 25 25 25 24 24 23 22 22 21 20 21 21 21 21 21 21 20 20 20 20 20 20 20 20 19 19
25 25 25 19 23 24 24 24 27 27 27 26 28 28 29 29 29 29 29 28 27 26 27 26 26 25 25 24 24 23 22 22 21 21 21 21 21 21 20 20 21 20 20 20 20 20 20 20 19
25 25 23 23 23 24 21 26 26 26 26 25 28 30 31 30 30 30 29 28 28 26 25 26 26 25 25 25 24 24 23 22 21 21 21 21 20 20 20 20 21 21 20 20 20 20 20 20 19
27 26 23 25 22 22 27 27 30 27 27 25 27 30 31 31 30 32 31 29 26 26 25 26 26 26 25 25 24 24 23 22 22 22 22 21 21 20 20 20 20 20 20 20 20 20 20 20 20

GFSSGP_850_temp_015.txt.gz
Temp
19 19 18 17 18 18 19 22 21 23 23 22 23 22 19 17 19 18 17 17 17 17 17 17 17 18 18 18 18 19 19 20 20 20 20 20 19 19 19 19 18 18 18 18 18 18 17 17 17
19 18 17 18 19 19 20 21 22 22 22 22 21 20 19 18 16 17 16 17 17 17 17 17 17 18 18 18 19 19 20 20 20 20 20 19 19 19 19 18 18 18 18 19 19 18 18 17 17
19 18 19 18 18 19 20 21 22 23 23 23 20 19 18 17 16 17 18 17 17 17 17 17 18 18 18 18 19 19 20 20 20 20 19 19 19 19 19 18 18 18 19 19 19 18 18 17 17
18 18 18 19 21 22 21 21 23 23 23 22 20 19 18 17 17 18 18 18 18 17 17 18 18 18 19 19 19 19 20 20 20 19 19 19 20 19 19 19 18 18 18 18 19 18 18 17 17
20 19 18 19 23 23 22 23 22 23 23 21 20 18 17 18 18 18 18 18 18 18 18 18 18 19 19 19 19 19 19 20 20 20 19 19 19 19 19 19 18 18 18 19 19 18 18 17 18
19 18 21 22 24 24 23 22 22 23 22 20 19 19 17 18 18 19 19 19 18 18 18 18 18 19 19 19 19 19 19 20 20 20 19 19 19 19 19 19 18 19 19 19 18 18 17 17 18
18 17 21 24 24 23 24 22 21 22 21 20 20 18 17 18 19 19 19 19 18 18 18 18 18 18 19 19 19 19 19 20 19 19 19 19 19 18 18 18 18 19 19 19 18 18 18 17 17
20 18 23 23 24 23 24 21 23 22 22 20 20 18 17 18 19 19 18 18 19 18 18 18 18 18 19 19 19 19 19 19 19 19 19 19 19 18 18 19 18 19 19 19 18 18 18 17 17
20 19 21 23 24 24 24 23 23 23 21 21 21 21 19 19 19 18 18 18 18 18 18 18 18 18 19 19 19 19 19 19 19 19 19 19 19 19 19 19 18 19 19 18 18 18 18 18 17
20 19 22 25 26 24 24 24 23 22 21 21 21 20 19 18 18 18 18 18 18 18 18 18 18 19 19 19 19 19 19 20 20 20 19 19 19 19 19 19 19 19 19 18 18 18 18 18 18
22 21 25 26 27 26 25 24 24 22 21 21 20 19 18 18 18 18 18 19 19 19 18 19 19 19 19 19 19 19 20 20 20 20 19 19 19 19 19 19 19 18 19 19 18 18 18 18 18
23 24 25 27 28 26 25 24 23 23 23 23 24 21 19 18 18 19 19 19 19 19 19 19 19 19 19 20 20 20 20 20 20 20 19 19 19 19 19 19 19 18 19 19 18 19 18 18 18
24 25 27 28 29 28 26 25 24 23 24 23 21 20 19 19 19 19 20 20 19 19 19 19 20 20 20 20 20 20 20 20 20 20 19 19 19 19 19 19 19 19 19 19 19 19 18 18 18
26 26 27 28 29 28 25 25 25 23 23 21 20 19 19 20 20 20 20 20 20 20 20 20 20 20 20 20 20 20 20 20 20 19 19 19 19 18 19 19 19 19 19 19 19 18 18 18 18
27 26 26 27 29 27 27 25 24 24 22 20 20 20 19 20 20 20 20 21 21 20 20 20 20 20 20 20 20 20 20 20 19 19 19 19 19 19 19 19 19 19 19 18 18 18 18 18 18
26 25 25 27 28 29 27 24 25 23 21 21 20 20 20 20 20 21 21 21 21 21 20 20 21 21 20 20 20 20 20 19 19 19 19 19 19 18 18 19 19 18 18 18 18 18 18 18 18
21 23 24 25 27 27 26 24 24 23 22 21 21 20 20 20 20 21 21 21 21 21 21 20 20 21 21 20 20 20 19 19 20 20 19 19 19 19 18 18 18 19 19 19 18 18 18 17 18
22 23 24 24 27 26 25 24 24 23 22 22 21 21 20 20 21 22 22 21 21 21 21 21 21 21 20 20 20 20 20 19 19 19 19 19 19 19 19 19 19 19 19 19 18 18 17 18 17
24 24 24 24 27 27 25 23 23 23 23 22 22 21 21 21 23 22 22 22 22 22 21 21 21 20 20 20 19 19 19 19 19 19 19 19 20 19 19 19 19 19 19 18 18 18 17 17 17
23 23 23 24 25 25 24 23 24 24 24 23 22 22 21 21 21 22 22 22 22 23 22 22 21 21 21 20 20 20 20 20 19 19 20 20 19 19 19 19 19 19 18 18 18 18 17 18 17
22 22 24 24 25 26 25 23 23 24 25 24 24 23 22 22 22 22 23 23 22 22 23 23 22 22 21 21 20 20 20 19 19 19 19 19 19 19 19 19 19 19 18 18 18 18 17 18 17
20 23 25 25 24 23 25 22 22 23 23 24 24 24 23 23 23 23 23 23 24 24 23 23 23 22 21 21 21 20 20 20 20 20 20 20 19 19 19 19 19 19 18 19 18 18 17 18 17
23 25 24 25 24 24 24 23 22 23 23 23 24 24 24 24 24 23 24 24 24 25 24 24 23 23 22 21 21 21 21 20 20 20 20 20 19 19 20 19 19 19 19 19 18 18 18 18 17
25 25 24 22 21 20 24 23 24 21 25 24 25 25 25 24 24 24 25 24 24 24 25 25 24 23 23 22 21 21 21 21 20 20 20 20 20 20 20 19 19 19 18 19 19 19 18 18 18
23 20 19 20 20 22 23 21 25 24 25 27 26 26 26 25 25 25 24 24 23 23 24 24 24 24 23 22 22 22 21 21 21 21 20 20 20 20 20 19 19 19 19 19 19 19 19 19 18
20 21 16 19 19 22 21 21 23 27 27 28 29 27 27 26 25 25 26 25 25 24 24 25 25 24 24 23 23 23 22 22 21 21 20 20 20 20 20 20 19 20 19 19 19 19 19 19 19
22 22 23 21 19 19 20 23 25 26 25 25 27 28 28 27 26 26 26 26 25 24 25 25 25 25 24 24 23 23 22 22 21 21 21 20 20 20 20 20 20 20 19 19 19 19 20 20 19
24 22 23 16 21 21 21 22 23 24 25 24 25 27 28 27 27 27 26 26 26 26 25 25 26 26 26 25 24 23 23 22 22 21 21 21 20 20 20 20 20 20 20 19 19 19 19 20 20
21 23 21 19 19 22 22 24 24 25 24 24 24 27 29 28 28 28 29 27 27 26 24 25 25 26 25 25 25 24 23 23 22 21 21 22 21 20 20 21 20 20 20 20 19 19 19 20 20
24 24 19 21 20 19 23 23 25 26 26 23 25 28 30 32 30 28 29 28 26 26 25 24 26 26 26 25 25 25 24 24 22 22 22 22 22 21 20 21 20 20 20 20 20 20 19 19 20

GFSSGP_850_temp_018.txt.gz
Temp
18 17 17 17 18 18 19 21 21 22 22 21 22 21 19 17 19 18 16 17 17 17 16 16 17 17 18 18 18 18 19 19 19 19 19 19 19 19 19 19 19 18 18 18 17 17 17 18 17
18 17 16 17 19 18 20 20 22 21 20 21 20 19 18 18 16 16 16 17 17 17 17 17 17 18 18 18 18 19 19 19 19 20 19 19 19 19 19 18 18 18 18 17 17 17 17 17 17
18 17 17 17 18 19 19 20 21 21 22 22 19 19 18 16 16 17 17 17 17 17 17 17 17 18 18 18 19 19 19 19 20 20 20 19 19 19 18 18 18 18 18 18 17 17 17 17 18
18 18 18 19 21 22 21 21 22 22 21 21 19 18 17 17 17 17 17 17 17 17 17 17 18 18 19 19 19 19 19 20 20 20 20 19 19 19 18 18 18 18 18 18 18 18 17 18 18
19 19 19 20 22 23 22 22 22 22 22 20 20 17 16 17 17 17 17 18 18 17 17 17 18 19 19 19 19 19 20 19 20 19 19 19 19 19 18 18 18 18 18 18 18 17 17 18 18
19 18 20 21 23 24 22 21 22 22 20 19 18 17 16 17 18 17 18 18 18 18 18 18 19 19 19 19 19 19 20 19 19 20 19 19 19 19 18 18 18 18 18 18 18 18 18 18 17
18 17 21 21 23 23 23 22 21 20 20 19 19 17 16 17 18 18 18 18 18 18 18 18 19 19 19 19 19 19 19 19 19 19 19 19 19 18 18 18 18 18 18 17 18 17 18 18 18
19 17 20 22 22 23 22 22 22 22 21 20 20 17 16 18 18 18 18 18 18 18 18 19 19 19 19 19 19 19 19 19 19 19 19 19 18 18 18 18 19 18 18 18 17 17 17 18 18
19 18 19 23 23 24 21 22 22 22 20 20 20 20 19 18 18 18 18 18 18 18 18 19 19 19 19 19 19 19 19 19 19 19 19 18 18 18 17 18 19 19 18 18 17 18 18 18 17
18 17 21 23 24 24 23 23 22 21 20 21 20 20 20 18 18 18 18 18 18 18 18 18 19 19 19 19 19 19 19 19 19 19 19 19 18 18 18 18 19 19 18 18 18 18 17 18 18
20 19 21 25 26 26 23 23 23 21 20 21 19 19 19 18 18 18 18 19 19 19 19 19 19 19 19 19 19 19 19 19 19 19 19 19 19 19 18 19 18 18 18 18 18 18 18 18 18
20 22 23 24 26 25 23 24 23 22 22 22 21 21 19 18 18 18 19 19 19 19 19 19 19 19 19 19 19 19 19 19 19 19 19 19 18 19 19 19 19 19 18 18 18 18 18 18 18
21 23 24 25 26 27 25 23 23 22 23 23 20 19 18 19 19 19 19 19 19 19 19 19 19 19 19 19 19 19 20 20 20 20 19 19 19 18 18 19 19 18 19 18 18 18 18 18 18
24 24 25 26 27 27 24 24 24 24 22 21 19 18 19 19 19 19 19 19 19 20 20 19 19 19 19 19 20 20 20 20 20 19 19 19 19 18 18 18 18 18 18 18 18 18 18 18 18
25 24 24 25 26 26 25 23 23 23 22 20 19 18 18 19 19 20 20 20 20 20 20 20 20 20 20 20 20 20 20 20 20 19 19 19 19 19 18 18 18 18 18 18 18 18 18 18 18
24 24 24 26 25 26 25 23 24 24 21 20 19 18 18 18 20 20 20 20 20 20 20 20 20 20 20 20 20 20 20 20 19 19 19 19 19 18 18 18 18 18 18 18 18 18 17 17 17
20 21 23 24 26 25 24 23 24 23 21 20 19 19 19 18 18 20 21 21 20 20 21 20 20 20 20 20 20 20 20 19 19 19 19 19 19 19 18 18 18 18 18 18 17 17 17 17 17
20 22 23 25 27 24 23 23 22 22 21 20 20 19 19 19 20 20 21 21 21 21 21 20 20 21 20 20 20 19 20 19 19 19 19 19 19 19 19 18 18 18 18 18 18 17 17 17 17
22 23 24 24 26 26 23 23 21 22 21 21 20 20 19 19 22 20 21 21 21 21 21 21 21 21 20 20 20 19 19 19 19 19 19 19 19 19 19 18 18 18 18 18 18 18 17 17 17
22 22 21 23 25 26 24 24 22 21 22 22 21 20 20 20 19 21 21 20 21 21 21 21 22 21 21 20 20 20 20 20 19 19 19 19 19 19 19 19 19 18 18 18 18 18 17 17 17
19 20 21 23 24 24 23 22 22 22 22 22 22 21 21 20 21 21 21 22 22 21 21 22 22 22 21 21 20 20 20 19 19 19 19 19 19 19 19 19 18 18 18 18 18 17 17 17 17
18 20 23 23 22 21 23 20 21 21 21 22 22 21 21 21 21 21 22 20 22 23 23 22 22 22 22 21 21 20 20 20 20 19 19 19 19 19 19 19 19 19 19 18 18 18 17 17 17
22 22 22 23 22 22 22 21 21 20 20 21 22 22 22 22 22 22 23 23 23 22 23 23 23 22 22 22 21 21 20 20 21 20 20 19 19 19 19 19 19 19 19 19 19 18 18 17 18
22 24 20 18 18 19 21 21 20 19 22 22 23 23 23 22 23 23 24 24 23 22 21 22 23 23 23 22 22 21 21 21 21 20 20 20 19 19 19 19 19 19 18 18 19 18 18 18 18
22 19 17 19 18 21 20 20 24 22 24 24 24 24 24 23 23 23 23 24 24 23 23 23 22 23 23 23 22 22 21 21 21 21 21 21 20 20 19 19 19 19 19 18 18 18 18 18 19
19 18 16 18 17 21 19 20 21 24 24 26 26 26 25 24 24 23 24 23 25 24 25 24 24 24 23 23 23 23 22 21 21 21 21 21 21 21 20 20 19 19 19 19 18 19 18 19 19
19 20 19 18 18 18 18 20 24 24 23 23 25 26 26 25 24 24 23 24 24 25 25 26 25 25 24 24 24 23 23 22 22 21 21 21 21 21 20 20 20 20 20 19 19 19 19 19 20
20 19 20 14 19 18 19 20 22 22 24 23 22 24 27 27 25 25 24 24 25 26 26 26 26 26 25 25 24 24 24 23 23 22 21 21 21 20 20 20 20 20 20 19 19 19 19 19 20
20 19 18 18 15 17 18 21 19 23 21 23 24 26 29 28 27 27 26 26 25 26 25 26 25 25 25 25 25 24 24 23 23 22 22 22 21 21 20 20 20 20 20 19 19 19 19 19 19
24 23 18 20 18 16 17 21 23 23 25 23 25 27 30 30 30 29 28 27 26 26 26 25 27 25 26 26 26 25 25 24 23 23 23 22 21 21 20 21 20 20 20 20 19 19 19 19 19

GFSSGP_850_temp_021.txt.gz
Temp
18 18 17 17 19 20 21 22 23 24 23 22 22 22 22 18 20 21 16 16 17 17 16 17 17 17 17 18 18 18 18 19 19 19 19 19 19 18 18 17 17 17 17 18 17 17 18 18 18
17 17 16 17 20 22 22 23 23 24 22 21 21 20 20 18 16 16 16 16 17 16 17 17 17 18 18 18 18 18 19 19 19 19 19 19 18 18 18 18 18 17 17 17 17 17 17 17 17
17 17 17 19 22 24 23 23 23 22 22 22 21 19 19 17 16 15 15 15 16 17 17 17 17 18 18 18 19 19 19 19 19 19 19 19 18 18 18 18 18 17 17 17 17 18 17 17 17
18 17 17 20 24 24 24 24 23 23 22 21 20 20 17 16 16 16 16 16 16 17 17 17 18 18 18 19 19 19 19 19 19 19 19 19 18 18 18 17 17 17 17 18 18 18 18 17 17
17 18 21 23 25 24 24 24 23 24 23 21 21 19 16 16 16 17 16 16 17 16 17 17 18 18 18 19 19 19 19 19 19 19 19 19 18 18 17 17 18 17 17 18 18 17 17 17 17
19 19 23 25 26 25 24 24 24 24 22 20 20 19 17 17 17 16 16 17 17 16 16 17 18 18 19 19 19 19 19 19 19 19 19 18 18 18 17 18 18 18 18 18 18 18 18 18 17
20 22 24 25 25 26 25 23 24 23 22 21 20 20 16 16 16 17 17 17 17 16 16 16 18 18 19 19 19 19 19 19 19 19 19 18 18 18 18 18 18 18 18 18 18 18 18 18 18
20 21 24 25 26 26 24 24 23 23 22 20 20 20 17 16 17 17 18 16 17 16 16 17 17 18 19 19 19 19 19 19 19 19 19 19 18 18 18 18 18 18 18 18 18 18 18 18 18
19 23 24 26 26 27 23 24 23 22 21 21 20 20 19 16 16 16 16 16 16 16 17 16 17 19 19 19 19 19 19 19 19 19 19 18 18 18 18 18 18 17 17 17 17 18 17 18 18
21 23 25 26 27 28 25 25 23 23 22 22 21 19 18 16 16 16 16 16 16 16 17 16 18 19 19 19 19 19 19 19 19 19 19 18 18 18 18 18 19 18 18 17 18 17 17 18 17
21 24 25 27 27 27 26 25 24 23 23 23 21 18 17 17 16 17 17 17 17 18 18 18 19 19 19 19 19 19 19 19 19 19 19 18 18 18 18 19 18 19 18 18 18 18 18 18 18
22 23 24 26 26 26 26 25 25 24 24 23 21 19 18 17 17 17 17 17 18 19 19 19 19 19 19 19 19 19 19 19 19 19 19 19 18 18 18 19 18 19 18 18 18 18 18 18 18
22 25 25 25 26 26 26 25 26 24 24 23 20 19 18 18 18 18 18 17 19 19 19 19 19 19 19 19 19 19 19 19 19 19 19 19 18 18 18 19 19 18 18 18 18 18 18 18 18
24 25 26 26 27 27 27 27 25 25 22 21 20 19 19 18 18 17 17 19 20 19 19 19 19 19 19 19 19 19 19 19 19 20 19 19 18 18 18 18 18 18 18 18 18 18 18 18 18
24 25 27 28 28 28 27 25 25 25 22 21 20 19 19 18 18 18 19 20 20 20 20 19 19 19 19 19 19 19 19 19 20 20 19 19 19 19 18 18 18 18 18 18 18 18 18 18 18
25 26 27 29 29 28 28 29 27 24 23 22 21 19 19 18 18 18 18 19 20 20 20 20 19 20 20 20 20 19 19 20 20 20 19 19 19 19 19 18 18 18 18 18 18 17 17 17 17
25 26 26 28 29 28 28 29 29 24 24 23 21 20 19 19 18 18 18 19 20 20 20 20 20 20 20 20 20 20 20 19 19 19 19 19 19 19 18 18 18 18 18 17 17 17 17 17 17
25 25 26 27 29 28 28 28 27 25 24 23 22 21 20 20 20 19 18 18 20 20 20 21 20 20 20 20 20 20 20 19 19 19 19 19 19 19 19 19 18 18 18 18 17 17 17 17 17
25 26 27 28 29 28 28 28 28 25 24 24 23 22 21 21 21 20 19 18 19 20 20 21 21 21 21 20 20 20 20 20 19 19 19 19 19 19 19 19 18 18 18 17 17 17 17 17 17
24 25 26 26 27 27 28 28 29 26 25 24 23 22 22 22 21 20 19 19 18 21 21 21 21 21 21 21 21 20 20 20 20 19 19 19 19 19 19 19 19 18 18 18 17 17 17 17 17
24 25 26 26 27 27 27 28 27 26 25 25 24 23 23 22 21 20 20 19 19 20 21 21 21 21 21 21 20 20 20 20 20 19 19 19 19 19 19 19 19 18 18 18 18 17 17 17 17
24 25 26 25 26 26 27 27 27 28 26 25 24 23 23 23 22 21 20 20 19 22 22 21 21 21 21 21 20 20 20 20 20 20 20 19 19 19 19 19 19 18 18 18 18 18 17 17 17
24 25 25 26 26 26 27 26 29 25 26 26 25 24 23 23 23 22 21 21 22 21 23 22 22 21 21 21 21 21 20 20 20 20 20 20 19 19 19 19 19 19 18 18 18 18 18 17 17
25 24 25 24 26 24 26 26 28 28 28 28 27 25 24 23 23 22 22 21 21 21 22 22 22 22 21 21 21 21 21 21 21 21 20 20 20 19 19 19 19 19 19 18 18 18 18 18 17
25 25 24 24 24 25 28 26 27 29 29 30 29 26 25 24 24 23 22 21 23 22 23 23 23 23 23 22 22 22 22 21 21 21 21 20 20 20 20 20 19 19 19 19 18 18 18 18 19
24 26 25 24 25 26 25 26 28 29 29 28 29 28 27 25 24 24 24 23 25 25 24 24 24 23 23 23 23 22 22 22 22 22 21 21 21 21 21 20 20 20 19 19 19 19 19 19 19
24 24 27 25 22 25 27 28 27 28 29 29 29 29 28 27 25 24 24 24 25 26 26 25 25 24 24 24 23 23 23 22 22 22 22 21 21 21 21 21 20 20 20 20 19 19 19 19 19
25 26 23 25 23 24 26 25 28 28 29 29 29 29 28 28 27 26 24 23 25 26 27 26 26 26 26 25 24 24 24 23 23 22 22 22 22 21 20 21 20 20 20 20 19 19 19 20 20
23 24 25 26 25 26 26 28 27 28 28 30 30 29 29 28 28 27 26 24 24 23 23 25 26 26 26 26 26 25 25 24 24 23 23 23 22 21 20 20 21 20 20 20 20 19 19 20 20
26 25 25 25 23 25 26 27 28 29 30 29 30 29 28 27 28 30 27 25 24 24 24 24 25 25 26 26 26 26 26 25 25 24 24 24 23 22 21 20 20 20 20 20 20 20 19 20 20

GFSSGP_850_temp_024.txt.gz
Temp
18 17 16 17 19 23 25 26 27 27 27 26 24 26 26 19 24 21 16 17 16 17 17 17 18 18 18 18 18 19 18 18 19 19 19 18 18 18 17 17 17 17 18 17 17 17 17 17 17
17 17 17 21 22 24 26 27 28 28 26 25 24 24 23 19 19 17 16 16 16 16 16 16 17 18 18 18 18 18 18 19 19 19 19 18 17 17 18 18 17 17 18 18 17 17 17 17 17
17 18 20 22 27 26 26 27 27 26 25 25 24 24 23 21 18 18 17 16 17 17 17 17 18 18 18 18 18 18 19 19 19 19 18 18 18 18 17 17 17 17 17 18 18 18 17 17 17
17 17 19 23 28 28 28 28 27 26 25 25 25 24 20 19 18 17 17 17 17 17 18 18 18 18 18 18 18 19 19 19 19 19 18 18 18 18 17 17 18 18 18 18 18 18 18 17 17
19 20 24 26 29 28 29 27 27 28 26 25 25 23 19 18 18 17 17 18 18 18 18 17 18 18 18 18 19 19 19 19 19 18 18 18 18 18 17 17 18 18 18 18 18 18 18 18 18
22 24 28 30 30 29 29 27 27 27 26 24 24 22 18 18 18 18 18 19 19 19 18 17 18 18 18 18 19 19 19 19 19 18 18 18 18 18 18 18 18 18 18 18 18 18 18 17 17
24 28 29 30 30 30 29 28 28 28 26 25 24 24 19 18 18 19 19 19 19 19 19 17 17 18 18 18 19 19 19 19 19 19 18 18 18 18 18 18 18 18 18 18 18 18 18 17 17
24 27 30 30 30 29 29 28 28 27 26 24 24 23 20 19 19 19 19 18 19 19 19 18 18 17 17 17 19 19 19 19 19 19 19 18 18 18 18 18 18 18 18 18 18 18 18 18 17
23 28 30 30 31 30 28 29 27 26 25 25 24 24 21 19 19 19 19 18 18 19 19 19 18 17 17 17 18 19 19 19 19 19 19 18 18 18 18 18 18 18 18 18 18 18 18 18 18
25 29 31 31 31 31 29 29 27 27 26 25 24 23 20 19 19 19 19 19 19 19 19 19 19 18 17 18 17 17 17 18 18 18 17 18 17 17 17 18 18 18 18 18 18 18 18 19 20
27 29 31 30 30 30 30 29 28 28 28 26 24 22 20 20 20 20 20 20 20 19 19 19 18 18 18 18 17 18 18 18 18 17 18 17 17 17 18 18 18 17 18 18 18 17 18 18 19
27 28 29 30 29 30 31 30 29 28 29 27 24 22 21 20 20 20 20 20 20 19 19 19 18 17 17 18 18 18 18 18 18 18 19 18 18 18 17 18 17 18 18 18 18 18 18 17 18
27 29 29 29 29 30 30 30 30 29 27 26 24 22 21 21 21 21 21 21 20 19 19 19 18 17 17 17 18 18 18 18 19 18 18 18 18 18 18 18 18 18 18 19 17 17 18 18 17
29 28 29 29 31 30 31 31 29 29 27 25 24 23 22 22 22 21 21 21 20 20 19 19 18 17 17 17 17 17 17 18 18 18 18 19 18 18 18 18 18 18 18 18 18 17 17 19 18
28 28 30 31 31 31 31 31 30 30 27 26 25 24 23 22 22 22 21 21 20 20 19 19 18 17 17 17 17 17 18 18 18 18 19 19 19 19 19 18 18 18 18 18 17 17 18 18 18
29 29 30 32 32 31 31 31 32 29 27 27 26 24 24 23 22 22 21 21 20 20 19 18 18 18 17 17 17 17 18 18 18 19 18 19 19 19 19 18 18 18 18 17 17 17 17 19 19
29 30 30 32 32 32 32 32 33 29 28 28 26 25 24 23 23 22 21 21 21 20 19 18 18 18 18 17 17 18 18 18 18 19 18 19 19 19 19 18 18 18 18 17 17 17 17 18 18
29 29 31 31 32 32 32 32 33 31 30 29 27 26 25 24 23 22 21 21 21 20 19 18 18 18 17 17 17 18 18 18 18 18 19 18 19 19 19 18 18 18 18 17 17 17 17 18 18
30 30 30 31 32 31 32 32 32 31 30 30 28 26 25 25 24 23 22 21 21 20 19 18 18 18 18 18 18 18 19 18 18 19 18 19 19 19 19 18 18 18 18 17 18 17 17 18 17
28 29 30 31 32 31 32 32 33 32 31 30 29 27 26 26 25 23 22 22 21 20 19 18 18 18 20 19 19 19 19 19 19 19 18 20 19 20 20 19 18 18 18 18 17 18 18 18 18
27 28 29 30 31 31 31 31 32 33 32 30 29 28 27 26 25 24 23 22 22 21 20 19 18 18 21 18 18 18 18 19 19 19 19 19 20 20 20 19 19 18 18 18 18 17 17 19 17
27 28 29 29 30 29 32 30 32 33 32 32 30 29 28 27 26 25 24 23 22 22 20 19 18 19 19 20 19 19 19 19 20 19 20 19 20 20 19 20 19 19 18 18 18 17 18 18 18
27 30 29 29 29 29 30 30 31 33 32 33 32 31 29 28 27 26 25 24 23 22 21 20 19 19 19 20 20 19 20 20 20 20 20 19 19 20 18 19 19 19 19 18 18 18 18 17 18
28 28 28 28 29 28 30 31 31 32 32 33 33 31 29 28 27 27 26 25 24 23 22 21 19 21 21 21 21 20 19 20 20 20 20 20 19 19 18 18 19 19 18 18 18 18 18 18 18
27 27 27 27 28 28 31 30 30 33 34 33 34 33 30 29 27 27 26 25 24 23 22 21 20 20 21 21 21 22 21 20 20 19 19 20 20 20 20 19 20 19 19 19 19 18 18 19 19
27 28 28 26 28 29 31 30 32 34 33 33 33 33 32 29 28 28 27 26 24 24 23 22 21 22 22 22 22 22 22 20 19 19 20 20 21 21 20 19 20 20 19 20 19 18 18 18 20
27 28 30 30 30 30 32 32 33 33 33 33 33 33 33 31 29 28 28 27 25 24 23 22 23 25 24 24 23 23 23 22 20 20 20 20 20 21 19 19 20 19 20 20 19 19 19 19 20
29 29 28 29 27 27 30 31 31 32 31 33 33 34 33 32 30 29 28 28 27 25 24 22 23 26 26 25 24 24 23 23 23 22 22 21 20 21 20 19 20 19 20 20 20 19 19 20 20
28 28 29 30 30 29 29 32 33 32 32 32 33 33 34 33 32 30 29 28 28 27 25 24 22 22 25 26 26 25 24 24 24 23 23 23 22 21 22 21 21 20 20 21 20 20 19 21 21
29 28 29 28 27 29 30 32 33 33 33 33 33 33 33 33 33 32 31 30 28 27 26 25 24 23 24 27 27 26 25 25 24 24 24 24 23 23 22 22 21 21 20 20 21 21 19 20 21

GFSSGP_850_temp_027.txt.gz
Temp
19 17 17 17 19 23 22 24 29 29 28 28 27 25 24 24 24 20 17 17 18 17 18 18 18 19 19 18 19 19 19 19 19 18 18 17 17 18 17 18 17 18 18 18 17 18 18 18 17
18 17 17 19 21 21 27 27 27 28 28 27 27 27 25 22 21 17 16 18 18 17 16 17 18 18 18 18 19 19 19 19 18 18 18 17 17 18 18 18 17 18 18 18 18 18 18 18 17
19 18 19 23 22 25 28 25 27 29 28 27 27 26 23 22 19 19 17 16 17 18 18 17 18 18 18 19 19 19 19 19 19 18 18 18 18 17 17 18 18 18 18 18 18 18 18 18 17
19 19 21 25 24 31 29 28 30 30 29 28 28 25 22 21 20 19 18 17 18 18 19 18 18 18 19 19 19 19 19 19 19 18 18 18 18 17 18 18 18 18 18 18 18 18 18 18 18
19 22 25 24 26 32 31 30 28 29 29 29 28 26 21 20 20 19 18 18 19 18 19 17 18 18 19 19 19 19 19 19 19 19 18 18 18 18 18 18 18 18 18 18 18 18 18 18 18
22 25 21 25 31 32 32 31 26 27 29 27 25 23 20 20 20 19 19 19 18 18 19 17 18 18 19 19 19 19 19 19 19 19 18 18 18 18 18 19 19 18 18 18 18 18 18 18 18
25 25 21 23 31 31 32 31 30 30 30 29 26 25 20 20 20 20 19 19 19 19 20 18 17 18 19 19 19 19 19 19 19 19 19 18 18 18 19 19 19 18 18 18 18 18 18 18 18
27 30 29 24 25 30 32 32 31 29 29 27 26 24 21 20 20 20 19 19 19 20 20 18 18 17 17 19 19 19 19 19 19 19 19 19 19 19 19 19 18 18 18 18 18 18 19 19 19
27 28 29 32 30 33 32 32 30 29 28 28 27 25 22 21 21 20 19 19 20 20 20 20 19 18 18 17 18 19 19 19 19 19 19 19 18 18 18 19 19 19 18 18 18 19 18 18 19
28 26 21 33 34 33 32 32 30 30 29 28 28 25 22 22 21 20 20 19 20 20 21 21 20 19 19 19 18 17 17 18 18 18 19 17 18 18 18 19 19 19 19 18 18 19 18 17 18
30 28 22 33 33 33 33 32 31 31 30 28 27 24 23 23 22 21 20 20 20 21 22 21 20 19 20 20 18 19 19 20 20 19 19 18 19 19 19 19 18 19 18 19 17 18 18 19 19
30 30 23 33 32 32 33 32 32 31 31 29 27 24 23 23 23 23 23 22 22 23 23 22 21 19 20 20 19 20 21 21 21 19 19 19 19 19 19 19 19 19 19 18 18 19 18 18 18
31 32 32 32 32 32 32 33 31 32 30 29 26 25 24 24 24 24 24 23 23 23 22 22 20 19 19 19 20 21 21 20 21 20 18 19 19 19 19 19 19 19 19 18 19 19 19 19 18
32 31 32 32 33 33 33 33 32 32 30 29 27 25 25 24 24 24 24 24 23 23 22 22 20 19 18 19 19 20 20 21 21 21 20 19 19 19 19 19 19 19 19 18 19 18 18 19 19
31 31 32 32 33 34 33 33 33 32 30 29 27 26 25 25 25 24 24 23 23 22 22 21 20 19 18 18 18 19 20 20 21 21 19 18 19 19 19 19 20 19 19 19 18 18 18 19 20
31 31 31 33 34 34 33 32 34 32 30 29 28 27 26 25 25 24 24 24 23 22 22 21 21 20 18 18 18 19 20 20 21 21 20 18 18 18 19 19 19 18 19 19 18 18 20 20 20
31 30 31 33 34 34 34 33 33 33 31 31 29 28 27 26 26 25 24 24 23 22 21 21 20 20 19 18 19 19 19 20 20 20 20 19 18 18 19 19 19 19 18 19 19 19 19 20 20
30 31 33 33 35 34 34 33 33 33 32 32 30 29 28 27 26 25 24 24 23 22 21 20 20 20 19 19 18 19 20 19 20 20 20 19 19 19 18 19 19 19 18 19 18 19 19 19 20
32 33 33 34 35 34 33 33 35 34 33 33 31 30 29 28 27 26 25 24 23 23 22 21 20 20 19 19 19 20 20 20 20 20 20 19 18 18 18 19 18 19 19 19 18 18 19 19 19
31 32 33 34 35 34 34 33 35 35 34 33 32 31 30 29 27 26 25 24 24 23 22 21 20 19 19 19 19 20 20 21 20 20 20 19 18 18 19 19 19 19 19 19 17 18 19 20 19
30 31 32 33 34 35 33 33 33 35 34 33 33 31 30 29 28 26 25 25 24 23 22 21 20 19 19 20 19 19 20 20 20 20 20 19 19 19 19 18 19 19 19 19 18 18 19 19 19
30 32 32 32 33 32 33 31 33 34 34 34 33 32 31 30 29 27 26 25 25 24 22 21 20 19 19 19 20 20 20 21 21 21 21 20 19 19 19 18 18 18 19 19 19 18 19 19 20
30 32 31 31 32 32 32 32 34 34 34 34 35 33 32 31 30 29 27 26 25 24 23 21 20 19 19 19 20 20 20 21 21 22 21 20 20 19 19 19 19 18 19 19 19 18 19 19 20
31 31 31 31 31 30 31 32 33 35 35 35 35 34 33 32 31 29 28 27 26 25 24 22 20 20 19 19 21 20 20 21 22 21 22 21 21 20 19 19 19 18 19 19 19 18 18 18 19
30 30 28 29 30 29 32 32 33 35 36 36 36 35 34 33 31 30 29 27 26 25 24 23 21 20 20 19 20 21 20 21 21 21 21 22 22 21 21 20 19 19 20 19 19 19 18 19 18
29 30 30 27 29 31 32 31 33 35 36 36 35 35 34 33 32 31 29 28 27 25 24 23 22 20 20 20 20 22 21 20 20 21 22 21 22 22 22 21 20 19 19 19 19 19 18 18 19
30 30 32 33 33 33 34 34 35 36 36 36 36 35 35 34 33 31 30 29 27 26 25 23 23 22 22 22 22 22 23 22 20 21 21 21 21 23 22 21 20 19 19 19 19 19 19 19 19
32 31 30 31 30 31 33 34 33 34 34 36 35 35 35 35 33 32 31 29 28 27 25 24 23 22 24 23 24 24 24 23 22 21 21 21 21 21 22 21 20 19 19 19 19 19 19 19 19
30 31 31 32 32 32 32 34 36 35 35 35 35 35 35 35 34 32 31 30 29 28 27 25 24 22 22 24 24 25 25 23 23 22 21 22 21 21 22 21 21 20 20 19 19 19 20 19 20
32 31 31 30 30 32 33 34 36 37 36 35 35 35 35 35 34 33 32 31 30 29 28 27 25 24 23 23 24 25 25 25 24 24 23 22 23 22 21 22 20 21 21 20 19 20 20 19 20

GFSSGP_850_temp_030.txt.gz
Temp
19 18 17 17 19 19 22 21 22 26 28 27 27 24 26 25 25 21 19 18 18 18 18 18 18 18 18 18 18 19 19 19 19 18 18 18 17 18 18 18 18 18 18 18 18 18 18 18 18
17 17 17 18 20 20 21 25 24 27 29 29 27 27 25 22 20 17 18 17 18 18 18 18 18 18 18 18 19 19 19 19 18 18 18 18 18 18 18 18 18 18 18 18 18 18 18 18 18
19 18 18 20 20 21 23 22 26 29 28 28 27 25 23 21 19 18 19 18 18 18 17 19 19 18 18 18 19 19 19 19 18 18 18 18 18 18 18 18 18 18 18 18 18 18 18 18 17
18 18 19 20 22 24 28 29 28 30 28 27 26 24 21 20 19 19 20 19 19 18 19 19 19 18 17 19 19 19 19 19 18 18 18 18 18 18 18 19 18 18 18 18 18 18 18 18 18
19 22 21 23 24 27 31 30 27 28 29 27 25 23 20 20 19 19 19 18 18 18 19 19 19 18 18 19 19 20 19 19 19 19 18 18 18 18 19 19 18 18 18 18 19 19 19 19 19
21 19 21 24 26 31 32 31 30 28 28 26 23 22 20 19 18 18 18 18 19 18 18 19 19 18 19 19 19 20 19 19 19 19 18 18 18 19 19 19 19 19 19 19 19 19 19 19 19
19 17 19 22 24 31 31 30 31 29 30 27 24 23 20 19 18 19 19 19 20 19 18 19 18 18 19 19 19 20 19 19 19 19 19 19 19 19 19 19 19 19 19 19 19 19 19 19 19
25 18 20 21 25 24 33 31 30 29 29 27 24 22 20 19 19 19 19 19 19 20 18 17 17 19 19 19 19 19 19 19 19 19 19 18 18 19 19 18 19 19 19 19 19 19 19 18 19
25 24 24 24 27 26 32 32 29 29 29 28 26 22 21 20 20 19 20 19 20 20 19 18 17 17 17 18 20 19 19 19 20 19 18 17 18 19 19 18 19 19 19 19 18 18 18 19 19
28 19 21 26 26 28 31 32 31 30 30 28 24 22 21 20 20 20 19 19 20 20 20 19 19 18 18 17 20 19 19 20 19 18 20 19 18 18 19 19 19 19 18 18 19 18 18 19 19
29 23 26 27 27 32 31 32 32 31 30 27 24 23 22 20 21 20 19 20 20 21 21 20 20 19 19 19 19 18 19 19 19 19 19 17 17 18 19 19 19 19 18 19 18 19 18 19 19
30 24 22 26 28 33 30 28 32 30 30 28 25 24 23 21 21 20 20 20 21 22 22 21 20 20 20 20 20 19 20 20 20 20 19 17 19 18 19 19 18 18 17 18 18 18 19 18 19
31 27 27 26 28 34 29 24 27 27 30 28 26 24 24 23 22 22 21 21 21 22 23 22 20 20 20 20 20 20 21 21 21 20 20 19 20 19 19 19 19 19 19 19 18 19 19 18 19
32 33 30 28 29 34 34 30 28 29 30 28 26 25 25 25 24 23 22 22 22 23 23 22 21 20 20 20 20 20 21 21 21 21 20 19 18 19 20 19 18 19 19 19 18 19 20 19 19
32 32 33 33 34 34 34 34 32 30 30 28 27 26 26 26 26 25 24 24 23 24 23 22 21 20 20 20 19 20 20 21 21 21 21 20 19 19 20 19 19 18 18 19 19 20 19 19 19
32 32 31 33 34 34 34 32 33 29 31 29 28 27 26 26 26 25 25 25 24 23 23 22 21 20 20 19 19 19 20 20 21 21 21 20 20 19 20 20 20 20 19 20 19 20 18 20 19
30 30 31 32 34 34 34 33 34 31 32 30 29 28 27 26 26 25 25 25 24 23 23 22 22 21 20 18 18 19 20 20 21 21 21 20 20 20 19 20 20 19 19 19 19 20 19 20 20
29 30 31 31 34 34 34 33 33 32 26 31 29 29 28 27 26 26 25 25 24 23 22 22 21 21 20 19 19 19 19 20 20 21 21 20 20 20 20 19 19 19 19 19 19 19 19 20 20
31 31 32 33 35 34 34 33 33 30 24 26 31 29 28 28 27 26 25 25 24 23 22 22 21 21 20 19 19 19 20 20 20 20 21 20 20 20 20 19 19 19 20 19 20 19 19 19 20
30 31 32 34 35 35 34 34 34 30 23 24 29 25 29 29 28 27 25 25 25 23 22 22 21 21 20 20 19 19 20 20 20 20 20 20 20 19 20 20 19 19 19 20 20 19 19 20 20
30 30 31 33 35 36 34 33 34 34 34 33 32 28 31 29 28 27 26 25 25 23 23 22 21 20 20 20 19 20 20 21 21 20 20 20 20 19 19 19 20 19 19 19 20 20 19 19 20
29 31 32 33 33 32 35 31 33 34 34 34 33 33 32 30 29 27 26 26 25 24 23 22 21 21 20 20 20 20 20 20 21 21 20 20 20 19 19 19 20 19 19 19 19 20 19 19 19
30 32 32 32 32 33 33 33 33 34 34 34 35 33 28 31 30 28 27 26 25 24 23 22 22 21 20 20 20 20 20 20 21 21 21 21 20 20 20 19 19 20 20 19 19 19 19 20 19
32 32 32 32 32 31 32 33 33 34 34 35 35 34 33 32 31 29 27 26 25 25 23 22 22 21 20 20 20 20 20 20 21 21 21 21 21 20 20 19 19 19 20 19 19 19 20 20 20
31 31 29 29 29 29 32 32 33 35 35 36 36 35 34 33 32 30 28 27 26 25 24 22 22 21 21 20 20 20 20 20 21 21 22 21 21 20 21 20 19 20 20 19 19 20 20 20 20
30 31 29 27 29 29 31 31 32 35 36 36 36 35 35 34 33 31 29 27 26 26 24 23 22 22 22 21 21 21 20 20 21 21 22 22 21 22 21 21 21 21 21 20 19 20 19 19 20
30 30 32 31 32 31 32 32 34 35 36 36 37 36 35 35 34 32 30 28 27 26 25 24 22 22 22 22 21 22 21 20 22 21 21 22 22 22 22 22 22 21 20 21 20 20 20 19 19
32 32 30 31 28 30 32 33 33 33 34 35 36 36 36 35 34 32 30 29 27 26 25 24 23 23 24 23 23 23 24 22 22 22 21 22 22 22 23 22 22 21 21 20 20 20 20 19 19
31 31 31 31 31 30 31 34 37 34 34 35 36 36 36 35 34 33 31 30 28 27 26 25 23 23 22 23 25 24 23 23 23 22 22 22 22 21 22 21 21 22 21 21 20 20 20 20 20
32 31 31 30 29 32 32 34 36 37 36 36 36 36 35 35 34 34 32 31 29 28 26 25 24 23 23 23 23 23 23 24 25 24 23 23 22 22 21 22 21 21 21 21 21 21 20 20 20

GFSSGP_850_temp_033.txt.gz
Temp
19 18 17 17 19 18 20 22 22 24 24 26 25 24 22 21 23 20 17 18 18 18 18 17 18 18 18 18 18 18 18 19 19 18 18 18 18 17 18 18 18 18 18 18 18 18 18 18 18
19 18 17 18 19 19 20 22 21 23 25 25 25 23 22 20 18 16 17 18 19 19 18 18 18 18 18 18 18 19 19 19 19 18 19 19 18 17 18 18 18 18 18 18 18 18 18 18 18
19 18 18 19 20 20 22 23 23 26 27 26 24 23 21 18 16 15 18 18 19 19 18 18 18 18 18 18 19 19 19 19 19 18 19 18 18 18 18 18 18 18 18 19 18 18 18 18 18
18 18 19 19 21 23 24 25 25 28 25 24 22 21 20 19 18 18 18 19 19 18 18 19 18 18 18 19 19 19 19 19 18 18 19 19 18 18 18 18 18 19 19 19 19 19 19 18 18
19 19 20 20 21 21 24 26 26 26 25 23 22 20 19 19 20 19 19 19 19 17 18 19 18 18 18 19 19 19 19 19 19 19 19 18 18 19 18 18 19 19 19 19 19 18 19 19 19
19 20 20 20 22 22 24 27 27 27 25 21 20 20 19 20 20 19 19 19 17 18 18 19 18 18 19 19 19 19 19 19 19 19 18 18 19 19 18 19 19 19 19 18 18 18 18 18 18
20 18 18 19 19 23 28 29 27 25 24 23 21 20 18 19 20 19 19 18 18 18 19 19 19 19 19 19 19 19 19 19 19 18 18 18 19 19 19 19 19 19 18 18 19 19 18 18 18
19 18 18 20 21 22 21 30 28 26 24 22 21 19 18 18 19 19 19 18 18 19 19 19 19 19 19 20 19 20 19 19 19 19 19 18 18 18 18 18 19 19 19 19 19 19 19 18 18
22 18 17 21 24 25 24 27 28 26 24 23 23 20 19 19 19 19 19 19 18 19 19 19 20 19 19 20 20 20 19 19 19 19 19 19 18 18 19 19 19 19 19 19 19 19 19 19 18
22 19 20 25 26 25 24 24 28 25 23 21 20 19 19 19 19 19 19 19 19 19 19 20 20 19 20 20 20 20 20 19 19 19 20 19 19 19 18 19 19 19 19 19 18 19 19 19 19
25 23 25 25 26 24 25 25 25 25 22 21 20 19 19 19 19 19 19 20 19 19 20 19 19 20 20 20 20 20 19 19 19 19 20 19 19 19 18 19 19 19 19 19 18 18 18 19 19
25 27 25 25 26 27 27 26 23 27 23 21 20 20 20 19 19 19 20 20 20 20 20 19 19 19 19 20 20 20 20 19 19 20 20 19 20 19 19 18 19 19 19 19 18 18 18 19 19
28 25 27 29 26 27 27 26 26 26 23 22 21 20 20 20 20 20 19 20 20 20 20 20 20 19 19 20 20 21 20 20 19 20 20 20 19 19 19 18 18 19 19 19 19 19 19 19 20
29 27 26 27 28 26 26 26 25 26 23 22 21 20 20 20 20 21 20 20 21 21 20 20 20 20 19 20 20 20 20 20 20 20 20 20 19 19 18 18 19 19 19 19 19 19 19 19 19
29 29 28 27 28 29 26 25 23 26 24 23 22 20 21 21 21 21 21 21 21 21 21 21 21 20 20 19 20 20 20 21 20 20 20 20 20 19 19 19 19 19 19 19 19 19 19 19 19
28 28 27 27 27 29 29 25 29 27 25 24 24 22 21 21 21 21 22 22 22 22 21 21 21 21 21 20 20 20 20 21 21 21 21 20 20 19 19 19 19 19 20 19 19 19 19 19 20
26 25 27 29 31 32 30 28 28 28 27 25 25 25 24 23 22 22 23 23 23 22 22 22 21 21 21 21 20 20 20 21 21 20 21 20 20 20 19 19 19 19 19 19 19 19 20 20 20
24 25 26 28 31 30 30 28 26 28 27 23 22 25 25 25 24 23 23 23 22 23 23 22 22 21 21 20 20 20 20 21 20 20 21 21 20 20 19 18 19 19 19 19 19 20 20 20 20
27 27 27 29 31 30 30 29 28 23 21 22 23 23 25 25 25 25 24 24 24 23 23 22 22 21 21 20 20 20 20 20 20 20 20 20 20 20 20 19 19 19 19 19 19 20 19 20 20
27 27 27 29 31 30 31 30 27 23 21 21 21 22 24 26 26 25 25 25 24 23 23 22 22 22 21 21 20 20 20 19 20 20 20 20 20 20 20 20 19 19 19 19 19 19 19 20 20
26 26 27 28 30 31 30 30 24 26 24 23 23 24 24 26 26 25 25 25 24 24 23 23 22 22 21 21 20 20 19 20 19 20 20 20 20 20 20 20 19 19 19 19 20 19 19 20 20
25 28 28 29 28 27 31 28 27 26 25 23 23 23 26 27 26 25 25 25 24 24 23 23 22 22 21 21 20 20 20 19 20 20 20 20 20 20 20 20 19 19 19 19 19 20 19 20 20
27 28 28 29 27 26 28 27 29 28 25 23 22 24 23 24 26 26 25 25 25 24 23 23 22 22 21 21 20 20 20 20 20 20 20 20 20 20 20 20 19 19 19 20 19 19 19 19 19
29 28 27 27 27 25 27 26 26 29 29 27 27 25 23 27 27 26 25 25 25 24 23 23 22 22 21 21 21 20 20 20 20 20 20 20 20 20 20 20 19 19 20 20 20 19 20 19 19
27 25 23 23 24 24 25 25 26 29 31 31 29 26 25 29 27 26 25 25 25 24 23 23 23 22 21 21 21 20 20 20 20 20 21 21 21 20 20 20 19 20 20 20 20 19 20 20 20
27 26 21 21 23 25 26 26 28 29 31 34 32 28 26 28 28 27 26 25 25 25 24 23 23 22 22 22 22 21 20 20 20 20 21 21 21 21 21 21 20 20 20 20 20 20 20 20 20
26 25 26 24 26 23 25 27 28 30 31 31 32 33 28 27 28 27 26 26 25 25 25 23 23 23 22 22 22 22 21 20 21 21 21 21 21 21 21 21 21 21 21 20 21 21 20 20 20
27 27 25 25 23 23 25 26 27 28 30 30 29 32 32 29 29 28 27 26 26 26 25 24 23 23 23 23 22 22 23 22 22 22 21 21 21 21 21 21 22 21 21 21 20 20 21 20 20
27 26 27 25 23 21 23 26 30 29 29 29 30 33 34 32 30 28 27 26 27 26 25 25 24 23 23 23 23 23 23 23 21 22 22 21 21 21 21 22 21 22 22 21 21 21 20 20 20
28 27 27 25 23 24 24 26 28 29 31 31 31 34 34 33 30 28 28 27 26 26 25 26 25 24 24 24 23 22 23 23 22 22 23 22 22 21 22 22 22 21 21 21 21 22 21 20 20

GFSSGP_850_temp_036.txt.gz
Temp
19 18 17 17 18 18 20 22 20 22 22 23 23 23 22 19 21 18 17 18 18 17 17 18 18 18 19 19 19 19 19 19 18 19 18 18 18 18 18 18 18 18 18 18 18 18 18 18 18
19 18 17 17 19 19 20 20 20 23 23 23 23 22 21 17 16 15 16 17 18 17 18 18 18 18 19 19 19 19 18 18 18 18 18 18 18 18 18 18 18 18 18 18 18 18 18 18 17
18 18 18 18 19 19 20 20 21 25 23 24 22 21 20 16 15 16 17 18 18 18 18 18 18 18 19 19 19 19 19 18 18 18 18 18 19 18 18 18 18 18 18 18 18 17 18 18 18
18 18 18 19 21 22 23 22 23 24 23 23 21 19 18 16 16 17 18 18 18 18 18 18 18 19 19 19 19 19 18 18 18 18 18 18 19 19 18 18 18 18 18 18 18 18 18 17 17
18 19 19 20 21 22 22 24 23 23 22 22 21 19 17 17 17 18 18 18 19 18 18 18 18 19 19 19 19 19 18 18 18 18 18 19 19 19 19 19 18 18 18 18 18 18 18 17 17
19 19 19 19 20 22 22 23 20 22 21 20 20 19 16 18 19 18 18 18 19 18 18 18 18 18 19 19 19 19 18 18 18 18 18 19 19 19 19 18 18 18 19 18 18 18 18 18 17
19 18 18 19 20 21 22 23 22 22 22 21 21 18 15 16 19 18 17 18 18 18 18 18 19 18 19 19 19 19 19 19 19 19 19 19 19 18 19 18 18 19 19 18 18 18 18 18 17
20 17 19 20 20 19 21 20 23 23 22 21 21 18 15 17 19 18 17 18 18 18 18 19 19 19 19 19 19 19 19 19 19 19 19 19 19 18 19 18 19 19 19 19 18 18 18 18 18
20 18 18 19 20 18 18 22 23 22 21 22 21 20 19 18 19 17 17 17 17 18 19 19 19 19 20 20 20 19 19 19 19 19 19 19 19 19 18 18 19 19 19 19 18 19 18 18 18
21 17 19 21 23 22 18 21 20 22 22 21 19 19 19 19 18 18 17 17 18 18 19 19 19 20 20 20 20 20 20 19 19 19 19 19 19 19 19 18 18 19 19 19 19 18 18 18 18
21 19 22 23 23 25 24 23 23 21 20 20 18 17 18 18 18 18 18 18 18 19 19 19 20 20 20 20 20 20 20 19 20 19 19 19 19 19 19 19 18 19 18 19 19 19 19 19 19
21 23 23 24 26 26 26 24 23 24 22 20 21 19 18 18 18 18 18 18 18 19 20 20 20 20 20 20 20 20 20 20 20 19 19 19 19 19 19 19 19 19 18 18 19 19 19 19 19
23 24 25 25 26 26 27 25 25 24 22 20 19 18 18 18 19 19 19 18 19 19 20 20 20 21 21 21 20 20 20 20 19 19 19 19 19 19 19 19 19 19 19 18 18 19 19 19 19
25 24 26 27 26 26 26 25 25 21 20 19 19 19 19 19 19 19 19 19 19 19 20 21 20 21 21 21 20 20 20 20 19 19 20 20 19 19 19 19 19 19 19 19 18 19 19 19 19
25 24 26 26 27 26 26 26 24 21 20 20 19 19 19 19 19 20 19 19 19 20 20 21 20 21 20 20 20 20 20 20 20 19 20 20 20 19 19 19 19 19 19 19 18 19 19 19 20
24 24 24 27 28 27 27 25 24 21 21 20 20 20 19 19 20 20 20 20 20 20 20 20 20 21 21 20 20 20 19 20 20 20 20 20 20 20 19 19 19 19 19 19 18 19 19 19 19
22 22 23 26 27 28 27 26 24 22 21 20 20 20 20 20 20 20 21 21 20 20 20 20 20 20 20 20 20 20 20 20 20 20 20 20 20 20 20 19 19 19 19 19 19 19 19 19 19
21 22 23 25 27 27 27 26 23 22 22 21 20 20 20 20 20 21 21 21 21 21 20 20 20 20 20 20 20 20 20 20 20 21 20 20 20 20 20 19 19 19 19 19 19 19 19 20 19
23 23 24 26 28 28 28 26 23 23 23 22 20 21 21 21 21 22 21 21 21 21 21 21 20 20 20 20 20 21 20 20 20 20 20 20 20 20 20 20 19 19 19 19 19 19 19 20 19
23 23 24 26 27 26 26 26 25 24 23 23 22 22 21 21 21 22 22 22 22 21 21 21 21 21 21 21 20 20 21 21 20 20 19 20 20 20 20 20 19 19 19 19 19 19 19 19 19
23 22 24 24 26 27 28 25 26 25 24 23 23 23 23 23 23 22 22 22 22 22 22 22 22 22 21 21 21 21 20 20 20 20 20 20 20 20 20 20 19 19 19 19 19 19 19 19 19
22 25 25 25 25 23 27 24 22 23 23 23 23 22 24 24 24 23 22 22 22 23 22 22 22 22 21 21 21 21 20 20 20 20 20 20 20 20 20 20 20 19 19 19 19 19 19 20 19
24 25 25 25 24 24 25 24 21 23 22 21 22 22 23 24 24 24 23 23 23 23 23 23 23 22 22 22 21 21 20 21 20 20 20 20 20 19 20 19 20 19 19 19 19 19 19 19 19
26 25 24 24 22 21 24 24 23 22 23 23 24 23 24 23 24 25 25 24 24 24 24 23 23 23 22 22 22 21 21 20 20 20 19 20 20 20 20 19 20 19 19 19 19 19 19 19 19
24 21 21 21 21 22 25 22 25 25 26 25 24 24 24 24 25 25 24 24 24 24 24 23 23 23 22 22 22 21 21 21 20 20 19 20 20 20 20 20 20 20 19 19 19 19 19 19 19
23 23 20 19 19 22 22 21 24 26 28 28 25 26 24 24 24 25 24 25 24 24 24 24 23 23 23 22 22 21 21 21 20 20 20 20 20 20 20 20 20 20 20 19 20 19 19 20 19
22 23 21 19 20 20 23 24 26 26 26 27 26 25 25 25 24 25 25 24 24 24 25 24 24 23 23 23 22 21 21 21 21 21 20 20 20 20 20 20 20 20 20 20 20 20 19 19 19
25 23 22 18 20 20 21 22 26 26 26 24 26 26 25 24 25 25 25 24 24 25 25 25 24 24 23 23 22 22 21 21 21 21 21 21 21 20 20 21 20 20 20 20 20 20 20 19 20
23 24 23 22 18 20 20 24 25 25 24 27 26 28 26 25 26 25 25 25 25 24 24 25 24 24 23 23 23 23 22 21 21 21 22 21 21 21 20 20 21 21 21 21 20 20 20 20 20
26 23 23 23 20 18 19 25 27 28 27 27 27 27 26 26 26 25 26 25 24 24 24 24 25 24 24 24 24 23 23 22 21 21 22 22 22 21 20 20 21 21 21 21 21 21 21 20 20

GFSSGP_850_temp_039.txt.gz
Temp
17 18 17 16 18 17 19 21 21 20 20 22 23 23 21 17 20 17 16 17 17 17 17 18 18 19 19 19 19 18 18 19 18 18 18 18 18 18 19 19 19 19 18 18 18 18 18 17 17
18 17 17 17 19 19 20 20 21 22 21 22 22 21 19 17 16 15 16 17 18 18 18 18 18 19 19 19 19 19 18 18 18 18 18 17 17 18 18 18 18 18 18 17 17 17 18 17 17
18 17 17 18 18 19 20 20 21 22 22 23 21 20 18 16 15 15 17 17 18 18 18 18 18 19 19 19 19 18 18 18 18 18 17 17 18 18 18 18 18 18 18 18 17 17 17 17 17
17 17 17 19 20 21 22 22 21 22 21 22 20 18 16 16 16 17 17 17 18 18 18 18 19 18 19 19 19 18 18 18 18 17 18 17 17 18 18 18 18 18 18 17 17 18 17 17 16
17 18 19 20 20 22 22 21 21 20 20 21 20 17 15 15 16 17 17 18 18 18 18 18 18 19 19 19 19 18 18 18 17 18 18 18 18 18 18 18 18 18 18 18 18 18 17 17 17
17 18 19 19 19 21 22 20 21 23 20 19 18 17 15 16 17 17 17 18 18 18 18 18 18 19 19 19 19 18 18 18 18 17 18 18 18 19 18 18 18 18 18 18 18 18 17 17 17
18 17 18 19 20 21 21 20 21 20 19 20 19 16 15 15 17 17 17 18 18 18 18 18 18 19 19 19 19 18 18 18 18 18 18 18 19 18 18 18 18 18 18 18 18 17 17 17 17
19 17 19 20 19 20 21 19 20 21 21 20 21 15 15 15 17 17 17 18 18 18 18 18 19 19 19 19 19 19 18 19 19 19 19 18 18 18 18 18 18 18 18 18 18 18 17 17 17
19 17 18 20 20 20 20 20 21 21 20 21 20 19 18 17 17 17 17 17 17 18 18 19 19 19 19 19 19 19 19 19 19 19 19 19 19 19 18 18 18 18 18 18 18 18 17 17 17
19 16 20 22 20 21 20 19 22 20 22 19 19 20 18 17 17 17 17 17 17 18 18 19 19 20 20 19 19 19 19 19 19 18 19 19 18 18 18 18 18 18 18 18 18 18 18 18 18
20 18 22 22 23 22 20 20 20 21 20 19 17 18 18 17 17 17 17 18 18 18 18 19 19 20 20 20 19 19 19 19 19 19 19 19 19 19 18 18 19 18 18 18 18 18 18 19 19
19 21 22 23 23 22 21 22 22 21 22 22 21 19 18 17 17 17 17 18 18 18 19 19 20 20 20 20 20 20 19 19 19 19 19 19 19 19 19 18 18 19 19 19 19 18 18 19 19
20 21 22 22 23 24 25 23 23 21 21 21 18 17 17 17 17 17 18 18 18 19 19 19 20 20 20 20 20 20 20 19 19 19 19 19 19 19 19 19 18 18 18 18 18 18 18 19 19
22 22 22 23 25 25 25 23 24 22 20 18 18 17 17 17 17 17 18 18 18 19 20 20 20 20 20 20 20 20 20 19 19 19 19 19 19 19 19 19 18 18 18 18 19 18 18 19 19
22 21 23 24 24 25 26 24 23 20 19 18 18 18 18 17 18 18 18 19 19 20 20 20 21 21 21 20 20 20 19 19 19 19 20 19 19 19 19 19 19 18 18 19 19 19 18 18 18
22 21 20 24 25 26 26 23 21 19 19 18 18 18 18 18 18 19 18 19 19 20 20 20 21 21 21 20 20 19 19 19 20 19 19 19 19 19 19 19 19 19 18 18 19 19 19 19 18
20 19 21 23 25 26 26 24 20 19 19 19 19 19 18 18 18 19 19 19 19 20 20 20 21 21 21 21 20 20 19 19 20 20 19 19 19 19 19 19 19 18 18 18 18 19 19 19 19
19 20 22 22 25 26 24 24 20 20 20 19 19 19 19 19 19 20 20 20 20 20 20 20 20 20 21 20 20 20 19 19 20 20 20 19 19 19 19 19 19 19 18 18 18 19 19 19 19
21 22 22 24 25 25 24 25 21 20 20 19 19 19 19 19 19 20 20 20 20 20 20 20 20 20 20 20 20 20 20 19 20 20 20 19 19 19 20 19 19 19 19 19 18 18 19 19 19
20 20 21 23 25 25 24 25 22 21 20 20 19 19 19 19 19 19 20 20 20 20 20 20 20 20 20 20 20 20 20 20 20 20 20 20 19 19 20 20 19 19 19 18 18 18 19 19 19
20 20 21 22 24 25 24 24 24 21 21 20 20 20 20 20 19 20 20 20 20 20 20 21 21 20 20 20 20 20 20 20 20 20 20 19 19 19 19 20 19 19 19 19 18 19 19 19 19
19 22 23 23 23 21 24 21 21 21 21 21 20 20 20 20 20 20 20 21 21 21 21 21 21 21 21 20 20 20 20 20 20 20 20 19 19 19 19 19 19 19 19 19 19 19 19 19 19
21 22 22 23 21 22 23 22 21 22 20 21 22 21 21 20 21 21 20 22 22 21 21 21 21 21 21 21 21 20 20 21 21 20 20 20 19 19 19 19 19 19 19 19 19 19 19 19 19
23 22 22 22 19 20 22 21 20 22 22 22 23 22 22 22 21 21 22 23 23 22 22 22 21 22 21 21 21 21 21 21 21 21 20 20 20 19 19 19 19 19 19 19 19 19 19 19 19
22 19 17 18 17 21 22 20 23 23 24 24 23 23 23 22 22 23 22 22 22 22 23 22 22 22 22 22 21 21 21 21 21 21 21 20 20 19 19 20 19 19 19 19 19 18 19 19 19
21 20 16 16 18 21 20 19 21 24 25 25 24 24 24 22 22 23 23 23 23 23 23 23 23 22 22 22 22 22 21 21 21 21 21 20 20 19 20 20 19 19 19 19 19 19 18 19 19
20 20 20 18 18 19 22 21 23 23 25 24 25 25 25 24 23 23 24 23 23 23 23 24 23 23 23 23 22 22 22 21 21 21 21 21 20 20 20 20 20 20 19 19 19 19 19 19 19
22 21 20 16 18 19 19 21 22 22 23 23 24 24 25 25 24 24 24 23 23 23 24 23 24 24 24 23 23 22 22 22 21 21 21 21 20 20 20 20 20 20 20 19 19 19 19 19 19
21 21 21 20 17 20 18 23 21 23 23 24 24 26 25 25 25 25 24 24 24 23 22 22 23 23 23 23 23 23 23 22 22 21 21 20 20 20 20 20 20 20 20 20 20 20 19 19 20
23 20 18 22 19 16 17 22 25 23 22 25 27 26 26 25 25 25 26 24 24 23 23 22 23 22 23 24 24 23 23 23 22 22 21 21 20 20 20 20 20 20 20 20 20 20 20 20 20

GFSSGP_850_temp_042.txt.gz
Temp
17 17 17 16 17 17 18 20 21 20 18 20 21 21 20 18 19 17 16 18 17 17 17 17 18 18 18 18 17 18 18 17 17 17 18 18 18 17 17 18 18 18 18 17 17 17 17 17 17
18 17 16 17 18 18 19 20 21 21 21 20 21 20 19 17 16 15 16 17 18 18 17 18 18 17 18 18 18 18 18 17 17 18 18 18 17 17 18 18 18 17 17 17 17 17 17 17 17
18 17 17 18 18 20 19 19 19 21 21 21 20 19 17 16 15 16 17 17 18 18 18 18 18 17 17 18 18 18 18 18 18 18 18 18 17 17 18 18 18 18 17 17 17 17 17 17 17
17 17 17 19 20 21 21 20 20 19 19 20 18 16 16 16 15 16 17 17 18 18 18 18 18 18 18 18 18 18 18 18 17 17 17 17 17 18 18 18 18 18 17 17 17 17 17 17 17
17 17 18 19 20 22 21 19 19 21 19 19 19 16 15 15 15 16 17 17 18 18 18 18 17 18 18 18 18 18 18 17 18 18 17 18 18 18 18 18 18 18 18 18 18 17 17 17 17
17 17 18 20 19 21 21 20 19 21 19 18 17 16 15 15 16 17 17 17 18 18 18 17 17 18 18 18 18 18 18 17 18 18 18 18 18 18 18 18 18 17 17 18 18 17 17 17 17
18 18 19 18 19 21 21 20 20 19 19 19 17 16 15 15 16 17 17 17 18 18 17 17 18 18 18 17 18 18 18 18 18 18 18 18 18 18 18 18 18 17 17 17 17 17 17 17 17
18 16 19 19 19 20 20 19 19 20 20 19 19 15 15 15 16 17 17 17 18 18 16 18 18 18 19 18 18 18 18 18 18 18 18 18 18 17 18 18 17 18 18 17 17 17 17 17 17
19 17 17 20 20 21 19 21 20 20 20 20 19 18 16 16 17 16 16 17 17 17 17 18 19 19 19 18 18 18 18 18 18 18 19 19 18 18 18 18 18 18 18 18 17 18 18 18 17
18 16 19 21 21 21 21 21 21 21 21 18 17 18 17 16 17 16 16 16 16 17 18 18 19 19 19 19 19 18 19 19 19 19 19 18 18 18 18 18 18 18 18 18 18 17 18 17 18
19 17 20 23 21 22 21 21 21 21 20 19 16 16 17 16 16 17 17 17 18 18 18 18 19 19 19 19 19 19 19 18 18 18 19 19 18 18 18 18 18 17 17 18 18 18 18 18 18
19 20 21 23 23 22 21 21 21 21 22 22 20 20 17 16 16 17 17 18 18 18 19 19 19 19 19 19 19 19 19 19 19 18 19 19 19 18 18 18 18 18 18 18 18 18 19 19 19
19 20 21 22 23 23 23 22 22 21 21 21 20 17 16 17 16 17 18 18 18 19 19 19 19 19 20 19 19 19 19 19 19 19 19 19 19 19 18 18 18 18 18 18 18 18 19 19 19
21 21 21 22 22 23 23 23 23 22 20 19 18 16 16 17 17 17 18 18 18 19 19 19 20 20 20 20 20 19 19 19 19 19 19 19 19 19 18 18 18 18 18 18 18 18 19 19 19
21 21 22 22 23 22 24 22 21 21 19 17 16 16 16 16 16 18 19 19 19 19 19 20 20 20 20 20 20 19 19 19 19 19 19 19 19 18 18 18 18 18 18 18 18 18 18 19 18
20 21 19 22 23 24 24 21 21 19 19 17 16 16 16 16 16 17 18 19 19 20 19 20 20 20 20 20 20 19 19 19 19 19 19 19 19 18 18 18 18 18 19 19 19 18 18 18 18
17 18 19 22 23 25 24 22 20 18 18 17 17 17 17 16 16 17 18 18 19 20 20 20 20 20 20 20 20 19 19 19 19 19 19 19 19 19 19 18 18 18 19 19 18 18 18 19 19
17 19 20 22 24 23 23 22 19 18 18 18 18 17 17 17 17 17 18 19 19 19 20 20 20 21 20 20 20 19 19 19 19 20 20 19 19 19 18 18 18 18 18 18 18 19 19 19 19
19 20 21 22 24 23 22 23 19 19 18 18 18 18 18 18 17 17 17 19 19 19 20 20 20 21 20 20 20 19 19 19 19 20 20 19 19 19 19 19 19 19 18 18 18 19 19 19 19
18 19 20 22 24 23 22 23 20 19 19 19 18 18 18 18 18 18 18 18 19 19 20 20 20 21 21 20 20 20 20 19 19 19 20 20 19 19 19 19 19 19 19 18 18 18 19 19 19
17 17 19 21 23 24 22 22 20 20 20 19 19 18 18 18 18 18 18 18 18 19 20 20 20 21 20 20 20 20 19 19 19 19 20 20 19 19 19 19 19 19 18 18 18 18 19 19 19
15 19 20 21 21 20 23 20 20 19 19 19 19 19 19 19 19 19 19 18 19 19 20 20 20 20 20 20 20 20 20 20 19 19 19 19 19 19 19 19 19 19 19 18 18 18 19 18 19
18 19 19 20 20 21 22 21 20 19 18 19 19 19 19 19 19 19 19 20 20 19 20 20 20 20 21 20 20 20 20 20 20 20 19 19 19 19 19 19 19 19 19 18 18 18 19 19 19
20 20 18 19 17 18 20 22 19 18 20 20 21 20 20 20 20 20 21 20 19 20 20 20 20 21 21 21 20 20 20 20 20 20 20 20 20 19 19 19 19 19 18 18 18 18 19 19 19
19 19 15 15 16 19 20 21 21 21 22 22 21 21 21 20 20 20 21 20 20 20 20 21 21 21 21 21 21 21 20 20 20 20 21 20 20 20 20 19 19 19 19 19 18 19 19 19 19
19 18 14 15 15 19 18 18 20 24 24 23 23 23 22 21 20 21 21 21 21 21 21 22 22 22 22 21 21 21 21 21 21 20 21 21 21 21 20 19 19 19 19 19 18 19 19 19 19
18 18 18 16 15 16 21 19 22 22 24 23 24 23 23 22 22 21 21 21 21 21 22 22 23 23 23 22 22 22 22 21 21 21 20 21 21 21 20 20 19 19 19 19 19 19 19 19 19
19 19 18 15 17 16 18 18 22 21 21 22 22 23 23 23 22 22 22 22 22 22 22 22 23 23 23 23 22 22 22 22 22 21 21 20 20 20 20 20 20 19 19 19 19 19 19 19 19
18 19 19 19 15 18 16 18 20 21 23 21 23 23 24 24 23 23 23 22 23 22 22 23 22 23 23 23 23 23 22 22 22 22 21 21 20 20 21 20 20 20 19 19 19 19 19 19 20
11 17 17 20 17 14 16 21 23 22 21 23 24 25 26 25 25 24 24 23 23 23 23 23 23 23 23 24 24 23 23 23 22 22 22 21 21 21 21 20 20 20 20 20 20 19 19 20 20

GFSSGP_850_temp_045.txt.gz
Temp
17 17 17 16 18 18 21 22 22 21 21 20 22 22 22 20 21 21 16 17 17 17 17 17 18 18 18 18 18 18 17 18 18 18 17 18 18 17 17 17 16 17 17 17 17 16 17 17 17
17 17 17 17 18 20 22 22 22 22 22 21 22 20 20 19 16 16 15 17 18 18 17 16 17 18 18 18 17 18 17 17 17 18 18 18 18 17 17 17 17 17 17 17 17 17 17 17 17
17 17 17 18 19 20 22 21 20 21 21 22 21 19 18 17 16 16 17 17 18 18 17 16 17 18 17 18 17 18 18 17 17 18 18 18 17 17 17 17 17 17 17 17 17 17 17 17 16
17 16 17 19 21 21 21 20 19 21 19 19 19 20 16 16 15 16 17 17 18 18 16 17 18 18 18 17 18 18 18 18 18 18 17 17 17 17 17 18 18 17 17 18 18 17 17 17 17
17 17 18 21 22 22 22 21 20 21 20 18 19 17 15 15 16 16 16 17 17 16 16 17 18 18 18 18 18 18 18 17 17 17 18 18 18 18 18 18 17 17 18 18 17 17 17 17 17
17 17 19 21 22 22 22 21 21 21 19 18 18 17 15 15 16 15 16 16 17 16 16 17 18 18 18 18 18 18 17 18 18 18 17 17 18 18 18 18 18 18 18 17 17 17 17 17 17
19 19 21 22 21 22 23 21 22 21 20 20 18 18 15 15 16 15 15 16 16 16 16 17 18 17 17 17 18 18 18 18 18 18 18 18 18 18 18 18 18 18 17 17 17 17 17 17 17
18 20 21 22 22 22 22 21 19 20 21 18 18 18 16 16 15 15 15 15 16 16 16 17 17 17 17 18 18 18 18 18 18 18 18 18 18 18 18 18 18 17 17 17 17 17 17 17 18
18 20 21 22 23 23 21 22 19 20 19 20 18 18 16 15 15 15 15 15 15 15 16 17 17 18 18 17 18 18 18 18 18 18 18 18 18 18 18 17 18 17 17 17 17 17 17 17 18
20 20 22 24 25 24 21 23 21 21 21 18 17 17 15 15 15 15 15 15 16 16 16 16 18 18 18 17 17 17 18 17 18 18 18 18 18 18 18 18 18 17 17 17 18 18 18 18 17
21 21 22 24 24 23 22 22 22 22 22 20 18 16 15 15 15 15 15 16 16 16 16 17 18 18 18 18 18 18 18 18 19 19 18 18 18 18 18 18 17 17 17 17 18 18 18 18 18
21 21 22 23 23 23 23 22 23 22 23 21 19 17 15 16 16 16 16 16 16 16 17 18 19 19 19 19 19 19 19 18 18 19 18 19 18 18 18 18 18 18 18 18 18 18 19 19 19
21 22 22 22 23 23 24 24 24 23 21 20 18 16 16 16 16 16 16 16 16 17 19 18 19 19 19 19 19 19 18 18 18 19 19 19 19 18 18 18 18 18 17 18 18 18 19 19 19
23 21 22 23 24 24 24 25 24 22 20 18 17 17 17 16 16 16 16 16 18 19 19 19 19 19 19 19 19 19 19 18 19 18 18 18 18 18 18 17 18 18 18 18 18 18 19 19 19
22 22 23 23 24 24 24 25 24 21 19 18 17 17 17 17 17 16 16 17 19 20 19 20 20 19 19 19 19 19 19 19 19 18 18 18 18 18 18 18 18 18 18 18 18 18 19 19 18
22 23 21 25 24 25 25 26 25 20 20 19 18 17 17 17 17 17 17 17 19 19 19 20 20 20 20 20 19 19 19 19 19 19 18 18 18 18 18 18 18 18 18 18 18 19 19 18 18
22 24 23 25 25 27 26 26 24 20 21 19 18 18 17 17 17 17 17 17 18 20 20 20 20 20 20 20 20 19 19 19 19 19 19 18 18 18 18 18 18 18 18 18 18 19 19 18 18
23 23 23 25 27 26 26 27 23 21 21 20 19 18 18 18 17 17 17 17 18 20 19 20 20 20 20 20 19 19 19 19 19 19 19 19 19 18 18 18 18 18 18 18 18 19 19 19 19
22 22 24 24 26 26 27 27 24 21 20 20 19 19 18 18 18 17 17 17 17 19 19 19 20 20 20 20 20 19 19 19 19 19 19 19 19 19 18 18 18 18 18 19 18 19 19 19 19
21 21 23 24 24 26 27 27 27 23 22 21 20 19 19 19 19 18 17 17 17 18 19 19 20 20 20 20 20 20 20 20 19 20 20 20 19 19 19 19 18 18 18 18 18 19 19 19 19
20 21 22 23 24 26 26 26 26 24 22 21 21 20 20 20 19 18 18 18 17 17 19 19 20 20 21 20 20 20 20 19 19 19 19 20 20 19 19 19 18 18 18 18 18 19 19 19 19
21 22 21 22 22 25 26 25 27 26 23 22 21 20 20 20 20 19 18 18 18 17 19 20 20 20 20 21 20 20 20 20 20 20 20 20 20 19 19 19 19 18 18 18 18 19 19 19 19
21 22 21 22 22 22 24 24 27 26 25 24 23 22 21 20 20 20 19 19 18 18 19 19 19 20 20 20 20 20 20 20 20 20 19 19 19 19 19 19 19 18 18 18 18 18 19 19 19
22 21 22 22 22 21 23 24 26 27 26 26 24 22 22 21 20 20 19 19 18 18 18 20 20 20 20 20 20 20 20 20 20 20 19 19 19 19 19 19 19 19 19 19 18 18 18 19 19
21 21 20 20 20 21 25 23 24 28 27 27 26 23 22 21 21 20 20 19 19 18 18 19 20 20 20 20 20 20 20 20 20 20 20 20 19 20 20 19 19 19 19 19 19 18 18 18 19
21 21 21 20 21 23 24 23 25 27 27 27 27 25 23 22 21 21 20 20 19 20 20 20 20 20 20 20 21 21 21 20 20 20 20 20 20 20 20 20 20 20 19 19 19 19 18 19 19
21 20 23 22 21 22 25 25 26 26 27 28 27 26 24 23 22 22 21 20 20 21 22 21 21 21 21 21 21 21 21 21 21 21 21 20 20 20 20 20 20 20 19 19 19 19 19 19 19
18 23 20 21 20 20 23 24 25 26 27 28 28 27 25 24 23 22 22 21 21 23 23 23 22 23 22 22 22 22 22 22 21 21 21 21 20 20 21 20 20 20 19 19 19 19 19 19 19
20 19 21 22 22 22 22 24 27 27 27 27 27 28 27 25 24 23 22 22 23 22 22 24 23 23 23 23 22 22 22 22 22 22 22 21 21 20 21 20 20 20 20 20 19 19 19 19 19
14 13 20 22 20 22 23 24 26 28 28 29 29 28 27 26 25 24 23 22 22 21 22 23 24 23 24 23 23 23 23 23 22 22 22 22 21 21 21 20 21 20 20 20 20 19 19 19 19

GFSSGP_850_temp_048.txt.gz
Temp
17 16 17 18 20 23 25 26 26 25 25 24 25 25 26 25 25 22 18 18 18 17 17 17 18 18 18 18 18 18 19 19 19 18 18 18 17 18 18 18 17 17 17 18 18 18 17 17 18
16 16 16 19 19 22 26 26 25 26 25 24 24 23 25 23 20 18 18 17 17 18 18 17 18 18 18 18 18 18 18 18 18 18 18 17 17 18 17 17 17 17 17 18 17 17 17 17 17
16 17 17 18 20 22 24 25 25 25 24 25 23 23 23 20 18 19 19 18 18 18 19 18 18 18 18 18 18 18 18 18 18 17 18 18 18 18 17 17 17 17 17 17 17 17 17 17 17
17 17 17 19 23 24 24 24 21 24 22 22 24 23 19 18 19 20 18 18 19 18 19 18 18 18 18 18 18 18 18 18 18 18 18 18 17 18 17 18 18 17 18 18 17 17 17 17 17
18 18 19 22 24 25 24 22 23 23 22 21 21 21 16 17 18 19 18 19 19 19 18 17 18 18 18 18 18 18 18 18 18 18 18 18 17 17 17 18 18 18 18 17 17 17 17 17 17
18 18 23 24 23 26 27 24 22 23 19 20 22 19 16 16 17 18 19 19 19 20 18 17 18 18 18 18 18 18 18 18 18 18 17 17 17 17 18 18 18 18 18 17 17 17 17 17 17
21 24 26 27 24 23 25 24 24 22 22 22 21 22 17 17 18 19 19 19 20 20 19 17 17 17 17 18 18 18 18 18 17 18 17 17 17 18 18 17 18 18 17 17 17 17 17 17 17
22 26 25 27 25 25 25 23 19 21 23 20 21 23 18 17 17 18 19 19 19 20 19 18 18 17 17 16 18 18 18 18 17 18 17 18 18 18 18 18 17 17 17 17 17 17 17 17 17
21 24 25 27 27 26 24 23 21 20 21 22 22 22 20 17 17 18 19 19 19 19 19 19 18 18 17 16 17 18 18 18 18 18 18 17 18 17 17 17 18 18 18 17 17 17 18 18 18
23 26 27 28 29 28 25 23 24 24 24 22 21 20 18 17 17 18 19 20 19 19 19 19 18 18 17 18 16 16 17 18 18 18 17 18 17 17 17 17 18 18 18 18 18 18 18 17 18
25 26 27 28 27 27 26 25 25 26 26 24 22 18 17 17 18 19 20 20 20 19 20 19 18 17 17 18 17 18 18 18 17 16 17 17 17 17 18 17 17 17 17 19 18 18 19 18 19
25 26 26 27 26 26 27 26 26 25 26 25 22 19 18 18 19 20 20 20 20 19 19 18 18 17 18 18 18 18 18 18 18 17 18 17 18 17 18 18 18 18 18 18 18 19 18 18 18
26 27 25 24 25 26 25 26 25 26 25 24 22 19 19 19 20 20 20 20 20 19 19 18 17 17 17 17 18 18 18 18 18 17 18 17 18 18 18 17 18 18 18 18 18 18 18 18 18
27 26 25 25 27 27 26 28 26 27 24 23 21 20 20 20 20 20 20 20 19 19 19 18 17 16 16 17 17 17 18 18 18 18 18 19 18 18 18 17 18 18 18 18 18 18 19 19 19
26 26 27 26 25 28 27 28 28 25 24 23 22 21 21 20 20 20 20 20 19 19 18 18 17 17 16 17 17 17 18 18 18 18 18 18 18 18 18 17 17 18 18 18 18 18 18 19 19
26 27 27 29 28 28 28 28 29 25 24 23 22 21 21 20 21 20 20 20 19 19 18 18 18 17 17 17 17 17 18 18 18 18 18 18 18 18 18 18 17 17 18 18 19 19 18 19 19
27 28 28 29 29 30 29 30 28 25 25 24 23 22 21 21 20 20 20 20 19 19 18 18 18 18 17 17 17 17 17 18 18 18 18 19 18 19 18 18 18 18 18 18 19 19 19 19 20
28 27 30 29 29 30 30 30 28 26 26 25 23 22 21 21 21 20 20 20 20 19 18 18 18 18 17 17 18 17 18 18 18 18 18 19 18 19 18 18 18 17 17 18 19 18 19 20 20
27 28 29 29 31 29 29 30 30 27 26 25 24 23 22 22 21 21 20 20 20 19 18 18 17 17 17 18 18 18 19 18 18 18 19 19 19 19 19 18 18 18 18 18 18 19 19 19 19
26 26 27 29 29 29 30 30 31 29 27 26 25 24 23 22 22 21 20 20 20 19 18 18 17 17 18 18 18 19 19 19 19 19 20 20 19 19 18 18 18 18 18 17 18 18 19 19 19
24 25 26 27 27 28 29 30 31 31 28 27 25 24 24 23 22 21 21 20 20 20 18 18 18 19 20 18 18 18 18 18 18 19 19 19 20 20 19 19 18 19 18 18 17 18 19 20 19
25 26 26 26 26 27 29 29 30 31 29 28 26 25 24 24 23 22 21 21 21 20 19 18 18 19 20 20 18 18 19 20 20 20 20 19 20 20 20 18 19 19 18 18 18 18 18 19 20
24 26 26 25 26 26 27 27 30 32 30 29 28 27 26 24 23 23 22 21 21 20 19 18 17 19 19 20 19 18 20 20 20 20 19 19 20 20 19 19 19 19 18 18 18 18 19 19 20
24 24 25 25 26 25 27 28 30 31 31 31 30 28 27 25 24 23 23 22 21 21 20 19 18 19 20 20 21 19 19 20 20 19 20 20 20 19 19 20 19 19 19 18 18 19 19 18 19
24 24 24 24 25 25 28 27 28 31 33 32 32 30 28 26 25 24 23 22 21 21 20 20 18 20 20 20 21 20 20 19 19 19 19 20 20 20 19 19 20 19 19 18 18 19 18 19 18
23 25 25 24 26 27 28 27 29 30 31 31 31 31 29 27 26 25 24 23 22 21 20 20 19 18 20 20 21 21 21 19 19 19 20 20 20 20 20 18 18 20 19 19 18 18 18 18 18
23 24 26 26 28 28 30 29 30 31 31 30 30 30 30 28 27 25 24 23 22 22 21 20 19 20 19 19 21 21 21 20 19 19 19 19 19 20 19 19 18 18 19 19 18 18 18 18 18
21 26 24 25 23 24 27 28 29 29 29 30 31 30 30 29 27 26 25 24 23 22 21 20 19 19 21 19 19 20 21 21 20 19 20 19 19 20 20 19 18 18 18 20 19 19 18 18 18
22 21 23 25 25 25 25 28 30 30 30 30 31 31 31 29 28 27 26 25 24 23 22 21 20 19 19 20 19 20 20 20 21 20 21 21 21 21 21 20 20 18 18 19 20 19 19 18 18
19 20 23 23 23 25 26 28 32 30 31 31 30 31 31 30 29 28 27 26 25 24 23 22 21 21 20 21 21 21 21 21 19 21 21 21 21 21 21 21 21 19 19 18 18 19 19 18 18

GFSSGP_850_temp_051.txt.gz
Temp
18 18 19 21 20 24 27 26 28 28 28 28 28 28 26 24 24 22 19 18 18 17 16 17 18 18 18 18 19 19 18 18 18 18 18 18 18 18 18 17 18 17 18 18 18 17 17 17 17
19 20 20 19 21 23 26 27 27 27 27 27 26 27 26 25 23 22 20 19 19 19 18 17 18 18 19 19 19 18 19 18 18 18 18 18 18 17 18 17 18 17 18 18 17 17 17 17 18
19 18 17 19 23 25 25 25 27 28 27 26 26 27 25 23 23 22 20 20 20 20 20 18 19 18 18 18 18 18 18 18 18 18 18 18 18 18 18 17 17 17 18 17 17 17 17 17 17
18 18 18 20 24 26 27 26 27 27 26 27 26 23 21 22 22 21 20 21 22 21 20 19 18 18 18 18 18 18 18 18 18 18 18 18 18 17 18 17 17 17 17 17 17 17 17 17 17
20 20 22 22 24 26 27 26 26 24 26 26 26 23 21 21 21 21 21 22 22 22 18 18 18 18 18 18 18 18 18 18 18 18 18 18 18 17 17 17 17 18 17 17 17 17 17 18 17
20 22 23 26 25 26 25 25 24 19 19 24 25 20 18 20 21 21 22 22 22 22 19 18 18 18 18 18 18 18 18 18 18 18 17 17 17 18 18 17 18 18 17 17 17 17 17 17 18
21 23 25 26 26 27 25 25 23 19 20 24 21 22 19 19 20 21 22 22 22 22 20 18 17 18 18 18 18 18 18 18 17 18 18 18 18 18 18 18 18 17 17 17 17 17 17 18 18
23 27 26 29 26 24 27 25 22 21 22 22 22 23 20 19 20 21 22 22 23 22 20 19 18 17 17 17 18 18 18 18 18 18 18 18 18 18 18 18 18 17 18 18 18 18 18 18 18
24 25 26 28 27 28 27 25 23 21 22 23 23 25 21 20 20 21 22 23 22 21 21 21 20 19 18 17 17 18 18 18 18 18 19 18 18 18 17 18 18 18 18 18 18 18 18 18 19
25 28 27 28 31 26 28 27 25 23 25 26 25 24 20 20 20 21 22 23 23 22 22 22 21 19 18 19 18 17 17 17 18 18 19 18 18 18 18 18 19 19 19 19 19 18 17 17 18
28 28 30 30 30 30 29 26 26 26 27 26 25 22 20 19 20 21 23 23 23 22 22 22 20 19 19 19 18 19 19 19 18 18 18 19 18 18 18 19 18 19 18 18 19 18 18 16 19
29 30 29 27 29 28 25 25 28 28 22 27 23 21 19 20 21 22 23 23 23 23 22 22 20 19 18 19 19 20 19 21 20 19 18 18 18 19 19 19 19 18 19 20 19 19 19 19 19
29 30 29 28 28 28 27 25 27 26 28 26 22 20 21 22 22 23 23 23 23 22 22 21 20 18 19 19 20 21 21 21 20 18 18 18 19 18 18 19 18 18 19 19 19 20 19 19 20
30 29 29 28 27 27 28 27 27 26 28 25 23 22 22 22 23 23 23 23 23 22 22 21 20 19 19 19 20 20 20 20 20 20 18 18 18 18 19 19 18 19 18 19 19 19 20 20 20
29 29 30 28 29 25 27 26 27 28 28 26 24 23 23 23 23 23 23 23 23 22 21 20 19 19 18 18 19 19 19 21 20 20 19 18 18 19 18 18 19 18 19 19 20 19 19 20 20
29 30 29 31 30 29 30 28 31 29 28 27 25 24 24 23 23 23 23 23 22 22 21 20 20 19 18 18 18 19 20 20 19 19 18 18 18 19 18 19 19 19 19 18 20 19 20 20 20
29 29 29 31 31 30 31 26 19 29 28 27 26 25 24 24 24 23 23 23 22 21 20 20 20 19 18 18 18 19 20 20 20 19 19 18 18 18 18 18 19 19 19 19 20 20 20 20 21
30 30 32 31 32 32 31 27 23 30 29 28 26 25 25 24 24 23 23 23 22 21 20 20 20 19 18 18 18 19 19 20 19 20 19 20 19 18 18 18 19 19 19 19 19 20 19 20 20
31 32 31 33 33 31 30 28 20 31 30 28 27 26 25 25 24 23 23 23 22 21 20 19 19 19 18 18 19 20 20 20 20 20 19 19 19 18 19 18 19 18 19 19 19 20 20 21 20
29 30 31 33 33 31 30 29 30 32 31 29 28 27 26 25 24 24 23 23 22 21 20 19 19 19 18 18 19 20 21 21 21 21 19 19 19 18 19 19 19 18 19 18 18 19 20 21 20
28 29 30 31 32 31 30 29 31 30 31 30 29 28 26 26 25 24 23 23 22 22 20 19 18 18 18 19 19 19 20 21 20 21 20 19 19 19 19 20 19 19 19 19 18 19 20 20 20
27 29 29 30 30 29 31 28 29 30 31 31 29 29 27 26 25 24 23 23 23 22 21 20 18 18 18 19 19 19 20 21 21 21 21 20 19 19 19 18 19 19 19 18 19 19 20 20 21
27 30 29 29 29 29 30 29 30 32 26 32 31 29 28 27 26 25 24 23 23 23 21 20 19 18 18 19 20 19 20 21 21 22 21 21 19 19 19 19 18 18 19 19 18 18 19 20 20
28 28 28 29 29 27 29 30 32 31 31 31 32 31 29 28 27 26 25 24 23 23 22 21 19 18 19 20 20 19 19 21 22 21 21 21 20 19 19 19 18 18 19 19 18 18 18 20 20
27 27 25 26 26 27 30 30 31 34 32 33 34 32 30 29 28 26 25 24 23 23 22 21 20 18 19 20 21 19 19 20 21 21 21 21 22 22 21 19 19 19 19 19 18 19 18 19 19
27 27 27 25 27 29 30 30 31 33 34 27 25 32 31 30 28 27 26 25 24 23 22 21 20 19 18 20 21 21 20 20 20 20 21 21 22 22 21 21 19 19 18 18 19 18 18 19 18
26 26 28 28 30 30 32 32 33 34 33 34 32 32 30 31 30 28 27 26 24 23 23 22 21 19 19 18 20 21 21 21 20 21 21 21 21 22 21 20 19 19 19 19 19 19 20 19 19
24 27 26 27 25 26 30 31 32 32 32 33 33 33 32 31 30 30 28 26 25 24 23 22 21 20 20 19 19 20 21 21 21 20 20 20 21 21 21 20 20 19 19 19 19 20 19 19 19
24 24 25 26 28 26 27 31 34 33 32 33 33 32 32 32 31 30 29 27 26 25 24 23 22 21 19 19 19 20 20 20 21 20 20 20 20 20 20 20 19 19 19 19 19 19 20 19 19
25 25 26 25 24 27 28 30 34 34 34 33 32 32 32 32 32 31 30 28 27 26 25 24 23 22 20 20 19 19 20 20 19 20 20 20 20 20 19 19 19 19 19 19 19 19 20 19 19

GFSSGP_850_temp_054.txt.gz
Temp
20 20 19 19 19 22 24 24 24 28 28 26 28 26 25 25 25 21 18 18 19 17 18 18 18 18 18 18 18 19 19 18 18 19 18 18 18 18 18 18 17 18 18 17 17 18 18 17 18
19 20 19 20 20 23 25 27 27 27 28 28 27 27 26 25 22 19 18 19 18 18 17 18 18 18 18 19 19 19 19 19 19 18 18 18 18 18 18 18 17 18 17 17 17 17 18 18 18
20 20 19 19 23 24 24 23 27 24 27 27 25 22 24 23 20 20 19 19 19 19 18 18 18 18 19 19 19 18 18 18 18 18 18 18 18 18 18 17 17 17 17 17 17 17 17 18 18
20 20 19 20 24 25 25 22 21 27 27 27 25 24 23 22 22 20 21 20 20 19 19 19 19 19 18 18 18 18 18 18 18 17 17 18 18 18 18 17 18 17 17 17 17 17 17 18 18
21 20 21 22 23 20 26 21 25 26 25 25 25 23 22 22 21 20 21 21 22 19 20 19 19 19 18 18 18 18 18 18 18 18 18 18 18 17 18 18 18 17 17 17 17 17 18 18 18
20 21 22 22 23 24 25 26 25 21 20 22 24 22 20 21 21 21 22 22 21 19 18 19 19 18 18 18 18 18 18 18 18 18 18 18 18 18 18 18 18 18 17 17 18 18 18 18 18
22 21 24 21 23 24 23 23 24 20 19 21 21 22 21 21 21 22 23 22 21 20 17 19 19 18 18 18 18 18 18 18 18 18 18 18 18 18 18 18 18 18 18 18 18 18 18 18 18
23 23 24 22 24 25 24 23 21 20 20 20 21 21 21 21 22 22 23 22 21 20 18 17 17 17 17 18 18 18 18 18 19 19 19 19 18 18 18 18 18 18 18 18 18 18 19 19 19
25 23 24 23 26 21 23 24 22 23 21 22 22 23 22 21 22 22 23 22 21 20 20 19 18 17 17 18 18 18 18 19 19 18 19 17 18 18 18 18 19 18 18 18 18 18 18 18 19
25 25 27 25 26 26 23 26 25 24 24 24 24 23 22 21 22 22 23 22 22 22 21 21 19 19 18 18 18 19 19 19 18 18 19 18 18 18 19 19 19 19 18 18 19 19 18 19 19
27 27 29 26 27 25 26 28 26 25 26 27 24 22 21 21 22 22 23 22 22 23 23 21 20 20 19 19 19 19 19 19 18 18 18 18 18 19 18 18 17 18 19 17 17 18 19 17 18
29 30 30 30 27 29 23 21 25 20 19 22 24 22 21 21 22 23 24 23 23 23 23 21 20 20 18 20 19 18 19 19 19 19 18 19 18 19 19 18 17 19 19 19 18 19 19 18 19
30 31 30 30 27 28 25 22 21 21 23 24 23 22 21 22 22 23 24 24 24 23 22 21 20 20 20 19 19 20 20 20 20 19 19 19 18 18 19 19 19 18 18 19 20 19 20 19 19
31 31 31 30 30 29 28 22 21 22 24 25 23 21 21 22 22 23 24 24 24 23 22 21 20 19 18 20 19 20 21 20 20 20 18 18 18 19 19 19 18 19 19 19 20 19 20 19 20
30 30 31 31 30 30 29 28 28 25 23 24 23 22 22 23 23 24 24 24 24 23 22 21 20 20 19 19 20 21 21 21 20 20 20 19 19 19 19 19 19 19 19 19 19 20 20 20 20
29 30 29 32 30 29 29 27 28 25 19 25 24 24 23 23 24 25 25 24 23 23 22 21 21 19 19 20 20 20 20 19 21 20 20 20 19 19 19 19 19 19 19 19 19 20 20 20 20
29 28 29 31 32 31 30 28 24 20 18 26 25 25 24 23 25 25 25 24 23 23 22 21 21 20 19 19 19 19 20 19 20 20 19 19 19 19 19 19 19 20 19 18 19 20 20 20 20
28 29 30 31 33 33 30 27 23 21 18 27 26 26 25 24 24 25 25 24 23 22 21 20 20 19 19 18 19 20 20 20 19 20 19 19 19 18 18 19 19 19 19 20 19 20 20 20 20
30 31 32 32 34 32 30 22 23 22 22 26 27 26 26 24 24 24 24 24 23 22 21 20 20 20 19 18 19 19 20 20 20 19 19 19 19 18 19 19 19 19 18 20 19 20 21 20 21
29 29 31 33 35 34 27 22 22 23 21 24 28 27 26 26 24 24 24 24 23 22 21 20 20 19 19 18 19 20 20 20 20 20 19 20 19 19 19 19 19 19 19 19 19 20 20 21 21
29 29 30 31 34 34 33 22 20 23 24 19 29 28 27 26 25 24 24 24 23 22 21 20 20 19 19 19 19 20 20 21 21 20 20 20 19 19 19 19 19 19 19 20 20 20 19 21 20
28 31 30 31 31 31 32 29 23 23 23 17 18 28 27 27 26 25 24 24 23 22 21 20 19 19 19 19 19 20 20 21 21 20 20 21 20 19 19 20 19 19 19 19 20 20 20 20 21
28 30 30 30 30 30 31 30 31 27 22 18 19 29 28 27 26 25 24 24 24 22 21 21 20 19 19 19 19 20 20 21 21 21 21 21 20 20 19 19 20 20 19 19 19 20 20 20 20
30 29 29 30 29 28 29 30 31 31 25 22 20 23 26 28 27 26 24 24 24 23 21 21 20 19 18 19 19 19 20 21 21 21 21 20 20 20 20 19 20 20 19 19 19 19 20 20 20
29 27 25 26 27 27 30 29 31 33 31 24 22 21 23 28 27 26 25 24 24 23 22 21 20 20 19 19 20 20 20 21 21 21 21 21 21 20 20 20 20 20 20 19 19 20 20 20 20
27 27 26 24 26 27 30 29 31 33 34 28 24 22 23 29 28 27 25 25 24 24 23 21 21 21 20 19 20 20 20 21 21 21 22 21 22 21 21 21 21 20 20 19 19 19 19 20 21
26 27 28 27 29 28 30 31 32 34 34 33 26 27 22 24 27 28 26 25 24 24 23 22 21 21 20 21 21 20 20 21 21 21 21 21 22 22 22 21 21 21 20 19 19 19 19 19 19
26 27 26 27 24 25 29 30 32 32 33 33 27 25 24 23 22 26 27 26 25 24 23 23 21 21 21 20 21 22 21 21 21 21 21 21 21 22 21 22 21 21 19 19 19 19 19 20 19
24 24 25 26 26 26 26 29 33 33 33 33 28 25 28 25 24 24 22 27 25 24 24 23 22 21 20 20 20 20 22 22 22 21 21 21 21 21 22 20 20 20 20 19 19 20 20 20 20
24 24 26 24 23 25 27 29 34 33 35 34 34 33 28 26 26 21 25 22 26 25 24 23 22 21 20 20 19 19 20 22 22 22 21 21 21 21 21 21 20 20 20 19 19 20 20 19 20

GFSSGP_850_temp_057.txt.gz
Temp
20 20 19 18 18 18 20 22 21 24 26 26 26 26 24 24 23 20 18 19 19 19 18 18 18 18 18 18 18 18 18 18 19 19 18 18 17 17 17 17 17 18 17 17 18 17 17 18 18
19 19 18 19 19 20 21 20 21 22 26 26 25 25 23 21 19 16 17 18 20 19 18 18 18 18 18 18 18 19 19 19 19 18 18 18 18 17 18 18 17 17 17 17 17 18 18 18 18
19 18 19 18 19 21 22 20 19 21 26 25 23 23 23 19 18 17 18 19 19 19 19 18 18 18 18 19 19 19 19 19 18 18 18 18 18 18 18 18 18 18 17 18 18 18 18 18 18
19 19 19 19 20 23 23 21 22 19 23 24 24 22 20 19 18 19 19 20 19 19 19 18 19 19 19 18 18 18 18 18 18 18 18 18 18 18 18 18 18 18 18 18 18 18 18 18 17
19 20 19 19 22 20 21 21 21 20 20 23 22 21 21 21 21 20 20 18 19 19 19 19 18 18 18 18 18 18 18 18 18 18 18 18 18 18 18 18 18 17 17 18 18 18 18 18 17
21 21 20 20 21 23 20 20 22 21 23 22 21 21 20 21 21 20 19 18 20 19 19 19 18 18 18 18 18 18 18 18 18 18 18 18 18 18 18 18 18 18 17 18 18 18 18 18 18
20 20 20 22 21 24 22 19 23 21 22 23 21 21 20 21 21 20 19 19 20 20 20 19 18 18 19 19 17 18 19 19 18 19 19 19 18 18 18 18 18 18 18 18 18 19 19 18 18
21 22 22 22 22 23 23 23 21 21 20 21 22 21 20 22 22 21 19 20 20 20 20 19 18 18 19 19 19 19 19 19 19 19 18 18 18 18 18 18 18 18 18 19 19 19 18 18 17
22 22 21 23 24 21 20 22 21 22 20 21 22 21 21 22 22 21 20 20 19 20 20 19 19 19 19 19 19 19 19 19 19 18 18 18 18 18 18 18 18 18 18 18 19 19 19 19 18
24 23 24 26 25 22 18 21 22 23 21 22 22 21 21 22 22 21 20 19 20 20 19 20 19 19 19 19 19 19 19 18 17 18 18 17 18 18 18 18 18 18 18 18 19 19 19 19 19
25 23 25 27 26 24 19 17 24 24 23 23 22 21 21 22 22 22 21 21 21 20 20 20 20 19 19 19 19 19 18 19 18 18 18 18 18 18 18 19 18 18 19 19 18 19 19 19 19
25 27 27 28 25 21 19 18 20 22 20 21 21 21 21 21 22 22 21 22 21 20 19 19 19 19 18 19 20 19 19 19 18 18 18 18 18 18 18 19 18 18 18 18 19 19 20 19 19
26 27 29 29 25 22 20 22 21 21 21 21 21 21 21 22 22 22 22 22 22 21 20 20 20 20 18 19 19 19 19 18 19 19 19 18 19 18 18 18 18 18 18 19 19 19 19 19 19
28 29 29 31 26 23 23 22 22 21 22 20 21 21 21 22 22 22 23 23 22 22 21 21 21 21 19 19 19 19 19 18 19 20 20 19 19 18 18 18 19 19 19 19 19 19 18 19 19
28 27 29 29 29 25 23 20 21 22 21 21 21 21 21 22 22 23 23 23 22 22 21 21 21 20 20 19 19 19 19 18 20 20 20 19 19 18 18 19 19 19 19 19 19 19 19 19 19
26 26 25 28 28 29 28 22 20 20 20 22 21 21 21 22 22 23 23 23 23 22 21 21 21 20 19 19 19 19 19 20 20 20 19 19 19 19 18 19 19 19 19 19 20 19 19 19 19
24 22 25 27 29 29 27 21 19 20 20 22 21 21 21 22 22 23 23 24 23 22 21 21 21 20 19 19 19 20 20 20 19 20 19 19 19 19 19 19 19 19 19 20 20 19 19 20 20
22 23 25 26 29 28 26 20 20 19 20 22 22 22 22 22 23 23 24 24 23 22 22 21 20 20 19 20 20 20 20 19 20 19 19 19 19 19 19 19 18 19 19 19 20 20 20 20 20
25 25 26 27 30 28 26 21 20 18 20 20 21 22 22 22 23 24 24 24 23 22 22 21 21 20 20 19 20 20 19 19 20 19 19 19 19 19 19 19 19 19 19 19 20 20 20 20 20
25 25 25 27 30 28 25 23 21 20 20 19 18 22 23 23 23 24 24 23 23 22 22 21 21 20 20 19 19 19 19 20 20 20 19 19 19 19 19 20 18 19 19 19 20 20 20 20 20
25 24 25 26 28 27 23 22 21 22 22 19 19 22 23 24 24 24 24 23 22 22 21 21 20 20 20 20 20 20 20 20 20 19 20 19 20 19 19 19 19 19 19 20 20 20 20 20 20
22 26 28 28 26 23 25 21 20 21 21 20 19 21 21 23 25 24 24 23 23 22 22 21 20 20 20 20 20 19 20 20 20 20 20 19 20 20 19 19 19 19 20 20 20 20 20 20 20
25 27 26 27 25 24 26 24 21 22 19 19 19 22 21 22 24 24 24 24 23 22 22 21 21 20 19 19 20 20 20 21 20 21 20 20 20 20 19 19 20 20 19 19 20 20 20 20 20
28 26 25 24 23 22 24 24 24 22 21 19 19 22 23 24 24 24 24 24 23 22 22 21 21 20 20 19 20 20 20 21 21 21 21 21 20 20 20 19 19 20 20 20 20 20 20 20 20
26 24 19 19 21 21 24 24 23 23 23 20 20 20 21 24 25 24 24 24 23 22 22 22 21 20 20 19 19 20 20 21 21 21 21 21 20 20 20 20 20 20 20 19 19 20 20 20 20
23 22 18 19 20 22 24 23 23 28 25 22 22 21 22 23 24 25 24 24 24 23 22 22 21 21 20 21 20 20 21 21 21 21 21 21 21 21 21 21 21 21 21 20 20 20 20 20 20
23 21 24 21 23 21 23 25 26 27 26 23 23 24 23 23 23 23 24 24 24 23 22 22 22 21 21 21 21 20 21 21 21 21 21 21 21 21 20 21 21 21 21 21 20 20 20 20 20
23 24 20 21 20 19 22 23 23 26 28 25 23 23 21 23 24 24 23 23 23 23 23 21 22 22 21 21 21 21 21 21 21 21 21 21 21 21 21 21 21 21 21 21 20 20 20 19 20
22 20 22 20 19 19 20 22 25 26 25 25 24 23 23 25 25 23 23 22 23 23 23 22 21 21 21 21 21 21 21 21 22 21 21 21 22 22 21 22 21 20 21 21 21 20 20 19 20
21 22 20 17 18 19 19 21 26 24 23 26 26 25 22 23 21 21 23 25 23 23 23 23 22 21 21 22 21 21 21 21 21 22 21 21 21 22 21 21 21 20 20 20 20 20 20 19 19

GFSSGP_850_temp_060.txt.gz
Temp
19 19 18 18 18 18 19 21 20 20 24 26 25 25 23 20 21 19 18 19 19 18 18 18 19 19 18 18 18 18 18 19 19 19 19 18 18 18 18 18 17 17 18 17 17 18 18 18 18
19 18 18 18 18 20 21 20 19 22 24 24 24 23 22 19 18 18 17 19 19 19 18 19 19 19 18 18 18 18 18 18 18 18 18 18 17 17 17 17 17 17 17 18 18 17 18 18 18
19 18 18 18 18 19 21 19 19 21 23 24 23 23 20 17 17 17 18 18 19 19 18 19 19 18 18 18 18 18 18 18 18 18 18 18 17 17 17 17 18 17 17 18 18 18 18 18 18
19 18 19 19 19 21 22 21 20 20 21 22 22 21 19 18 17 18 18 19 19 19 18 19 18 18 19 19 19 18 18 18 18 18 18 18 17 18 18 18 18 18 18 18 18 18 18 18 18
19 19 19 19 20 21 20 19 20 19 18 19 21 20 18 18 18 19 18 18 19 19 18 18 19 18 18 18 19 18 18 18 18 18 18 17 18 18 18 18 18 18 18 18 18 18 18 18 17
19 20 19 20 20 21 19 19 21 21 19 20 20 20 18 19 19 18 18 19 19 19 18 19 19 18 18 19 18 19 18 18 18 18 18 18 18 18 18 18 17 18 18 18 18 18 17 17 17
19 19 19 21 22 21 19 19 21 20 21 22 21 19 17 19 18 18 20 19 19 19 19 19 19 18 18 18 19 18 18 18 18 18 18 18 18 18 18 18 18 18 18 18 18 17 17 17 16
20 19 21 22 22 20 19 19 21 21 21 21 21 20 18 18 17 18 19 19 19 19 20 20 19 19 19 18 18 18 18 18 19 18 18 18 18 18 18 18 18 18 18 18 18 18 17 17 17
20 19 20 23 24 21 19 20 20 21 20 21 21 21 21 19 18 18 18 18 19 19 20 20 19 19 19 18 18 19 19 19 19 18 18 18 18 18 17 18 18 19 19 19 18 17 17 18 18
20 18 21 23 23 22 20 20 22 21 21 22 21 21 20 19 18 18 18 19 19 19 19 20 20 19 19 18 19 19 19 19 18 18 18 18 18 18 18 18 18 19 19 19 19 18 17 17 18
22 21 23 25 22 21 20 20 20 23 20 22 20 21 20 19 18 19 19 20 21 20 20 20 20 19 19 19 19 19 19 18 18 18 18 18 18 18 18 19 19 18 19 19 19 18 18 18 18
21 24 25 25 22 20 19 20 21 22 22 22 21 22 20 20 19 19 20 20 20 20 20 20 20 20 19 19 19 19 19 19 18 18 18 18 18 18 18 18 18 18 19 19 19 19 19 18 18
22 24 25 26 21 21 22 19 20 21 20 22 21 21 21 20 20 20 21 21 20 20 19 20 20 19 19 19 19 19 18 19 18 18 18 18 18 18 18 18 19 19 19 19 19 19 19 19 18
25 25 26 23 20 19 19 21 20 21 19 20 20 21 21 21 21 21 21 20 20 20 20 19 20 20 19 19 19 19 18 18 18 18 19 19 18 19 19 18 18 19 19 19 19 19 18 19 19
25 24 25 25 21 21 21 20 21 21 20 20 20 21 21 21 21 21 21 21 21 21 20 20 20 19 19 19 19 19 19 19 19 19 19 19 18 19 19 19 19 18 19 19 19 19 19 18 19
24 23 23 25 22 22 24 22 20 20 20 20 21 21 21 21 21 22 21 21 21 21 20 20 19 19 20 19 19 18 19 19 19 19 19 19 19 19 19 18 18 19 18 19 19 19 19 19 19
19 21 23 24 26 22 21 19 20 21 21 20 21 21 21 21 22 22 22 22 22 22 21 20 19 20 20 19 19 19 19 19 19 19 19 19 19 19 19 19 19 19 19 19 19 20 19 19 19
20 21 22 23 26 24 22 20 19 19 20 21 21 21 21 21 22 22 22 22 22 22 21 21 20 20 20 20 19 19 19 19 19 19 19 19 19 19 19 19 19 19 19 19 19 20 19 19 19
22 22 21 24 26 26 22 20 20 19 20 20 20 21 21 21 22 22 22 22 22 21 21 21 21 20 20 20 19 19 20 20 19 19 19 19 19 19 19 19 19 19 19 19 20 20 20 20 20
22 21 21 23 25 24 20 19 19 19 20 21 20 20 21 21 22 22 22 21 22 22 22 21 21 21 20 20 19 20 20 20 19 19 18 19 19 19 19 19 19 19 19 19 19 19 19 20 20
21 20 21 22 25 22 21 19 18 18 19 21 21 21 21 22 22 22 22 22 22 22 22 22 21 21 20 20 20 19 20 19 19 19 19 19 19 19 19 19 19 19 19 19 20 20 20 20 20
19 22 24 25 24 21 22 20 18 18 18 18 19 21 21 21 22 22 22 22 22 22 22 22 21 21 21 20 20 20 20 19 20 20 19 19 19 19 19 19 19 19 19 19 19 19 20 20 20
22 23 23 25 23 22 23 21 19 20 19 18 18 20 21 21 22 23 22 23 23 22 22 22 21 21 21 20 20 20 19 19 20 20 20 19 19 19 20 19 19 19 19 20 20 19 20 20 20
25 23 22 19 19 19 21 22 17 19 19 19 19 18 18 21 22 23 23 23 23 23 22 22 21 21 21 20 20 20 20 19 20 20 20 20 20 19 19 20 19 19 19 20 20 19 19 20 20
23 18 17 19 18 18 20 21 21 21 23 20 20 20 20 21 22 23 22 23 23 22 22 22 22 21 21 20 20 20 20 19 20 20 20 20 20 20 19 20 19 20 20 19 19 20 20 20 20
22 18 17 19 18 18 21 21 23 22 24 22 21 22 22 23 23 23 23 23 23 23 22 22 22 21 21 21 20 20 20 20 20 20 21 21 20 21 21 20 20 20 20 20 20 20 20 20 20
22 20 19 18 18 18 19 21 24 24 23 21 22 22 21 23 23 23 23 23 23 23 23 22 22 22 22 21 21 20 21 20 20 20 20 21 21 21 21 21 20 20 21 21 20 20 20 20 20
22 21 20 15 18 19 19 21 20 20 20 21 21 21 22 21 24 23 23 23 23 24 23 23 23 22 22 22 21 21 21 21 20 20 20 21 21 21 21 20 20 20 20 20 21 20 20 20 20
16 16 17 16 15 16 17 19 22 20 21 20 21 21 22 21 23 23 23 23 23 23 23 23 22 22 22 22 22 21 21 21 21 21 20 20 20 20 20 20 21 20 20 20 20 20 20 20 20
18 14 13 14 18 14 15 18 21 21 21 21 21 23 22 21 21 23 24 23 23 23 23 22 22 22 22 23 22 21 21 21 21 21 21 20 20 20 20 21 21 21 20 20 20 21 20 20 20

GFSSGP_850_temp_063.txt.gz
Temp
18 18 18 18 18 18 19 21 20 21 23 24 22 23 22 21 21 18 17 19 18 18 18 18 18 18 18 19 18 18 19 19 19 19 18 18 18 18 19 18 18 18 17 17 18 18 18 18 18
19 18 18 18 18 20 20 20 20 19 21 23 23 22 21 18 18 17 17 19 18 18 18 18 18 18 18 18 18 18 19 19 19 18 18 18 18 18 18 18 17 17 18 17 18 18 18 18 17
18 18 18 18 19 19 21 19 19 19 21 23 22 20 18 16 17 17 19 18 18 18 18 18 19 18 18 18 18 18 18 18 18 18 18 18 18 18 17 17 17 17 18 18 16 18 18 18 18
18 17 18 18 19 21 20 20 21 19 20 20 19 19 17 17 16 17 19 18 18 18 19 19 19 18 18 18 18 18 18 18 18 18 18 17 17 17 17 17 17 17 17 17 17 17 18 17 17
18 18 18 19 20 21 19 18 18 18 18 18 20 18 16 16 17 18 18 18 19 19 19 19 18 19 18 18 18 18 18 18 17 18 17 17 17 17 17 17 17 16 16 17 17 17 17 17 17
18 19 19 20 20 20 19 19 20 20 18 19 19 18 16 17 18 18 18 18 19 19 19 19 19 19 18 18 18 18 18 18 18 17 17 17 17 17 17 17 17 16 17 17 17 17 17 17 18
18 19 19 21 21 21 19 18 19 19 20 21 20 17 16 16 18 18 18 18 19 19 19 19 19 18 18 18 17 18 19 18 17 17 17 17 18 17 17 17 18 17 17 17 17 17 17 17 18
19 19 20 22 21 21 19 19 19 20 21 21 21 16 16 17 18 18 18 18 19 19 19 19 18 18 18 18 18 18 18 18 18 18 18 18 17 18 17 18 17 18 18 17 16 16 17 18 18
20 19 19 21 22 21 20 19 19 20 21 22 21 19 18 17 17 17 17 18 18 19 19 19 19 18 18 18 18 18 18 19 18 18 17 18 18 18 18 18 18 18 18 18 17 17 17 18 18
19 18 19 21 23 21 20 21 19 21 21 22 20 20 17 17 17 17 17 18 18 19 19 19 19 19 19 19 19 19 19 18 18 18 17 18 18 18 18 18 18 18 18 18 18 17 17 17 18
20 20 22 24 22 22 21 21 21 22 21 21 19 18 17 17 17 18 18 19 20 20 19 19 19 19 19 19 19 19 18 18 18 18 18 18 18 18 18 18 18 18 17 17 18 18 18 18 18
19 22 23 24 22 21 20 21 21 21 22 22 21 19 17 17 18 18 18 18 19 19 20 19 19 19 19 19 19 19 18 18 18 18 18 18 18 18 18 18 18 18 18 18 18 18 18 18 18
20 22 23 24 24 23 21 20 21 20 21 21 20 18 18 17 18 19 19 19 19 20 20 20 19 19 19 19 19 19 18 18 18 18 18 18 18 18 18 18 18 18 18 18 18 18 18 19 19
23 23 23 24 23 22 21 20 21 20 21 20 20 19 18 18 19 19 19 19 20 20 20 20 19 19 19 19 19 19 18 18 18 18 18 18 18 18 18 18 18 19 19 18 18 18 18 18 19
23 21 22 20 20 20 21 21 21 20 19 19 20 20 19 18 19 19 20 20 20 21 20 20 19 19 19 19 19 19 18 18 18 18 18 18 18 18 18 18 18 18 19 19 18 18 18 18 18
22 21 22 21 20 21 20 21 19 19 19 18 19 20 20 19 20 20 20 21 20 21 20 19 19 20 19 19 18 18 18 18 18 18 18 18 18 18 18 18 18 19 19 19 19 19 18 18 19
18 20 22 22 20 21 20 20 20 19 19 19 19 20 20 20 20 20 20 21 21 21 21 20 20 19 19 19 19 19 18 19 18 18 18 18 18 18 18 18 18 18 18 19 19 19 19 19 19
20 21 21 22 21 20 19 19 20 20 20 19 20 20 21 21 21 20 20 21 21 21 21 20 20 20 19 19 19 19 19 19 19 18 18 18 18 18 19 18 18 18 18 19 19 19 19 19 19
21 21 20 21 23 24 19 20 19 20 20 20 20 20 21 21 21 21 21 21 21 21 20 20 20 20 19 19 20 19 19 19 19 18 18 18 19 19 19 19 19 19 19 19 19 19 19 19 19
21 20 20 21 23 21 21 19 19 19 20 20 20 20 20 20 21 21 21 21 21 22 21 20 20 20 20 19 20 20 19 19 19 19 19 18 18 19 19 19 19 19 19 19 19 19 19 19 19
20 19 20 20 22 21 19 20 19 18 19 20 20 20 20 20 21 21 21 21 21 21 21 21 21 21 20 20 20 20 19 19 19 19 19 18 18 18 19 19 19 19 19 19 19 19 19 20 20
18 20 21 22 21 20 21 19 19 18 17 19 19 20 20 20 21 21 21 21 21 21 21 21 21 21 21 20 20 20 19 19 20 19 19 19 18 19 19 19 19 19 19 19 19 19 19 20 20
19 21 21 21 21 21 22 20 18 17 18 18 19 19 20 20 21 21 21 22 22 22 21 21 21 21 21 20 20 20 20 20 20 19 19 19 19 18 19 19 19 19 19 19 19 19 19 20 20
23 22 20 17 16 18 19 20 17 18 19 19 19 19 19 20 20 21 21 22 22 22 21 21 21 21 21 21 20 20 20 20 20 19 19 19 19 19 19 19 19 19 19 19 19 19 19 20 20
20 17 17 18 17 18 19 19 20 19 20 21 20 20 19 20 20 21 21 22 22 21 21 21 21 21 21 21 21 21 20 20 20 19 19 19 19 19 19 19 19 19 19 19 19 19 19 19 19
18 17 16 18 16 18 18 20 22 20 21 21 21 21 21 20 21 20 22 22 22 22 22 22 21 21 21 21 21 21 20 20 20 20 19 20 20 20 20 19 19 19 19 19 19 19 19 19 19
20 19 18 14 15 17 17 20 22 20 19 19 21 20 20 20 21 21 21 22 22 22 22 22 22 22 22 22 21 21 21 20 20 20 20 20 20 20 20 19 20 19 19 19 19 19 20 20 20
18 19 18 14 16 18 18 18 17 17 18 18 19 20 20 20 20 21 21 22 22 23 23 23 23 23 23 22 22 22 21 21 20 20 20 20 20 20 20 20 20 20 19 19 19 19 19 20 20
13 12 11 13 14 15 16 16 20 17 17 17 18 20 20 20 21 20 21 21 22 22 23 23 22 22 22 22 22 22 22 21 21 20 20 20 20 20 21 20 20 20 20 20 19 19 19 19 20
14 12 10 11 15 12 14 15 16 16 17 18 18 20 21 21 21 20 21 21 20 20 20 21 22 22 22 22 22 22 22 22 22 21 20 20 20 20 20 20 20 20 20 20 20 19 19 19 20

GFSSGP_850_temp_066.txt.gz
Temp
19 18 18 18 18 18 18 20 20 21 22 22 21 21 20 20 19 18 18 19 19 18 18 18 18 18 19 19 19 19 19 19 19 18 18 17 17 18 18 18 18 17 18 18 17 17 17 17 17
18 18 18 17 18 19 20 20 20 19 20 21 21 21 20 18 17 17 17 19 19 18 18 18 18 18 18 18 18 18 19 18 18 17 18 18 18 18 17 17 18 17 17 17 17 17 17 17 17
18 17 17 18 19 19 20 19 19 18 18 20 19 18 17 16 16 17 19 18 19 19 18 18 18 18 18 18 18 18 18 18 18 18 18 18 17 17 17 17 17 17 17 17 16 17 17 18 18
18 17 17 18 19 21 19 19 18 18 19 19 18 18 16 15 16 17 18 18 19 19 18 19 18 18 18 18 18 18 18 18 18 18 17 18 18 17 17 17 17 17 17 17 16 17 17 17 17
17 17 18 19 19 20 19 19 18 18 18 18 19 17 15 16 16 18 18 19 19 18 18 18 18 18 18 19 18 18 18 18 18 18 17 17 17 17 17 17 17 16 17 16 17 17 17 17 17
18 18 19 20 21 20 18 19 18 18 18 18 17 17 16 16 17 18 18 19 19 19 19 18 18 19 19 18 18 17 18 18 18 17 18 17 17 17 17 17 16 17 16 16 17 17 17 17 17
18 18 20 20 21 20 19 17 19 20 19 20 18 17 16 16 18 18 18 18 18 18 18 18 19 18 18 18 18 17 18 18 18 17 17 18 17 17 17 17 16 16 17 17 17 17 17 17 18
18 18 20 21 20 20 19 19 18 20 20 19 19 16 16 16 18 18 18 18 18 18 18 19 18 18 18 17 17 17 18 18 18 17 18 18 17 17 17 17 16 17 17 17 17 17 17 17 18
19 19 18 21 22 20 19 20 18 20 20 21 20 17 16 16 18 17 18 18 18 18 18 19 18 18 18 18 18 18 18 18 18 18 18 18 18 17 17 17 17 17 17 17 17 17 17 18 18
18 18 19 21 22 21 20 20 19 20 21 18 17 17 16 17 17 17 17 18 18 18 18 19 18 19 18 18 18 18 19 18 18 18 18 18 18 18 17 17 17 18 18 17 17 17 18 18 18
19 18 21 22 22 21 21 20 20 21 20 19 16 16 16 17 17 18 18 19 19 19 19 19 18 19 19 18 19 19 18 18 18 18 18 18 18 18 17 17 18 18 18 18 18 18 18 18 18
18 21 21 22 22 21 20 21 20 21 21 20 20 18 17 17 17 18 18 19 20 19 19 19 18 19 19 18 19 19 18 18 18 18 18 18 18 18 18 17 17 17 18 18 18 18 18 18 18
19 21 22 22 22 22 21 20 21 21 21 21 18 17 16 17 18 18 19 19 19 20 19 19 19 19 19 19 19 18 18 18 18 18 18 18 18 18 18 18 18 18 18 18 18 18 18 18 18
21 21 22 23 23 22 21 20 21 20 20 18 18 17 17 18 18 18 18 19 19 19 19 20 19 19 19 19 19 18 18 18 18 18 18 18 18 18 18 18 18 18 18 18 18 18 18 18 18
22 20 21 22 20 20 21 19 20 20 19 18 17 17 17 18 18 19 19 20 20 20 20 20 19 19 19 19 18 18 18 18 18 18 18 18 18 18 18 18 18 18 18 18 18 18 18 18 18
20 20 21 21 20 20 21 20 19 19 17 17 17 18 17 18 19 19 20 20 20 20 20 19 19 19 19 19 19 19 18 18 18 18 18 18 18 18 18 18 18 19 18 18 18 18 18 18 18
17 19 21 22 20 19 20 20 19 18 18 19 19 18 18 18 18 19 20 20 21 21 20 20 19 19 19 19 19 19 18 18 18 18 18 18 18 18 18 18 18 19 19 19 19 19 18 18 18
19 20 20 21 19 20 19 18 19 18 18 18 19 19 18 18 19 20 20 20 20 20 20 20 20 20 19 19 18 18 18 19 18 18 18 18 18 17 18 18 18 18 19 19 19 19 19 18 18
20 20 20 21 22 22 20 19 18 19 19 19 19 19 19 19 20 20 20 20 20 20 20 20 20 19 19 19 19 19 19 19 19 18 18 18 18 18 18 18 18 18 19 19 19 19 19 19 19
19 20 20 20 22 20 20 19 18 18 19 19 19 19 20 19 19 20 20 20 20 20 20 20 20 20 20 20 20 19 19 19 19 18 18 18 18 18 18 18 18 18 18 19 19 19 19 19 19
19 19 19 20 21 20 19 18 19 19 19 19 19 19 20 20 20 20 20 20 21 21 21 21 20 20 20 20 19 19 19 19 19 19 18 18 18 18 18 18 18 18 18 19 19 19 19 19 20
18 19 21 21 20 19 20 18 18 18 17 18 19 19 19 20 20 20 20 20 21 21 21 21 21 20 20 19 19 19 20 20 19 19 19 18 18 18 18 18 18 18 19 19 19 19 19 20 20
19 19 20 20 19 19 20 18 19 17 17 18 18 19 20 20 20 20 20 21 21 21 22 21 21 21 20 19 19 19 20 20 20 19 19 19 19 19 18 18 19 18 19 19 19 19 19 20 20
21 20 15 14 15 17 19 18 19 17 18 19 19 19 19 19 20 20 20 21 21 21 22 21 21 21 20 20 19 19 20 20 19 19 20 19 19 19 18 18 18 18 18 19 19 19 19 19 20
18 16 15 16 15 17 17 19 19 18 18 18 19 19 19 20 20 20 20 20 21 21 21 21 21 21 21 20 20 20 19 20 20 20 20 19 19 19 19 19 18 18 19 19 19 19 19 19 19
16 16 14 18 15 17 17 19 19 18 19 19 19 20 19 19 20 20 20 20 21 21 22 22 21 21 21 21 20 20 20 20 20 20 20 20 19 20 19 19 19 19 19 19 18 19 19 19 19
18 17 17 14 14 16 16 18 20 19 18 18 18 20 20 19 20 20 20 21 21 21 22 22 22 21 21 21 21 21 20 20 20 20 20 20 20 20 19 19 19 19 18 18 18 18 19 19 19
16 15 17 13 17 19 16 16 15 16 17 17 16 17 19 20 20 21 20 20 21 21 22 22 22 22 21 21 21 21 21 20 20 20 20 20 20 20 20 19 19 19 19 19 19 19 18 18 19
12 11 10 12 12 15 14 14 17 15 15 15 16 16 18 19 20 20 21 20 21 21 21 22 22 22 21 21 21 21 21 20 20 21 20 20 20 20 20 20 20 19 19 19 19 19 19 19 19
12 12 9 13 15 11 12 14 15 14 15 15 14 15 16 18 19 19 19 19 19 20 20 21 21 21 22 22 21 22 22 21 21 21 21 20 20 20 20 20 20 20 19 19 19 19 19 19 19

GFSSGP_850_temp_069.txt.gz
Temp
18 18 18 18 20 21 21 21 22 21 22 22 21 22 22 21 21 21 17 19 19 18 18 18 18 19 19 19 19 19 19 19 19 17 17 18 18 17 17 18 17 17 17 17 17 17 17 18 18
18 18 18 18 21 22 22 20 19 19 20 21 21 21 21 21 16 17 17 18 19 19 18 19 18 19 19 19 19 19 19 18 18 17 17 17 17 17 17 17 17 17 17 17 17 17 17 18 17
18 18 18 20 21 22 21 18 18 18 20 19 19 19 18 17 16 17 18 18 19 19 18 19 18 19 19 19 19 19 19 18 18 17 17 17 17 17 17 17 17 17 17 17 17 17 18 18 17
18 17 17 20 22 21 19 18 17 18 18 18 19 19 16 16 15 17 18 18 19 19 19 19 18 18 18 18 18 18 18 17 18 17 17 17 17 17 17 17 16 17 17 17 17 17 17 17 17
18 18 20 21 21 21 19 17 17 18 18 18 20 18 15 15 17 18 18 18 19 19 19 18 18 18 18 18 19 18 18 17 18 17 17 17 17 17 17 17 17 17 17 17 17 17 17 17 17
18 18 21 22 22 21 19 17 17 17 18 18 18 18 16 16 17 17 17 18 19 19 17 17 18 18 18 18 18 18 18 18 18 18 17 17 17 17 17 17 17 17 17 17 17 17 17 17 17
19 20 22 22 23 22 20 19 19 19 20 19 18 18 15 15 17 17 16 18 19 19 18 18 18 18 18 18 18 18 17 18 18 17 17 17 17 17 17 17 17 17 17 17 17 17 18 17 18
18 21 21 23 23 20 19 18 19 21 21 19 19 19 16 15 17 17 17 17 18 18 19 18 19 18 17 17 17 17 18 17 18 17 17 17 17 17 17 17 17 17 17 17 17 17 17 17 17
19 21 22 23 23 21 19 19 19 19 19 20 19 18 18 15 16 16 16 16 17 18 18 19 17 18 17 17 17 18 17 18 17 17 17 17 17 17 16 17 18 17 17 17 17 17 17 17 17
20 21 23 23 24 23 20 19 18 21 20 18 17 17 16 15 16 16 16 16 16 17 17 18 17 18 17 17 17 18 18 18 18 18 17 17 18 18 16 17 18 18 18 18 18 17 18 17 17
21 22 23 24 23 22 22 21 19 22 21 18 17 16 16 16 16 16 16 16 16 18 18 18 18 17 18 17 18 19 18 18 18 18 17 17 18 18 18 18 18 18 17 18 18 18 18 18 18
20 22 22 23 22 22 23 21 21 22 21 20 18 17 17 17 17 17 17 16 16 19 18 19 18 18 18 18 19 18 18 18 18 18 18 18 17 17 18 18 18 18 18 18 18 18 18 18 18
21 22 23 23 22 22 21 22 22 22 20 19 17 17 17 17 17 17 17 16 18 19 19 19 19 18 18 19 19 18 19 18 18 18 18 18 18 18 17 17 18 18 18 18 18 18 18 18 18
22 22 23 23 23 23 23 22 22 21 19 18 17 17 17 17 17 16 16 18 20 19 19 19 19 18 18 19 19 19 18 18 18 18 18 18 18 18 18 18 18 18 18 18 18 18 18 18 18
22 23 25 23 23 22 22 22 22 19 17 17 17 18 17 17 17 17 19 20 20 20 19 19 19 19 18 19 19 18 18 18 18 18 18 18 18 18 18 18 18 18 18 18 18 18 18 18 18
23 24 25 23 23 21 23 23 22 18 17 17 16 18 18 17 17 17 19 19 19 20 19 19 19 19 19 19 19 18 18 18 18 18 18 18 18 18 18 18 17 18 18 18 18 18 18 18 18
23 24 24 24 22 23 23 24 20 18 18 17 17 18 18 18 17 19 20 20 20 20 19 19 19 19 19 18 18 18 18 18 18 18 18 18 18 18 18 18 18 18 18 19 19 18 18 18 18
23 24 24 24 23 23 23 23 21 20 19 19 17 19 19 19 18 19 19 20 20 20 20 19 19 19 19 19 18 18 18 18 18 18 18 18 18 18 18 18 18 18 19 19 19 19 19 19 19
23 23 24 24 24 24 25 25 22 21 20 19 19 19 19 19 19 19 20 20 20 20 20 20 20 19 19 19 18 18 19 19 19 18 18 18 18 18 18 18 18 18 19 19 19 19 19 19 19
22 23 23 24 24 24 24 25 22 22 21 20 20 20 20 20 19 19 20 20 20 21 20 20 20 20 19 19 19 19 19 19 19 19 18 18 18 18 18 18 18 18 19 19 19 19 19 19 20
22 23 22 24 24 23 23 23 22 21 20 20 20 20 20 20 20 19 19 18 20 20 20 20 20 20 19 19 19 19 19 19 19 19 19 18 18 18 18 18 18 18 19 19 19 19 19 19 20
22 22 23 23 23 24 23 25 22 22 21 20 21 20 20 20 20 20 19 19 20 20 20 20 20 20 20 19 19 19 19 19 19 19 19 18 18 18 18 18 18 18 18 19 19 19 19 19 20
23 22 23 23 23 23 23 25 24 21 22 20 20 20 21 20 20 20 20 19 21 21 20 20 20 20 20 20 20 19 19 19 19 19 19 19 18 18 18 18 18 18 18 18 19 19 19 19 20
23 22 21 21 23 23 25 25 24 23 21 22 22 21 20 21 20 20 20 20 21 21 21 21 21 21 20 20 20 19 19 19 19 19 19 19 19 18 18 18 18 18 18 18 19 19 19 19 20
23 23 22 22 22 24 22 24 21 21 21 20 20 22 21 21 20 20 20 20 20 21 21 21 21 21 21 20 20 20 19 19 19 20 19 20 19 19 19 19 18 18 18 18 19 19 19 19 19
22 23 23 21 22 24 21 24 22 21 20 19 19 20 21 20 21 21 20 20 20 20 21 21 21 21 21 21 21 21 19 19 19 20 20 20 20 19 19 19 18 19 18 18 18 19 19 19 19
21 21 23 22 20 24 24 23 22 22 20 18 18 19 20 21 21 21 20 20 19 20 21 21 21 22 22 21 21 21 20 19 19 19 19 20 20 20 19 19 19 19 18 18 19 18 19 19 19
21 19 22 22 21 23 21 20 21 18 17 17 17 17 19 20 20 20 20 19 19 20 21 21 21 22 22 22 21 21 21 20 19 19 19 20 20 20 20 19 19 19 19 19 18 19 19 19 19
19 20 19 21 21 23 22 20 18 17 16 15 14 14 16 18 19 19 20 19 19 20 20 21 21 21 22 22 21 21 21 20 20 20 19 20 20 20 20 20 20 19 19 19 19 19 19 19 19
16 15 17 22 20 18 22 19 17 16 15 14 12 12 13 13 14 16 17 18 18 19 20 21 21 21 22 22 22 21 22 21 20 20 20 20 20 20 20 20 20 20 20 19 19 19 19 19 19

GFSSGP_850_temp_072.txt.gz
Temp
19 18 17 18 23 26 25 22 22 25 25 24 25 25 25 25 25 23 19 19 18 18 17 17 18 19 19 18 19 19 17 17 17 17 18 18 18 18 18 17 18 18 17 18 18 18 18 18 18
18 17 17 22 25 26 22 20 20 19 24 24 24 24 24 23 20 19 19 19 18 19 18 17 19 18 18 19 19 18 18 17 17 18 18 18 17 17 17 17 17 17 17 18 18 18 18 18 18
17 18 21 23 27 26 22 19 18 20 23 24 23 24 22 20 19 20 19 18 19 19 19 17 18 19 18 18 19 18 18 18 17 17 17 17 17 17 17 17 17 17 17 17 18 17 17 17 18
18 19 20 22 24 21 21 18 19 19 19 22 23 23 19 18 20 19 19 19 19 19 19 18 18 18 18 18 18 18 18 18 17 18 17 17 17 17 17 17 17 17 17 17 17 17 17 18 17
19 21 22 24 24 22 21 18 18 19 19 22 23 22 18 19 18 19 19 20 20 20 18 17 18 18 18 18 17 17 18 17 17 17 17 17 17 17 17 17 17 17 17 18 18 17 17 17 17
20 22 24 24 24 23 20 18 18 18 20 21 22 18 18 18 18 19 19 20 20 20 19 17 18 18 18 18 17 18 18 17 17 17 17 17 17 17 17 17 17 17 18 18 17 17 17 17 17
22 23 25 26 24 24 20 19 19 20 22 22 21 23 19 19 19 19 20 20 20 20 19 18 17 17 18 18 18 18 18 17 17 17 17 17 17 17 17 17 17 18 17 17 17 17 17 18 18
20 26 26 26 25 23 21 21 22 22 23 22 22 23 20 19 18 19 20 20 19 19 19 19 18 18 17 16 18 18 18 17 17 17 17 17 17 17 17 18 18 18 17 17 17 17 17 17 17
21 24 26 26 25 23 21 22 20 22 23 23 22 22 21 19 19 19 19 19 19 19 19 19 19 17 18 17 17 17 17 17 17 17 17 17 18 18 17 18 18 17 17 17 17 17 18 18 18
23 24 27 27 27 24 20 20 22 21 22 22 21 22 20 19 19 20 20 20 20 19 19 19 19 18 17 17 17 17 17 18 17 17 16 17 17 17 17 17 18 18 18 18 18 17 17 17 18
25 25 27 27 26 25 23 20 19 22 22 23 22 21 19 19 19 20 20 20 20 19 19 19 18 18 18 17 18 18 18 17 16 16 17 17 17 18 18 17 17 17 17 18 18 18 18 17 19
24 26 25 26 26 26 25 24 23 21 22 21 21 20 20 20 20 20 20 20 20 19 19 19 18 17 17 18 18 18 18 18 18 16 16 17 18 17 18 18 17 17 18 17 18 18 17 17 17
23 26 26 26 26 26 25 24 24 23 21 20 20 20 20 21 20 20 21 20 20 19 18 19 18 17 17 17 18 18 17 19 17 17 16 17 18 17 17 17 18 17 18 17 18 17 18 18 18
26 26 26 27 27 26 26 26 25 24 22 21 21 21 21 21 21 20 20 20 19 18 17 18 17 16 17 17 17 17 18 17 18 18 17 18 18 17 17 17 17 18 18 18 18 17 18 19 19
25 26 28 27 27 27 25 25 24 23 21 21 21 21 21 21 21 20 20 20 19 18 18 18 17 17 16 17 16 17 18 18 18 18 18 18 17 18 18 17 18 18 18 18 18 18 18 19 19
26 28 28 28 27 26 27 25 24 21 19 20 22 22 21 21 21 21 20 20 19 19 18 17 18 17 17 17 17 18 18 18 18 18 18 18 18 18 18 18 17 18 18 18 18 19 19 19 19
27 28 29 27 28 27 27 26 24 21 19 20 18 21 21 21 21 20 20 20 20 19 18 17 17 17 17 16 17 17 17 18 18 18 18 18 18 17 18 18 18 18 18 18 19 19 19 19 20
27 28 29 28 27 28 28 27 24 22 22 20 18 21 22 22 21 20 20 20 20 19 18 17 17 17 17 17 17 18 18 18 18 18 18 18 18 17 18 17 18 18 19 19 19 19 19 20 20
29 29 28 28 28 29 29 29 26 24 23 21 18 22 22 22 22 21 20 18 20 19 18 17 17 17 17 17 18 18 18 18 18 18 18 18 18 18 18 18 18 18 19 19 18 19 19 20 19
27 28 28 27 28 28 29 29 27 26 25 23 20 19 22 23 22 21 20 20 20 19 18 17 17 17 18 18 18 19 19 19 19 18 18 17 18 18 19 18 18 18 19 19 19 19 20 20 19
26 27 28 28 28 28 28 28 27 26 26 23 22 23 23 23 23 22 21 20 21 20 19 19 18 17 18 18 18 17 18 18 19 18 18 18 18 18 18 18 18 19 19 19 19 19 19 21 19
26 27 27 27 27 28 29 29 28 26 25 22 22 23 24 23 23 22 22 21 21 21 19 19 19 17 18 18 18 18 19 20 20 19 19 18 18 18 19 19 19 19 18 18 19 19 19 20 20
27 27 26 27 27 27 28 29 26 27 26 21 22 22 24 22 22 23 22 22 22 21 20 19 18 19 17 19 18 18 19 20 19 20 19 18 19 18 18 18 19 19 18 18 18 19 20 19 20
26 26 26 26 28 26 29 29 28 27 25 26 25 23 23 24 22 22 23 22 22 21 21 20 18 20 20 19 20 19 18 19 20 19 19 18 18 18 18 18 19 19 18 19 18 18 19 19 20
25 26 25 25 26 27 30 28 25 25 24 24 24 24 24 24 24 23 23 23 22 22 21 20 19 20 20 20 20 20 19 19 18 18 19 20 20 19 18 18 18 18 18 18 18 18 18 19 19
25 27 27 25 26 28 28 27 24 25 23 23 23 24 25 24 24 24 23 23 22 22 21 20 19 21 21 21 21 20 20 18 18 19 20 20 20 20 19 18 18 17 19 18 19 18 18 18 19
25 25 29 27 28 29 28 25 25 24 23 21 20 23 25 25 24 24 23 23 22 22 21 20 20 22 21 21 21 21 21 20 19 19 18 19 19 20 18 18 18 18 18 18 18 19 19 18 18
25 27 25 26 25 26 27 26 24 22 21 21 17 16 22 23 24 24 23 23 22 22 21 20 20 20 22 22 21 21 21 21 20 18 18 18 19 19 19 18 18 18 18 18 19 18 18 18 18
24 25 25 28 27 27 26 25 22 20 18 18 16 14 14 15 18 20 21 22 22 22 22 21 20 20 19 20 20 21 20 21 21 20 18 18 18 18 18 19 19 18 18 18 19 18 19 18 18
22 23 25 25 25 27 28 22 21 20 16 14 13 13 12 13 13 15 17 19 19 21 21 21 21 21 20 20 19 20 21 19 19 21 21 19 18 18 18 19 19 19 18 18 19 19 19 18 18

GFSSGP_850_temp_075.txt.gz
Temp
19 19 20 22 23 28 25 22 24 27 27 29 28 28 28 26 25 24 21 21 20 19 17 18 18 18 18 19 19 18 18 18 18 18 18 17 18 18 18 18 18 18 18 18 18 18 18 18 18
20 20 20 21 25 26 23 22 19 20 27 27 27 27 26 25 23 23 22 21 21 20 19 17 19 18 18 18 18 17 17 17 17 18 18 17 18 17 17 18 18 18 18 18 18 18 18 18 18
19 20 20 23 27 23 22 20 19 19 26 27 27 25 24 23 23 23 21 21 22 21 20 18 19 18 17 18 18 18 18 17 17 18 18 18 17 17 18 17 18 18 18 18 18 17 18 18 18
21 20 21 23 25 25 24 19 19 21 23 25 26 25 22 23 23 22 21 22 22 21 19 19 19 18 18 18 18 18 18 17 18 18 18 18 18 17 17 17 17 17 17 18 18 17 17 18 18
21 20 22 24 25 23 22 19 19 23 22 26 26 24 22 23 23 22 22 23 22 20 18 17 19 18 18 18 18 18 18 18 17 18 17 17 17 17 17 17 17 17 17 18 17 17 17 18 18
20 24 23 24 23 23 20 17 17 21 23 25 24 22 22 22 22 22 23 23 22 21 20 17 18 18 18 17 17 17 18 18 17 17 17 17 17 17 17 17 17 17 18 18 17 18 18 18 18
23 24 24 26 22 22 22 18 20 23 24 25 24 24 22 22 22 23 23 23 22 21 20 18 17 18 18 18 17 17 18 18 17 17 17 18 17 18 17 17 17 17 17 17 17 18 18 18 18
25 25 26 28 25 22 22 22 22 24 24 24 25 24 23 22 22 23 23 23 23 21 20 20 19 18 17 16 17 18 18 18 18 18 18 18 18 17 17 17 17 17 17 18 18 18 18 18 18
25 23 26 26 27 24 22 24 24 23 25 25 25 24 23 22 23 23 23 23 22 21 22 21 21 19 17 17 18 18 18 18 18 18 18 17 18 17 16 17 17 17 18 18 18 19 19 19 19
26 23 27 29 28 23 24 24 25 25 25 25 25 25 22 22 23 23 23 23 23 21 22 22 20 19 18 18 18 18 17 18 18 18 19 17 18 18 17 18 18 18 18 18 18 18 18 18 19
27 25 28 28 28 25 23 21 21 25 27 26 25 24 22 23 23 23 24 23 23 23 23 21 20 19 18 19 20 20 19 19 18 18 18 19 18 18 18 19 18 18 18 18 18 19 18 19 21
26 28 28 29 28 27 25 24 24 24 23 25 25 23 22 23 24 24 24 24 23 23 22 22 20 18 19 20 20 20 20 19 18 18 18 19 20 19 19 18 19 18 19 19 19 19 18 19 20
28 29 29 28 29 29 27 27 25 21 22 23 24 23 23 24 24 24 24 24 23 22 22 21 20 19 19 19 20 19 20 19 19 18 18 18 19 19 19 19 19 19 19 20 20 18 19 19 19
28 29 30 30 30 28 28 27 25 23 23 24 24 24 24 24 24 24 24 24 23 22 22 21 19 18 18 19 19 19 18 20 19 19 18 18 19 19 19 19 19 19 19 19 19 18 19 19 20
29 29 30 31 30 28 28 26 26 25 24 24 24 24 24 24 24 24 24 23 22 21 20 20 20 19 18 17 18 19 19 20 20 18 18 18 18 18 19 19 18 19 19 19 19 19 20 20 20
29 30 31 32 31 29 28 25 27 25 24 24 24 24 24 24 24 23 23 23 22 21 20 20 21 20 19 18 18 19 18 19 18 19 19 18 18 18 19 19 20 19 19 19 19 19 20 20 20
29 30 31 31 31 31 29 26 27 25 24 24 24 25 24 24 24 23 23 23 22 21 20 20 20 20 19 18 19 19 19 18 18 19 18 18 18 18 19 19 19 19 20 20 20 20 20 20 20
30 30 32 31 31 31 29 21 27 25 22 23 23 23 24 24 24 23 23 23 22 21 20 19 20 19 18 18 18 19 19 18 19 18 18 19 18 18 18 19 19 19 20 20 19 20 20 20 20
32 31 32 32 32 32 31 27 28 26 25 24 21 19 23 23 24 23 23 22 22 21 20 19 19 18 18 18 19 20 19 19 19 19 18 19 18 19 18 19 19 20 20 19 19 20 20 21 21
31 32 32 32 31 32 31 31 29 28 27 25 21 19 23 23 24 23 23 22 21 21 20 19 19 18 18 19 20 21 20 20 20 19 19 18 18 18 18 18 19 20 19 19 19 19 20 21 21
30 31 32 31 30 31 32 31 29 29 28 25 22 22 22 23 23 23 23 22 21 21 20 19 18 18 18 19 19 19 20 20 19 19 20 19 19 18 18 19 19 20 20 20 19 20 20 21 21
29 31 32 31 30 29 31 30 30 30 29 25 22 23 24 23 23 24 23 22 20 22 20 19 18 18 18 18 19 19 19 20 20 20 20 19 18 18 18 18 18 19 19 20 20 20 20 21 22
30 31 31 31 30 32 31 31 25 30 28 26 24 25 25 24 24 23 22 22 21 22 21 19 18 18 18 18 19 19 20 21 21 20 19 19 18 18 18 18 18 18 20 20 19 19 20 21 21
30 29 29 30 30 29 31 31 28 29 24 27 26 23 24 25 24 23 23 22 22 23 22 20 18 18 18 18 19 18 19 20 21 20 19 20 19 19 18 18 18 18 18 19 19 19 20 19 20
29 28 27 27 28 29 32 31 28 28 28 29 27 25 25 25 25 23 23 23 22 23 23 22 19 18 18 18 18 18 18 19 20 19 20 20 20 20 19 18 18 19 19 18 18 18 19 20 20
28 29 29 26 28 30 32 30 27 28 27 26 27 27 26 26 24 24 24 22 23 23 23 22 20 19 18 19 18 18 18 19 19 20 20 21 20 19 21 20 18 18 18 18 18 19 19 19 19
28 27 31 31 32 31 31 27 27 27 26 22 22 27 27 27 26 25 24 24 23 22 23 23 22 20 19 19 18 18 18 19 20 20 20 20 20 20 19 19 18 19 19 18 18 18 20 19 19
27 29 28 30 28 29 30 27 28 26 24 22 20 20 19 19 18 21 22 24 23 23 23 23 22 20 20 20 19 19 19 18 20 19 19 20 20 20 19 19 19 19 19 18 18 19 19 19 19
27 27 29 30 30 30 29 26 26 23 22 21 16 16 16 13 13 15 18 20 21 21 23 23 22 21 20 20 20 20 19 19 18 19 19 19 19 19 19 19 19 19 19 18 18 19 20 19 19
26 28 28 28 27 30 30 23 24 21 19 16 14 13 13 12 10 10 15 18 20 19 19 19 23 23 22 21 20 20 20 20 20 19 19 18 18 19 19 19 19 19 19 19 19 18 20 19 19

GFSSGP_850_temp_078.txt.gz
Temp
20 21 20 20 22 24 21 22 21 24 29 29 29 27 26 26 26 22 21 19 19 17 19 18 18 18 19 19 19 18 18 18 18 18 18 18 18 18 18 18 18 18 18 18 18 18 18 18 19
19 21 21 22 22 22 20 21 20 21 25 29 27 26 26 25 23 22 21 19 19 17 17 19 19 18 19 19 18 18 18 18 18 18 18 18 17 17 18 18 18 18 18 18 18 18 18 18 18
20 21 21 22 26 21 21 21 20 22 25 28 26 25 25 24 23 22 21 21 20 19 18 20 19 18 19 18 17 18 18 18 17 17 17 17 18 18 18 17 17 17 18 18 18 18 18 18 18
20 21 21 21 24 23 23 20 19 23 26 24 26 25 25 25 23 22 22 22 21 19 19 19 19 18 18 18 18 18 18 18 18 17 17 17 17 17 18 17 17 17 18 18 18 18 18 18 18
21 21 21 23 23 23 22 18 18 24 25 23 25 25 25 24 23 23 23 22 20 18 19 19 18 18 18 18 18 18 18 18 18 18 17 17 17 17 17 17 17 18 18 18 18 18 18 18 18
21 21 22 23 22 22 20 18 20 23 22 24 25 25 24 23 23 24 23 22 21 19 17 19 18 18 18 18 18 18 18 18 18 18 18 17 17 17 17 17 18 18 18 18 18 18 19 19 19
22 22 23 23 23 22 20 19 23 25 25 25 24 25 24 24 24 23 22 22 21 20 18 17 18 18 18 18 18 18 18 18 18 18 18 18 17 17 17 17 18 18 18 18 18 19 19 19 19
24 22 23 24 25 22 21 22 22 25 23 25 25 24 24 24 24 24 23 22 21 20 19 18 18 18 18 18 18 18 18 19 18 18 18 18 18 17 17 17 18 18 19 19 19 19 19 19 19
25 24 25 25 26 24 22 24 24 24 24 23 25 25 24 24 25 24 23 20 21 21 20 20 19 18 18 19 19 19 19 18 18 18 17 17 18 17 17 18 18 18 19 19 20 19 19 19 19
22 23 27 28 26 24 24 25 25 25 25 25 24 25 24 25 25 24 23 22 22 21 22 21 19 19 18 19 19 19 18 18 18 17 17 18 18 18 18 18 18 18 19 18 18 19 19 19 20
18 24 28 28 27 26 26 25 24 22 24 25 25 24 24 25 25 25 25 23 23 22 21 20 20 19 19 20 19 19 19 18 18 18 18 19 19 19 19 19 19 19 18 18 18 19 18 19 19
26 28 30 29 27 26 25 24 26 22 23 25 25 24 25 25 25 25 25 25 24 23 22 20 19 19 20 20 19 20 19 19 19 19 19 18 19 18 18 18 18 19 19 19 18 19 19 20 20
21 25 29 30 28 26 25 26 24 22 23 25 25 24 25 25 25 26 25 25 24 23 21 21 21 19 20 19 20 19 20 19 19 18 19 18 19 19 18 18 19 18 18 19 18 19 20 20 19
29 25 30 31 30 30 28 24 24 20 23 25 25 24 25 25 25 25 25 24 24 23 21 20 21 20 19 19 20 19 19 19 19 19 18 18 19 19 19 19 19 19 18 19 19 19 19 19 20
30 28 31 32 31 30 27 26 25 22 24 25 25 25 25 25 25 25 25 24 23 23 22 20 20 19 19 19 19 19 19 19 19 19 18 18 19 18 19 19 19 19 19 19 19 19 20 20 20
31 31 30 32 33 30 28 24 26 25 25 26 25 25 25 25 25 24 24 24 23 22 21 21 20 19 18 19 19 19 19 18 19 19 19 19 19 18 20 18 19 20 20 19 19 19 20 20 20
30 29 30 29 33 31 30 24 25 25 26 26 26 26 25 25 24 24 24 23 22 21 21 21 21 20 19 19 19 19 19 19 18 18 18 18 18 19 18 19 20 19 19 19 20 20 20 20 20
29 29 31 28 32 32 27 20 18 26 26 26 26 25 25 25 23 24 23 24 22 21 20 20 20 20 19 19 19 19 19 18 19 18 18 18 18 20 19 19 20 20 19 20 20 20 20 20 20
31 32 31 30 30 32 27 22 22 26 26 25 25 24 25 25 23 24 23 23 22 21 20 20 20 20 19 19 19 19 19 19 19 19 18 18 19 19 19 19 20 18 19 20 20 20 21 21 21
31 32 32 28 29 28 25 23 23 25 26 25 25 22 23 24 24 23 23 23 22 21 20 20 19 19 19 19 20 20 20 19 19 19 18 18 19 20 19 20 20 19 18 20 20 20 20 21 21
31 31 32 29 24 28 28 25 22 26 26 26 24 22 22 23 23 23 23 22 21 21 20 19 19 19 19 19 20 19 20 19 19 19 18 19 19 19 18 19 19 20 19 20 21 20 20 21 21
30 32 33 30 30 30 32 29 29 28 25 25 23 23 22 23 23 23 23 22 21 21 20 19 19 19 19 19 20 20 20 19 20 20 19 19 19 19 19 19 20 19 19 20 20 20 21 21 21
30 32 32 30 31 31 31 30 29 27 24 25 24 23 23 23 23 23 24 23 21 21 21 20 19 18 19 19 19 20 20 20 20 20 19 19 19 19 19 19 19 19 19 19 20 20 20 20 21
31 31 31 31 30 29 31 31 27 24 20 21 25 24 24 25 24 24 23 23 22 21 21 20 19 18 19 20 19 19 19 19 19 19 20 20 19 19 20 18 19 19 19 18 20 20 21 20 21
30 30 28 27 28 29 32 31 28 22 19 18 27 25 22 22 24 24 24 22 22 21 21 20 19 19 19 20 19 20 19 18 18 19 20 20 20 20 20 19 19 19 19 19 19 20 20 20 21
29 30 28 26 27 29 31 30 27 26 20 18 28 27 26 24 23 23 23 23 22 22 22 21 21 20 19 20 20 20 20 20 19 20 19 20 20 20 19 19 20 20 19 19 19 19 20 20 21
29 29 31 30 31 30 30 27 28 27 26 25 24 22 18 17 18 19 22 22 22 22 22 21 22 21 21 20 20 20 21 21 20 20 21 20 20 19 20 18 20 20 19 19 19 19 19 20 20
28 30 28 29 26 27 28 27 26 26 24 23 21 19 16 14 16 18 19 21 22 21 22 22 22 22 22 20 20 20 20 20 20 20 20 20 19 19 19 18 18 19 19 19 19 19 20 19 19
28 26 27 29 30 28 26 23 28 25 23 20 19 16 12 12 13 17 20 18 18 20 22 20 21 22 21 20 19 20 20 20 21 21 21 21 20 20 19 20 20 18 19 19 19 19 18 19 20
29 28 28 28 27 29 21 19 24 22 20 17 16 15 12 10 11 13 15 16 17 19 18 18 19 19 22 20 20 20 20 20 20 20 20 20 21 20 19 20 19 18 19 19 19 19 19 19 19

GFSSGP_850_temp_081.txt.gz
Temp
21 21 20 19 19 19 19 20 19 22 22 26 25 25 25 25 24 19 18 18 19 19 18 18 18 18 19 19 18 18 18 19 18 18 18 18 18 18 18 18 18 18 18 18 18 19 19 18 18
20 19 19 21 19 20 19 21 21 21 24 25 25 23 22 21 20 19 18 18 19 19 19 19 18 19 18 18 18 18 18 18 18 18 17 17 18 18 18 18 18 18 18 18 18 19 18 18 17
20 20 21 20 20 19 19 21 21 22 25 25 25 24 22 20 20 19 18 19 19 19 19 19 19 19 19 18 18 18 18 18 18 18 18 18 17 18 18 18 18 18 18 18 18 19 18 18 17
20 21 21 20 21 20 22 20 19 22 23 24 24 23 22 22 21 19 19 19 19 19 19 19 19 19 18 19 18 18 18 18 18 17 17 17 17 17 17 18 18 18 18 18 19 19 19 18 17
20 21 19 21 21 21 20 18 18 21 19 24 24 22 22 22 21 20 19 19 20 20 19 19 19 19 19 18 18 18 18 18 18 17 17 17 17 17 18 17 18 18 18 18 19 18 18 18 18
21 21 21 21 21 20 19 19 20 22 23 25 23 22 22 22 21 21 20 20 20 20 19 19 18 19 18 18 18 18 18 18 18 17 17 17 17 17 17 18 18 18 18 18 19 19 18 18 18
20 19 21 22 21 21 20 19 21 23 24 24 23 22 22 22 22 21 21 20 20 21 20 19 19 19 18 19 19 19 18 18 18 18 17 17 17 18 18 18 19 18 19 19 19 19 19 18 18
22 19 22 23 22 20 21 20 21 23 24 24 23 22 22 22 21 21 21 20 20 20 20 19 20 19 19 19 19 19 18 18 18 18 18 18 17 18 19 19 19 19 19 19 19 20 19 19 19
23 19 23 23 22 21 21 22 21 21 23 24 24 23 23 23 21 21 20 20 20 20 20 20 20 19 19 20 19 18 18 18 17 18 17 17 18 18 18 19 19 19 19 19 19 19 19 19 19
18 18 23 24 24 22 21 23 21 18 22 24 24 24 24 21 21 21 21 20 20 19 18 19 19 20 20 19 19 18 18 17 18 19 18 18 18 18 19 19 18 18 19 19 19 19 19 19 19
17 19 24 25 24 23 23 24 21 21 22 24 24 24 24 22 23 22 22 22 21 19 19 19 20 20 20 19 19 19 18 18 18 18 18 18 17 18 19 19 19 19 19 18 19 19 19 19 20
21 21 23 25 25 25 25 22 19 20 23 25 24 24 24 23 22 22 23 22 21 20 20 20 20 20 19 19 19 19 19 19 18 18 18 18 18 19 18 18 18 19 19 19 19 20 19 19 20
21 24 26 27 26 25 24 23 21 21 23 24 24 24 25 25 24 23 23 22 21 21 21 20 20 19 19 19 19 19 19 19 18 18 18 17 19 19 19 18 18 18 19 19 19 19 19 20 20
23 24 25 25 26 26 24 23 23 23 24 24 24 24 25 25 25 25 24 22 21 22 21 20 20 19 20 19 19 19 19 19 19 19 19 18 18 19 19 18 19 19 19 19 19 20 19 20 20
23 24 24 26 26 24 23 21 23 24 24 24 24 24 25 25 25 24 23 22 22 21 21 20 20 19 20 19 20 19 19 19 19 19 19 19 18 18 19 19 18 19 19 19 19 19 19 20 20
26 24 23 29 29 26 26 22 19 23 23 24 24 24 25 25 25 24 24 23 21 21 21 21 20 20 19 19 20 19 19 19 18 18 19 19 19 19 19 19 19 19 19 19 20 19 19 20 20
26 24 26 26 29 27 26 21 19 22 23 23 24 25 25 25 25 24 23 23 22 21 22 21 20 20 19 19 19 19 19 19 19 19 19 18 19 19 19 19 19 19 19 19 19 19 19 20 20
24 25 26 26 29 27 20 18 18 20 21 24 24 25 25 25 24 24 23 23 22 22 21 20 20 20 20 19 19 19 19 19 19 19 19 19 19 19 19 19 19 19 19 20 20 20 20 20 20
27 27 27 29 27 22 20 18 20 20 20 24 25 25 25 24 24 24 23 23 22 22 21 20 20 20 20 19 19 19 19 19 19 19 19 19 19 18 19 19 19 19 19 20 20 20 20 20 20
27 26 27 28 26 22 20 19 19 21 20 25 25 24 24 24 24 23 23 22 22 21 21 20 20 20 20 20 19 19 19 19 19 18 19 19 19 19 19 18 19 20 19 19 20 20 20 20 21
26 25 26 25 25 24 23 21 19 19 23 25 24 24 24 23 23 23 23 22 22 21 21 20 19 19 20 20 19 19 19 19 19 19 19 19 19 19 19 19 19 19 19 19 20 20 20 21 21
24 27 29 26 24 22 23 20 20 22 23 23 24 24 24 23 23 23 23 22 21 21 21 21 20 19 19 20 19 19 19 20 20 19 19 19 19 19 19 19 19 19 19 20 19 20 20 21 21
26 28 29 27 24 25 22 23 21 22 22 21 23 22 23 23 23 23 23 22 22 21 21 21 20 19 19 19 18 19 20 19 19 20 19 19 19 19 19 19 18 19 19 20 20 20 20 21 21
29 28 27 26 25 24 25 25 22 21 22 22 18 21 22 23 23 22 22 23 22 21 21 21 20 19 19 19 19 19 20 20 19 19 19 19 19 19 19 19 18 19 19 20 20 20 20 20 21
27 25 21 23 22 24 25 26 21 20 20 19 18 19 22 23 23 23 23 22 22 21 20 20 20 19 19 19 19 19 19 20 20 20 20 19 20 19 20 19 18 19 20 19 19 19 20 20 21
24 24 21 23 22 23 26 21 20 22 21 20 21 22 22 23 22 23 23 22 22 21 20 21 20 20 20 19 19 19 19 20 20 20 20 20 19 19 20 19 19 19 19 19 19 19 20 20 21
25 24 25 25 24 24 22 21 21 20 19 19 17 17 15 18 20 21 22 22 21 22 21 21 21 21 20 20 20 20 19 19 20 20 20 20 20 19 19 19 19 19 19 19 19 19 20 20 21
24 26 24 22 23 24 22 21 19 18 19 16 14 13 13 14 16 19 18 19 20 20 20 21 21 21 21 21 20 20 20 20 20 19 20 20 20 20 20 20 20 19 19 19 19 19 19 20 20
24 23 24 23 23 21 20 18 18 18 17 14 13 11 11 13 14 16 17 18 20 18 19 19 19 19 20 21 21 20 20 20 20 19 20 19 20 20 20 21 20 20 19 19 19 19 19 19 20
25 24 22 20 22 19 19 17 18 16 16 14 13 11 10 10 12 14 16 18 19 17 18 19 17 19 19 19 19 20 21 20 20 20 21 20 20 19 20 20 20 20 19 19 19 19 19 19 19

GFSSGP_850_temp_084.txt.gz
Temp
19 19 19 18 18 18 19 19 19 21 22 24 23 24 23 23 22 19 19 19 19 19 18 18 18 19 19 19 18 18 18 18 18 18 18 18 17 18 18 18 18 18 18 19 18 18 17 17 17
19 19 19 19 19 19 19 21 19 20 24 22 23 23 21 19 18 17 18 19 19 19 19 18 19 19 18 18 18 18 18 18 17 17 17 18 17 17 17 18 18 18 18 18 18 18 17 17 17
19 19 19 18 19 18 18 20 20 19 24 23 22 22 20 18 17 17 19 19 19 19 18 19 19 19 18 18 18 18 18 18 18 18 17 18 17 17 18 18 18 18 18 18 18 18 18 17 17
19 19 20 19 20 18 19 21 19 21 23 24 22 20 19 19 18 19 19 19 19 19 19 19 19 19 18 18 18 18 18 18 18 18 17 18 17 17 18 18 18 18 18 18 18 18 18 17 17
20 20 19 20 20 20 19 19 18 21 22 23 22 21 20 20 19 18 19 19 20 19 19 19 19 19 19 18 19 18 18 17 17 17 18 17 17 17 18 18 18 19 19 19 19 18 17 17 17
19 20 19 20 20 19 19 19 18 22 22 21 21 20 19 20 19 20 20 20 20 20 19 19 19 19 19 18 18 18 18 17 18 17 17 17 17 17 18 18 18 18 19 18 18 18 17 16 17
20 19 20 21 20 20 20 19 20 22 22 22 21 20 19 18 19 21 20 20 20 20 20 19 19 19 19 18 18 18 18 18 17 17 17 17 18 18 18 18 18 18 19 18 18 18 18 18 18
21 19 22 22 21 20 20 20 22 23 23 22 21 20 19 19 19 20 20 19 20 20 20 20 19 19 19 19 18 18 18 19 18 17 18 18 18 18 18 18 18 19 19 18 18 18 18 18 18
21 19 21 21 21 20 20 21 22 22 22 22 23 21 20 19 20 19 19 19 19 19 20 20 19 20 19 19 18 18 18 18 18 18 17 18 18 18 18 19 19 19 19 19 19 19 18 18 18
19 18 21 22 22 21 20 20 20 22 23 23 22 21 20 20 20 20 19 20 19 19 19 19 20 20 19 19 18 19 18 18 18 18 18 18 18 18 19 19 19 19 19 19 19 18 18 18 18
17 20 22 23 23 22 21 20 21 20 19 23 22 20 20 20 21 20 20 20 20 19 19 20 20 19 19 19 19 19 18 18 18 18 18 18 18 18 18 18 18 19 19 19 19 18 18 18 18
20 20 21 23 23 23 22 19 18 20 22 23 22 21 21 21 20 20 20 20 20 19 19 20 19 19 19 19 19 19 18 18 17 18 19 19 19 18 18 18 18 18 19 19 19 20 20 19 19
21 23 21 24 24 24 22 21 21 19 23 24 22 21 21 21 21 21 20 20 20 20 20 19 19 19 19 19 19 19 19 18 18 18 19 19 19 19 19 19 19 19 19 19 19 19 19 19 20
23 24 19 22 24 24 21 21 21 20 23 23 23 22 21 22 21 21 21 20 20 20 20 19 19 19 19 19 19 19 19 18 18 18 19 18 18 18 19 19 19 19 19 19 19 19 19 19 19
26 24 22 24 23 22 21 21 22 22 22 23 24 23 22 22 22 22 22 21 21 20 20 19 19 19 19 19 19 19 19 18 18 18 18 18 18 18 18 19 19 19 19 19 19 19 19 20 20
23 23 23 24 24 22 23 20 22 22 24 24 24 24 24 23 22 22 22 21 21 20 20 20 20 19 19 19 19 19 19 19 19 19 18 18 18 19 19 19 19 19 19 19 19 19 19 20 20
23 21 23 24 25 23 21 18 18 22 22 23 24 24 24 23 22 23 22 22 21 21 20 20 20 19 19 19 19 19 19 19 19 19 19 18 18 19 18 18 18 19 19 19 19 19 19 20 19
22 23 25 25 24 23 19 19 18 20 22 23 24 24 24 23 22 23 22 22 21 21 21 21 20 19 20 19 19 19 19 19 19 19 19 19 18 19 19 18 19 19 19 19 19 19 20 20 20
23 24 25 25 23 20 19 18 19 20 20 22 24 24 24 23 22 23 22 22 21 21 21 21 20 20 20 19 19 19 19 19 19 19 19 19 19 19 18 19 19 19 19 19 19 19 20 20 20
23 23 24 25 24 21 19 20 20 20 19 21 23 23 24 24 23 22 22 21 22 21 21 21 20 20 20 19 19 19 19 19 19 19 19 19 18 19 18 19 19 19 19 19 19 20 20 20 21
22 22 24 23 22 21 20 20 19 20 20 20 23 24 23 23 22 23 22 22 22 21 21 21 20 20 20 20 19 19 18 19 19 19 19 18 18 19 18 19 19 19 19 19 19 20 20 21 21
20 23 26 23 22 20 22 19 19 19 20 20 21 23 23 24 23 22 22 22 22 22 21 21 20 20 19 19 19 19 19 19 19 19 19 19 18 18 18 18 19 19 19 19 19 19 20 21 21
23 25 26 25 22 21 21 20 19 19 20 19 20 22 23 23 23 22 22 22 22 22 21 21 20 20 19 19 19 19 19 19 19 19 19 19 19 19 18 18 19 19 19 19 19 20 20 20 21
26 27 25 22 21 20 22 21 19 20 21 21 20 22 22 22 22 22 22 22 22 22 21 21 21 21 20 19 19 19 19 19 19 20 19 19 19 19 18 19 19 19 19 19 19 20 20 20 20
25 20 19 20 20 20 21 21 22 21 21 21 20 23 22 22 22 22 21 22 22 21 21 21 21 20 20 19 18 19 19 19 19 19 20 19 19 19 19 19 19 19 19 19 19 20 20 20 20
23 20 18 22 20 22 24 21 19 18 22 21 20 20 21 22 22 22 22 22 22 21 21 21 21 21 20 19 19 19 19 19 19 20 20 19 19 19 19 19 19 19 19 19 19 20 20 20 20
24 22 21 22 21 22 18 19 18 17 15 15 15 14 15 18 20 21 21 21 21 21 21 21 21 21 20 20 19 19 19 19 20 20 20 19 19 20 19 19 19 20 19 19 19 19 20 20 20
23 23 22 18 22 22 18 17 17 16 14 13 13 13 14 15 16 18 20 20 21 20 20 20 21 21 21 20 20 19 19 20 20 20 20 19 19 20 20 19 19 19 20 19 19 19 19 20 20
21 21 19 18 18 19 18 17 17 15 13 12 11 11 13 14 15 16 17 18 20 20 18 20 19 20 19 19 19 19 20 20 20 20 20 19 19 20 20 19 19 20 20 19 19 19 19 19 20
23 22 19 19 21 17 16 16 16 13 12 11 11 11 12 13 14 15 15 16 17 16 17 18 17 18 19 18 19 19 19 19 19 19 19 19 20 20 20 20 20 20 19 19 19 19 19 19 20

GFSSGP_850_temp_090.txt.gz
Temp
20 19 19 18 18 18 19 19 19 19 20 20 20 21 20 19 19 18 18 19 18 18 18 18 18 19 19 18 17 17 18 18 17 17 17 17 17 18 17 17 18 17 17 17 18 17 17 17 17
19 19 18 18 18 19 19 19 20 20 22 22 21 21 20 17 17 17 18 18 18 19 18 18 19 18 18 18 18 17 17 17 17 17 17 18 18 18 18 18 17 17 17 17 17 17 18 17 17
19 18 18 18 17 19 19 18 19 20 22 21 20 20 19 16 17 17 19 18 18 18 18 19 18 18 17 18 17 17 17 17 17 17 17 18 18 18 18 17 18 17 17 17 17 17 17 17 17
19 18 18 18 18 19 19 19 19 20 22 21 20 18 17 17 18 19 19 19 18 18 19 18 18 18 18 17 17 17 17 17 17 17 17 18 18 18 18 18 17 17 17 17 17 17 17 17 17
18 18 18 19 18 19 18 18 18 18 21 21 20 18 17 17 18 19 19 19 19 19 18 18 18 18 18 17 17 17 17 17 17 17 17 17 18 17 18 17 17 17 17 17 17 18 18 17 17
18 18 19 19 20 19 18 18 18 18 20 19 18 18 16 18 19 19 19 19 19 19 18 17 17 17 17 17 17 17 17 17 17 17 17 17 17 18 18 17 17 18 18 18 18 17 17 17 17
18 19 20 20 19 19 19 18 18 20 20 19 19 17 16 17 18 19 19 19 19 19 19 17 17 17 17 17 17 17 17 17 17 17 17 17 17 18 17 17 17 18 18 18 18 17 17 17 17
19 19 20 20 20 19 18 19 21 21 20 19 19 17 16 17 18 18 18 19 19 19 18 18 18 18 18 17 17 17 17 17 17 17 17 17 17 18 18 18 17 18 18 17 17 17 17 17 17
19 19 20 20 20 20 19 20 21 20 20 21 19 18 17 18 18 18 18 19 19 18 18 18 18 18 18 18 17 17 17 17 17 17 17 18 17 17 17 17 18 18 18 17 17 17 17 17 17
19 17 20 22 21 20 20 21 21 20 20 18 17 18 18 19 19 19 19 19 19 19 18 18 18 18 18 18 17 18 17 17 17 17 18 18 18 18 18 18 18 18 18 17 17 17 18 18 17
18 19 21 21 22 21 20 20 21 20 19 19 17 18 18 18 18 19 19 20 20 19 19 19 18 18 18 17 17 17 17 17 17 18 18 18 18 18 18 18 18 18 18 18 18 18 18 18 18
19 20 21 21 21 21 21 20 21 21 20 21 21 20 19 19 19 19 19 20 19 19 19 19 18 18 18 17 17 18 18 18 18 18 19 18 18 18 18 18 18 18 18 17 18 18 19 18 19
19 20 22 21 22 21 20 20 21 20 21 20 20 20 19 19 19 19 19 19 19 19 19 19 18 18 18 18 18 18 18 18 18 18 18 18 18 18 18 18 18 18 18 18 18 18 19 19 19
21 20 22 21 21 20 21 20 19 20 19 20 20 19 19 19 19 20 20 20 19 19 19 19 19 18 18 18 18 18 18 18 18 18 18 18 18 18 18 18 18 18 18 18 18 18 19 19 19
21 20 22 22 21 21 21 19 21 21 19 19 19 19 19 19 19 20 20 20 20 19 19 18 18 19 18 18 18 18 18 18 18 18 18 18 18 18 18 18 18 19 19 18 18 19 19 19 18
20 19 20 21 21 21 21 19 20 20 18 19 18 18 18 19 20 20 20 20 20 20 19 18 18 19 18 18 18 18 18 18 18 18 18 18 18 18 18 18 18 19 19 18 18 19 18 19 19
17 19 20 21 22 21 20 20 20 19 20 19 19 19 19 18 19 20 20 20 20 19 19 19 18 19 19 18 18 18 18 18 18 18 18 18 18 18 18 18 18 18 19 19 19 19 19 19 19
18 18 19 20 20 19 20 19 20 20 20 20 19 19 20 19 20 21 21 20 20 19 19 19 19 19 19 19 18 18 18 18 18 18 18 18 18 18 18 18 19 19 19 19 19 19 19 19 20
19 19 19 23 21 20 20 18 19 19 20 20 20 20 20 20 21 21 21 21 20 20 19 19 19 18 18 19 19 18 18 18 18 18 18 18 18 18 18 19 19 19 19 19 19 19 19 20 20
21 22 20 19 21 19 17 18 19 19 19 21 21 21 21 21 20 21 21 21 20 20 20 19 19 19 19 19 19 19 19 18 18 18 18 18 18 18 18 18 18 18 19 19 19 19 20 19 20
20 21 22 20 18 18 19 18 19 19 19 20 21 22 22 22 21 20 21 21 21 20 20 20 19 19 19 18 19 19 19 19 18 18 18 18 18 18 18 19 18 19 19 19 19 19 20 20 20
20 20 23 19 20 20 19 19 18 19 18 18 20 21 22 22 22 21 21 21 21 21 20 20 19 19 19 19 19 19 19 19 19 18 18 18 18 18 18 19 18 18 19 19 19 19 20 20 20
21 21 23 20 18 18 18 19 20 18 18 18 19 20 21 21 22 22 22 22 21 21 20 20 20 19 19 19 19 19 19 19 19 19 18 18 18 18 18 18 19 18 19 19 19 19 19 20 20
21 22 18 17 17 18 18 20 19 17 19 20 20 20 20 21 22 22 22 22 21 20 20 20 20 19 19 19 19 19 19 19 19 19 19 19 18 18 18 18 18 18 18 19 19 19 19 19 20
20 18 18 17 17 17 17 19 20 16 16 18 20 20 20 20 21 21 21 21 21 20 20 20 20 20 19 19 19 19 19 19 19 19 19 19 19 19 19 18 18 18 18 18 19 19 19 19 19
18 18 16 19 17 19 17 19 19 15 15 18 20 20 19 19 20 20 20 21 21 20 20 20 20 20 20 19 19 19 19 19 19 19 19 19 19 19 18 18 18 18 18 18 19 19 19 19 19
19 18 18 16 16 17 16 17 16 16 15 15 15 17 17 18 18 19 20 20 19 20 20 20 20 20 20 20 19 19 19 19 19 19 19 19 19 19 19 18 18 18 18 18 18 18 19 19 19
20 19 19 15 18 19 16 16 17 16 15 15 14 14 14 16 18 18 18 19 19 19 19 19 20 20 19 19 19 18 18 18 18 19 19 19 19 19 19 19 19 18 18 18 18 19 19 19 19
20 18 15 15 15 16 16 17 15 15 15 14 13 13 14 14 15 17 18 18 18 18 19 18 19 19 19 17 18 18 18 18 18 18 18 19 19 19 19 19 19 19 18 18 18 18 18 18 18
19 18 15 16 17 13 15 17 13 13 12 13 12 13 14 15 15 15 16 16 17 17 18 18 18 18 18 17 18 18 18 18 18 18 18 18 18 18 19 19 19 19 19 18 18 19 18 18 18

GFSSGP_850_temp_093.txt.gz
Temp
19 19 19 19 20 22 21 21 21 21 21 21 20 22 22 20 21 22 18 18 18 19 18 18 18 18 18 18 17 18 18 17 17 17 18 18 18 18 17 17 17 17 18 18 18 17 17 17 17
19 19 19 19 21 22 21 21 21 22 22 21 21 21 21 20 17 17 18 18 18 19 18 18 19 18 18 18 18 18 18 17 17 18 18 18 18 18 17 17 17 18 18 18 18 18 18 18 18
19 19 19 19 18 22 21 21 21 21 21 21 21 20 19 17 17 16 18 18 18 18 19 19 18 18 18 17 17 17 17 18 17 18 18 18 18 17 17 18 18 18 18 18 18 17 17 17 17
19 19 18 18 20 20 21 21 21 22 22 20 21 20 17 16 17 18 18 18 18 18 18 18 18 18 17 17 17 17 17 17 17 17 18 17 17 17 17 18 18 18 18 17 17 17 17 17 17
19 19 17 19 20 21 21 20 21 23 22 21 20 19 17 16 18 18 18 18 18 19 17 17 18 18 17 17 17 17 17 17 17 17 17 18 17 17 17 18 18 18 18 18 17 17 17 17 17
18 18 19 19 20 20 19 19 20 21 22 20 20 19 17 16 17 17 17 18 18 18 17 17 18 17 18 17 17 17 17 17 17 17 18 17 18 18 17 17 17 18 17 17 17 18 17 17 18
18 19 20 20 20 19 20 19 21 21 21 21 19 20 16 16 16 17 16 18 19 18 17 17 17 17 17 17 17 17 17 17 17 17 18 17 17 17 17 17 18 17 18 18 18 17 17 17 17
19 20 20 21 20 21 20 18 21 22 21 19 20 20 17 16 17 17 17 18 18 18 17 17 17 17 17 17 17 17 17 17 17 17 17 18 17 17 17 17 18 18 18 18 18 18 17 17 17
19 19 20 21 21 21 20 22 21 20 21 20 19 19 18 16 16 16 17 18 18 18 17 17 18 17 17 17 16 16 17 17 17 17 18 17 17 17 17 17 18 18 18 17 17 18 18 17 17
20 21 21 23 24 21 21 22 21 21 20 18 18 17 16 16 16 16 17 18 18 18 17 17 18 17 17 16 16 17 17 17 17 18 18 18 18 17 17 18 18 18 18 18 18 17 18 18 17
20 21 22 23 23 22 22 21 21 21 22 20 18 17 16 16 16 17 17 19 19 19 18 18 18 18 17 17 17 17 17 18 18 18 18 18 18 18 18 18 18 18 18 18 18 18 18 18 18
21 21 22 23 22 21 21 21 21 22 21 20 18 18 17 17 17 17 17 19 19 19 18 19 18 18 17 17 17 17 17 18 18 18 18 18 18 18 18 18 18 18 18 18 19 19 19 19 19
21 22 22 22 22 21 20 22 21 20 19 18 18 18 18 18 18 18 19 19 19 19 19 19 18 18 18 18 17 17 18 18 18 18 18 18 18 18 18 18 18 18 18 19 19 19 19 19 19
21 22 22 22 21 21 21 21 21 19 19 19 18 18 18 18 18 19 19 19 19 19 19 18 18 18 18 18 18 18 18 18 18 18 18 18 18 18 18 18 18 18 18 18 19 19 19 19 19
22 23 23 23 22 21 20 20 19 19 19 19 19 19 18 18 18 18 20 19 19 19 19 18 18 18 18 18 18 18 18 18 18 18 18 18 18 18 18 18 18 18 18 18 18 19 19 19 19
22 24 23 23 22 18 20 21 20 19 19 20 19 19 18 18 19 19 20 19 19 19 19 19 18 18 18 18 18 18 18 18 18 18 18 18 18 18 18 18 18 18 19 19 19 19 19 19 19
20 23 22 22 22 19 19 18 20 19 20 21 20 19 19 19 18 19 20 19 19 19 19 18 18 18 18 18 18 18 18 18 18 18 18 18 18 18 18 18 18 19 19 19 19 19 19 19 19
21 23 23 23 22 21 20 19 18 16 19 21 20 20 20 19 19 20 20 20 19 19 19 18 18 18 18 18 18 18 18 18 18 18 18 18 18 18 18 18 18 18 19 19 19 19 20 20 20
23 23 22 24 23 22 21 20 19 18 20 20 21 20 20 19 20 20 20 20 20 19 19 19 18 18 18 18 18 18 18 18 18 18 18 18 18 18 18 18 18 18 19 19 19 19 20 20 20
24 24 24 22 23 21 20 19 18 20 20 21 21 21 20 20 20 19 20 20 20 20 19 19 19 19 19 18 18 18 19 18 18 18 18 18 18 18 18 19 19 18 19 19 19 19 20 20 20
24 25 23 24 19 19 18 18 19 20 20 21 21 21 21 21 20 19 19 21 21 20 20 20 19 19 19 18 18 18 18 18 18 18 18 18 18 18 18 19 19 19 19 19 19 19 20 20 20
24 24 25 22 23 21 21 19 19 21 20 20 21 22 22 22 21 20 20 21 21 21 20 20 19 19 19 18 18 18 19 19 19 19 18 18 18 18 18 18 19 19 19 19 19 19 20 20 20
25 24 25 23 22 23 21 19 22 21 21 20 21 22 22 22 21 21 20 22 22 21 21 20 19 19 19 18 18 18 18 19 19 19 19 19 18 18 18 18 19 19 19 19 19 19 19 20 20
24 23 23 23 24 23 24 24 23 21 22 23 21 21 21 21 21 21 23 22 22 21 21 20 20 19 19 18 18 18 18 18 19 19 19 19 19 18 18 18 18 18 19 19 19 19 19 19 20
24 24 22 23 23 24 22 23 26 22 20 21 22 21 20 20 21 20 21 22 21 21 21 21 20 20 19 19 19 18 19 18 18 18 19 19 19 19 19 18 18 18 18 19 19 19 19 19 20
23 25 23 23 23 24 21 24 25 19 17 17 19 22 21 20 20 20 20 21 22 21 20 20 20 20 19 19 19 18 19 18 18 18 19 19 19 18 18 18 18 18 18 18 19 19 19 19 19
22 23 26 24 22 25 24 23 19 18 17 18 20 21 20 20 20 19 19 19 21 20 19 19 20 20 19 19 19 19 18 19 19 19 19 19 19 19 19 18 18 18 18 18 18 19 19 19 19
24 25 24 23 23 24 22 22 25 19 17 16 17 16 16 17 17 19 19 18 19 20 19 19 18 19 19 19 19 18 17 18 18 18 18 18 19 19 18 19 19 18 19 18 18 19 19 19 19
23 24 22 25 24 25 24 24 19 21 18 16 14 14 14 15 15 16 18 19 19 19 18 18 18 18 18 19 18 18 17 17 17 18 18 18 18 18 18 19 19 19 18 18 18 18 18 18 19
22 22 24 25 22 22 25 25 16 18 18 16 15 14 14 15 15 15 17 18 18 18 18 19 18 17 18 18 18 18 18 17 17 18 18 18 18 18 18 19 19 19 18 18 18 18 18 18 18

GFSSGP_850_temp_099.txt.gz
Temp
21 20 21 23 22 26 28 27 28 28 28 29 28 29 28 25 27 24 22 22 21 20 17 17 18 18 18 17 18 18 18 18 18 18 18 18 18 18 18 18 17 18 18 17 17 17 18 18 17
21 21 22 25 23 28 27 28 27 28 27 27 27 26 26 26 24 23 22 21 20 20 19 18 18 18 18 18 18 18 18 18 18 18 18 18 18 18 18 18 17 17 18 18 18 18 18 17 17
20 21 23 21 22 26 27 28 28 27 26 28 26 25 25 24 23 23 22 20 20 19 20 18 18 17 18 18 18 18 18 18 18 18 18 18 18 18 18 18 18 17 17 17 17 17 17 17 17
22 22 21 23 23 28 28 28 27 27 26 27 26 25 24 23 24 22 21 19 20 20 18 18 18 17 17 17 18 18 18 18 18 18 18 18 18 18 17 18 17 17 17 17 17 17 17 17 18
21 22 24 22 26 28 29 28 27 27 26 25 25 25 23 23 23 22 20 20 22 20 19 16 17 17 17 17 17 18 18 18 18 18 18 18 18 18 18 17 17 18 17 18 17 17 18 18 18
22 21 26 25 26 27 28 27 27 27 25 26 25 24 23 23 21 22 21 22 22 21 19 17 17 18 17 17 17 17 17 18 18 18 18 18 18 18 18 18 18 18 18 17 18 18 18 18 18
23 20 24 26 26 27 28 27 27 27 27 26 26 25 23 22 22 23 23 23 23 21 19 19 17 18 18 17 17 17 17 18 18 18 18 18 18 18 18 18 18 18 18 18 18 18 18 18 18
23 18 23 23 28 27 28 28 28 28 27 27 25 25 24 22 22 23 22 23 22 21 21 20 18 17 17 16 17 17 18 18 18 18 18 18 18 18 18 18 18 18 18 18 18 18 19 19 19
23 21 22 23 28 28 27 28 27 26 26 26 26 25 24 23 23 23 22 22 22 21 22 20 19 18 18 17 17 18 18 18 18 18 17 17 18 17 17 18 19 19 18 18 18 18 19 19 19
25 24 23 26 30 28 27 28 26 27 26 26 26 24 23 23 23 23 23 22 23 22 22 21 20 18 18 19 17 17 18 17 18 18 17 17 18 18 18 19 19 19 19 18 18 18 19 18 19
25 24 26 28 29 28 27 27 27 26 27 27 25 24 23 23 24 23 23 23 23 22 21 20 19 19 20 18 19 18 18 19 18 18 18 18 18 18 18 19 19 19 19 18 19 19 19 19 20
26 26 26 28 27 28 28 27 28 28 28 27 24 24 23 24 24 24 24 24 22 21 21 20 18 19 19 19 20 19 20 20 18 18 18 18 19 19 19 19 19 19 20 20 20 19 19 19 20
27 26 26 27 28 28 27 28 28 27 26 26 24 24 24 24 24 24 24 23 22 21 21 20 18 18 19 20 20 20 20 20 18 19 19 20 19 19 19 20 20 20 20 20 20 20 20 20 20
25 26 26 26 27 25 28 28 27 26 26 25 24 24 24 25 25 24 23 23 22 21 21 19 19 18 18 19 19 19 20 20 20 19 19 19 19 18 19 19 20 20 20 20 20 20 21 21 21
25 25 25 24 26 24 26 27 26 26 26 25 25 25 25 25 24 24 23 22 22 21 20 19 19 19 18 18 19 20 20 20 19 19 18 18 19 18 19 20 20 20 19 20 20 20 21 22 21
26 24 22 23 26 24 25 23 26 25 25 25 26 26 25 25 24 24 23 23 22 21 20 20 20 19 18 18 19 19 20 20 19 20 19 18 18 18 19 20 20 20 20 21 21 22 22 22 22
25 21 23 23 25 21 23 22 24 25 26 26 26 26 25 25 24 23 23 23 22 20 20 20 20 19 19 18 18 19 19 20 20 19 19 18 18 18 19 20 19 19 21 21 22 22 22 22 23
25 20 25 24 23 23 19 17 20 21 20 26 26 26 26 25 24 23 23 23 22 20 20 20 20 19 18 19 19 19 19 19 19 19 19 18 18 18 19 20 19 20 21 21 21 21 21 22 22
21 20 19 25 22 21 20 19 18 19 19 21 26 26 26 25 24 24 23 23 22 21 20 20 19 18 18 18 20 19 19 19 19 19 19 18 18 18 20 19 19 20 20 20 20 20 21 22 22
28 23 18 21 23 22 19 18 18 17 18 18 23 26 26 25 24 24 24 23 23 21 21 20 19 18 18 19 19 19 19 20 20 19 19 18 18 18 19 19 20 19 20 19 19 21 22 23 22
30 25 21 18 21 21 19 18 18 17 16 17 20 25 26 26 25 24 24 24 23 22 21 20 20 19 18 18 19 19 19 19 19 19 19 19 18 18 18 19 18 20 20 20 20 21 21 22 22
29 25 20 19 26 21 20 20 20 17 17 16 22 24 26 25 25 25 24 24 24 22 21 20 19 19 18 19 19 19 19 19 19 18 18 19 18 19 18 18 18 19 20 20 20 21 21 21 23
28 29 21 20 25 25 22 24 22 21 18 17 22 24 24 25 25 25 25 25 25 23 22 21 19 19 19 19 19 19 19 19 19 18 19 19 18 19 19 18 18 18 20 20 19 20 20 21 22
30 29 30 28 28 22 27 27 24 23 20 18 18 22 24 25 24 24 26 25 24 24 22 21 19 19 19 18 18 18 18 19 19 19 19 20 19 19 19 19 18 18 19 19 19 19 19 19 21
29 29 27 27 20 28 28 28 27 26 21 19 19 21 24 24 26 24 26 25 24 24 23 21 20 19 18 18 18 18 18 18 18 19 19 19 19 18 19 18 18 18 19 18 18 19 18 20 20
28 30 28 26 27 28 27 27 27 28 25 25 24 24 25 26 23 26 25 24 24 23 23 22 20 19 19 19 18 18 18 19 19 19 19 20 20 20 19 18 18 18 18 18 18 19 19 19 20
29 28 31 28 29 25 27 27 27 29 28 26 25 26 25 26 25 25 26 24 23 23 23 22 20 19 19 19 18 18 18 18 18 19 18 19 19 19 19 18 18 18 18 18 18 19 19 18 20
30 31 29 30 26 25 27 28 28 25 26 27 27 27 26 25 27 26 25 23 23 22 21 20 20 19 19 19 19 18 18 18 18 18 19 19 19 18 18 18 18 18 18 18 18 19 20 19 19
29 29 29 31 31 29 27 28 29 27 28 26 28 28 27 26 26 26 25 23 22 20 19 20 20 20 19 18 19 19 19 18 18 18 18 18 18 19 18 18 18 18 18 18 18 19 18 18 19
30 29 30 29 28 30 30 23 29 28 27 26 23 21 22 23 25 24 24 22 20 19 19 19 19 19 19 18 18 18 19 18 18 18 18 18 18 18 18 18 17 18 18 18 18 18 19 18 18

GFSSGP_850_temp_102.txt.gz
Temp
22 21 22 23 21 22 28 28 30 30 30 30 28 28 27 27 27 22 22 21 20 18 19 18 18 18 18 18 18 18 18 18 18 18 18 18 18 18 18 17 17 17 17 17 18 19 18 18 18
20 21 23 21 22 23 27 29 29 29 29 27 27 27 26 25 24 22 22 21 20 19 18 19 18 18 18 18 18 18 18 18 18 18 18 18 18 18 18 18 18 18 18 18 18 18 18 18 18
22 21 23 20 20 24 27 29 28 28 28 24 22 26 25 25 24 23 21 21 20 19 19 19 18 17 17 18 17 17 18 18 18 18 18 18 17 18 17 18 17 17 17 17 17 18 18 18 18
21 23 23 19 20 28 29 29 28 28 28 25 26 26 25 24 23 22 21 21 20 18 20 19 18 18 18 18 18 17 18 18 18 18 18 18 17 17 17 17 17 17 17 17 17 17 18 18 18
23 24 22 19 22 29 29 28 28 28 26 27 26 26 24 22 22 22 21 21 21 18 19 18 18 18 18 18 18 18 18 18 18 18 18 18 18 18 18 17 18 17 18 17 17 18 18 18 18
23 23 20 22 27 29 29 28 28 27 26 25 26 25 23 22 23 22 21 20 21 19 19 18 18 18 18 18 18 18 18 18 18 18 18 18 18 18 18 18 18 18 18 18 18 19 19 19 18
23 21 23 25 27 28 28 28 26 27 27 27 26 25 23 22 22 22 20 21 21 20 18 18 18 18 18 17 18 18 18 18 18 18 18 18 18 18 18 18 18 18 18 18 19 19 19 19 19
22 19 21 21 26 26 29 28 28 28 23 27 26 25 22 23 22 23 21 21 22 21 19 19 17 17 17 18 18 18 18 18 18 18 18 19 18 18 18 18 18 18 19 19 19 19 20 20 19
24 19 20 19 28 27 29 29 28 28 27 27 26 25 23 23 24 24 23 22 22 21 19 20 19 17 18 18 18 18 18 18 19 18 18 18 19 18 18 18 19 19 19 19 20 19 18 19 19
23 20 20 22 27 29 29 28 27 26 27 27 26 25 25 24 24 24 24 23 22 20 20 19 19 18 18 18 19 18 18 17 18 18 18 17 18 18 18 19 19 18 19 19 19 19 18 18 19
24 19 22 22 23 29 28 27 27 27 26 28 26 25 25 25 25 24 24 24 23 21 20 20 20 19 19 19 18 19 18 18 18 18 18 19 19 19 19 19 18 18 19 17 19 19 19 19 20
25 26 24 27 25 29 28 27 28 28 28 27 26 24 25 25 25 25 25 24 23 22 20 20 19 20 20 19 19 19 19 19 20 18 19 19 19 19 19 19 16 18 18 18 19 19 20 21 21
25 25 26 25 27 28 27 28 25 26 26 26 26 25 25 26 26 25 25 24 22 22 20 20 19 20 20 19 20 20 20 18 19 19 19 19 19 20 18 19 19 19 20 20 20 19 19 20 21
26 26 26 27 25 28 29 29 27 25 27 26 26 26 26 26 26 25 24 24 23 22 20 19 19 19 19 20 20 20 20 20 19 19 19 19 19 19 19 18 19 20 20 20 20 20 20 21 21
28 26 24 24 24 27 28 28 27 28 27 26 26 26 26 26 26 25 24 23 22 22 20 19 19 19 19 20 20 20 20 20 20 19 19 18 19 19 20 19 20 21 21 21 21 21 21 22 21
27 26 23 22 22 26 25 23 26 28 27 27 27 26 26 26 25 25 24 23 22 21 20 20 20 19 19 20 19 20 19 20 19 20 19 19 19 18 18 19 20 20 20 21 21 21 22 22 22
24 23 24 23 25 24 25 21 22 27 27 27 27 27 26 26 25 25 24 23 22 21 20 20 20 19 19 19 19 19 20 20 20 19 19 19 19 20 19 19 21 21 20 22 21 22 22 22 22
25 23 24 23 21 24 20 18 25 26 27 28 27 27 26 26 25 24 24 23 21 20 20 20 20 19 19 19 20 20 19 19 20 19 19 19 19 18 20 19 20 21 20 20 21 22 22 22 22
22 20 23 18 19 23 20 18 18 20 22 21 26 26 26 26 25 24 24 23 21 21 21 20 20 20 19 19 19 19 20 19 19 20 19 19 19 19 20 20 20 18 20 21 21 21 22 22 22
21 20 19 16 17 17 20 19 18 18 18 18 20 22 26 26 25 24 24 23 22 21 20 20 19 19 19 19 19 19 19 19 19 19 19 19 19 20 19 19 19 20 20 21 21 21 21 22 22
25 25 18 17 16 16 20 18 19 18 17 19 20 19 22 25 25 24 24 24 22 21 20 20 19 20 20 18 19 19 19 18 19 19 19 19 19 19 19 19 20 19 19 20 21 21 21 22 22
22 21 20 18 16 17 20 19 18 17 17 17 18 19 20 23 24 24 24 24 23 22 21 20 19 19 19 19 18 18 18 19 18 18 18 19 19 19 19 19 19 18 18 20 20 21 21 21 22
24 24 21 19 16 17 20 22 20 18 17 17 18 19 20 22 24 24 24 24 23 22 21 21 20 19 19 19 18 19 20 19 19 19 19 19 18 19 19 19 19 19 18 18 20 21 21 21 21
26 26 21 18 17 18 23 25 20 19 21 19 19 20 19 22 25 23 24 25 23 22 22 21 20 19 19 19 19 19 19 19 18 19 18 17 18 19 19 19 19 19 19 20 19 20 21 21 21
28 28 23 20 18 22 20 25 22 22 23 21 19 19 19 21 24 24 23 24 24 22 22 21 20 19 19 19 19 19 19 19 19 19 19 19 19 19 19 19 19 19 19 19 19 20 21 21 22
29 27 26 22 22 22 20 25 25 25 24 21 20 20 19 20 22 24 23 22 24 22 21 21 20 19 19 19 19 19 19 19 19 19 19 19 19 19 19 19 19 19 19 19 19 19 20 19 20
30 28 30 28 25 25 21 23 26 25 24 23 23 21 21 22 20 21 23 21 23 21 20 23 19 20 19 19 19 19 19 19 19 19 19 19 19 19 19 19 18 19 18 19 19 20 19 19 19
30 31 29 25 24 24 24 21 24 24 24 23 23 22 21 22 21 22 21 19 24 22 19 19 21 20 20 19 19 19 20 20 19 19 19 18 19 20 19 19 18 19 19 18 19 19 19 19 20
29 29 30 31 29 25 26 23 23 27 27 26 27 26 24 23 22 20 23 20 23 20 19 20 19 21 20 20 19 18 19 19 19 19 19 18 18 19 19 19 18 19 19 19 19 19 19 19 18
30 30 30 29 28 30 29 26 22 21 26 27 28 27 25 26 23 22 21 18 19 19 20 22 21 21 21 21 20 19 19 18 18 18 18 18 18 18 19 19 19 19 18 18 18 19 19 18 19

GFSSGP_850_temp_105.txt.gz
Temp
22 21 20 19 19 20 25 26 27 26 25 27 26 25 24 25 22 18 19 19 20 19 18 19 19 19 19 18 18 17 18 18 18 18 19 18 18 18 18 18 18 18 18 19 19 19 19 18 18
21 21 19 18 19 22 25 26 25 24 25 25 25 23 22 22 21 19 18 19 20 19 19 19 18 18 19 18 18 18 18 18 18 18 18 18 17 18 18 18 18 18 18 19 19 18 19 19 18
22 22 21 17 19 22 23 25 25 24 26 25 25 24 23 22 21 20 19 19 19 20 19 18 18 18 18 18 18 18 18 18 18 18 18 18 18 18 18 17 18 18 17 18 18 18 18 18 18
22 22 22 19 20 23 25 25 25 25 24 25 25 24 22 22 21 20 20 19 19 19 19 18 18 18 18 17 17 18 18 18 18 18 18 18 18 18 18 18 18 18 18 17 18 19 19 18 18
21 23 19 19 22 27 26 27 26 26 25 25 23 22 21 21 21 21 20 20 20 19 19 18 18 18 17 18 18 18 18 18 18 18 18 18 18 18 18 18 18 18 18 18 19 19 18 18 18
23 23 19 20 23 26 27 27 26 25 25 23 22 22 21 21 21 20 19 19 20 20 19 19 17 17 17 17 17 18 18 18 18 18 18 18 18 17 18 17 17 18 18 19 19 19 19 18 18
21 19 20 23 26 25 26 27 26 25 26 24 22 21 22 22 21 21 20 19 20 20 20 19 18 18 18 18 18 18 18 18 18 18 18 18 18 17 18 17 18 18 19 19 19 19 19 19 18
22 18 19 22 26 25 27 27 26 26 26 23 23 22 21 22 22 21 20 19 19 20 19 19 19 19 18 18 19 19 19 18 18 18 18 18 18 17 17 18 19 19 19 19 19 19 19 19 18
21 17 19 20 26 26 25 24 26 26 26 24 24 23 23 22 21 21 20 19 19 19 19 19 19 19 19 19 19 18 18 19 18 18 18 18 18 18 18 19 19 19 19 18 18 19 19 19 19
21 18 18 20 21 25 27 26 26 26 26 24 23 23 23 23 22 21 21 20 19 19 18 19 18 19 19 19 19 18 18 17 17 18 18 17 18 18 18 18 17 17 18 17 18 20 19 20 20
20 18 18 20 20 20 27 26 26 25 23 24 23 23 23 23 23 23 22 21 20 19 19 19 19 19 19 19 19 19 19 19 19 18 18 18 18 18 18 17 18 19 19 18 19 19 19 19 20
22 20 19 19 18 21 26 27 26 26 25 24 24 24 24 24 24 24 22 20 20 20 19 19 19 19 19 19 19 19 19 19 19 19 18 18 18 18 18 19 20 20 19 19 19 19 20 20 20
24 24 19 18 20 20 27 27 26 27 26 25 25 25 24 25 24 23 22 21 20 20 19 20 19 19 19 19 19 18 19 19 19 18 18 18 18 18 18 20 20 19 20 20 20 20 20 20 20
24 22 21 19 18 19 26 25 26 26 25 24 25 25 25 25 25 23 22 21 21 21 20 20 20 19 19 19 19 19 19 20 19 19 19 19 18 19 18 19 19 19 19 20 21 20 20 20 20
23 23 24 19 19 22 24 25 25 26 25 25 25 25 26 25 25 24 23 22 22 21 20 20 19 19 19 19 20 20 19 19 19 19 19 19 19 19 19 19 20 19 19 20 21 20 20 21 21
25 24 22 21 19 20 23 22 24 25 25 25 25 26 26 25 25 24 23 22 21 21 20 20 20 19 20 20 19 19 19 19 20 20 19 19 19 19 19 20 20 19 19 19 20 20 21 21 21
22 21 22 21 18 19 23 23 24 24 26 25 26 26 26 25 24 24 23 22 21 21 20 20 20 19 20 19 19 19 20 19 19 19 19 19 19 19 20 20 19 20 20 20 21 21 22 21 22
22 21 23 21 17 17 20 20 20 24 26 26 26 26 25 25 24 24 23 22 21 21 20 19 20 20 20 19 19 19 19 19 19 19 19 19 18 18 20 19 20 21 21 21 21 22 22 22 22
22 21 19 18 16 16 19 19 18 18 22 21 26 25 25 25 25 23 23 22 21 21 20 20 20 20 20 19 19 19 19 19 19 19 19 19 20 19 19 19 20 20 20 21 21 22 22 22 22
21 19 18 16 16 17 17 19 18 17 18 19 20 22 24 24 24 23 22 22 21 21 21 20 20 20 20 19 19 19 19 19 19 19 19 19 19 19 19 19 20 19 20 20 21 21 21 22 22
22 21 19 19 16 16 16 18 18 19 18 19 20 20 21 24 24 23 23 22 21 21 20 20 20 20 19 19 19 19 19 19 19 18 19 19 19 19 19 19 19 20 20 21 21 20 20 21 22
21 22 20 18 17 17 16 19 18 18 18 19 18 20 21 23 23 23 22 22 21 21 21 21 20 20 19 19 19 19 20 19 19 19 19 19 19 19 19 19 20 20 20 20 20 20 20 21 21
20 21 20 19 16 18 18 18 18 17 18 20 21 20 21 21 23 24 23 22 22 21 21 21 20 20 20 19 19 19 19 19 19 19 19 19 19 19 19 19 19 20 20 21 21 19 21 21 21
22 20 19 17 17 17 19 18 18 18 19 21 21 20 20 20 23 23 23 23 22 22 21 20 21 20 19 19 19 19 19 18 19 19 19 20 19 19 19 19 19 19 20 20 20 20 20 21 20
20 19 18 18 17 18 19 19 19 21 20 20 20 20 20 21 21 22 23 23 22 22 21 21 21 20 19 19 19 19 18 18 19 19 19 19 19 19 19 19 19 19 19 20 20 21 21 20 21
21 20 18 20 19 19 20 20 19 22 22 21 20 20 20 21 21 21 23 23 22 22 22 21 20 21 20 19 19 19 19 19 19 19 19 19 19 20 19 19 18 19 19 19 19 19 20 20 21
25 23 24 18 19 19 19 18 18 23 21 22 20 20 21 21 23 21 22 22 22 21 21 22 20 21 20 19 19 19 19 19 18 19 19 19 20 20 20 19 19 18 18 19 19 19 19 20 20
27 27 22 21 19 19 19 18 19 21 20 20 20 20 23 23 23 20 22 21 21 19 21 21 20 21 21 19 19 19 19 19 18 19 19 19 19 20 19 19 19 19 19 19 19 19 19 19 19
25 24 24 21 22 22 19 19 19 21 22 21 22 21 22 23 22 20 21 21 21 17 20 21 21 20 20 20 19 19 19 19 19 19 18 19 19 20 20 19 19 19 19 19 18 19 19 18 19
27 25 24 21 24 22 22 19 21 21 21 23 22 22 22 23 21 20 21 20 20 19 20 23 22 20 19 19 19 19 20 19 19 19 19 19 19 19 19 19 19 19 18 18 18 18 19 19 18

GFSSGP_850_temp_108.txt.gz
Temp
21 20 20 19 19 19 23 24 24 24 25 25 25 24 23 22 21 19 20 19 18 19 18 18 18 18 18 18 18 18 18 18 18 17 17 18 17 17 17 18 18 19 19 19 19 18 17 18 17
21 20 20 20 18 22 22 24 23 23 23 23 23 22 21 19 19 19 18 19 19 19 19 18 19 19 18 18 18 18 17 18 18 18 17 17 17 17 18 17 18 19 19 19 18 18 18 17 18
21 20 21 18 18 21 21 23 23 24 24 24 22 22 21 18 19 19 19 19 19 19 19 18 18 18 18 18 18 18 18 18 18 18 17 17 17 17 18 18 18 18 18 18 18 18 18 18 18
21 21 20 19 20 23 23 22 23 24 23 23 22 21 20 20 19 19 19 19 19 19 19 18 18 18 18 18 18 18 18 18 18 18 17 18 17 17 17 17 17 18 18 18 18 18 17 17 18
21 21 18 20 21 24 24 24 24 23 22 22 21 21 19 20 20 20 19 19 19 19 18 18 18 18 18 18 18 18 18 18 18 18 18 17 18 18 17 18 18 18 19 19 18 18 17 17 18
21 21 19 22 23 25 25 25 24 22 22 21 21 21 19 19 20 19 19 19 19 19 18 18 18 18 18 18 18 18 18 18 18 18 18 18 18 18 18 18 18 19 19 19 18 18 18 18 18
20 19 19 21 24 24 24 25 23 22 22 22 21 20 19 19 20 20 20 19 19 19 19 18 18 18 18 18 18 18 18 18 18 18 18 18 18 18 18 19 19 19 19 19 19 18 18 18 17
22 19 21 21 24 24 25 25 24 23 23 22 21 20 19 20 20 20 19 19 19 19 18 18 18 18 18 18 18 18 18 18 18 18 18 19 18 19 19 19 19 19 19 19 19 18 18 18 17
21 18 18 21 25 24 25 25 25 24 22 23 23 21 21 20 20 19 19 19 18 18 19 18 18 18 18 18 18 18 18 18 18 18 18 18 18 18 18 18 19 19 19 19 19 18 18 18 18
21 18 18 20 21 21 23 23 25 23 23 23 22 22 21 21 20 19 19 19 18 18 18 18 19 18 18 18 18 18 18 18 19 18 18 18 18 18 18 19 19 19 19 19 19 18 19 19 19
19 18 19 19 20 20 21 22 26 23 23 23 22 21 21 21 20 19 18 19 20 19 19 19 19 19 19 19 19 18 18 18 18 18 18 18 18 18 19 19 19 19 19 19 19 19 19 19 19
19 19 19 20 20 20 21 25 25 23 23 24 23 22 21 21 19 19 19 19 19 19 19 19 19 19 19 19 19 19 18 18 18 18 18 18 19 19 19 19 19 19 19 19 19 19 19 19 19
20 19 19 19 18 19 20 21 25 23 23 24 23 23 22 21 20 20 20 20 19 19 19 20 19 18 18 19 19 19 18 18 18 18 18 18 19 19 19 20 19 19 19 20 20 20 20 20 20
24 22 19 17 18 18 19 22 25 24 24 24 23 23 23 21 21 20 20 20 19 19 19 19 19 19 18 19 19 19 19 19 19 18 18 18 19 19 19 19 19 19 20 20 20 20 20 20 20
24 21 18 17 18 18 20 22 22 23 24 23 23 24 24 23 22 21 21 20 20 19 19 20 19 19 19 19 19 19 19 19 19 19 18 18 19 19 19 19 19 19 19 20 20 19 20 20 20
23 20 20 19 18 17 17 21 24 24 24 24 24 24 24 22 22 22 21 20 20 20 20 19 19 19 19 19 19 19 19 19 19 19 18 19 19 19 19 19 18 19 20 19 19 20 20 21 20
22 20 21 19 17 17 18 19 24 24 24 24 24 24 23 21 22 21 21 21 21 21 20 19 19 20 19 19 19 20 19 19 19 19 19 19 19 18 19 18 19 18 19 19 20 20 21 21 21
21 22 19 18 16 17 17 18 22 23 24 24 24 24 23 22 21 22 21 21 21 21 20 20 19 19 19 19 19 19 19 19 19 19 19 19 19 19 19 20 20 20 20 20 21 21 21 21 21
21 19 18 17 17 17 16 17 17 20 23 23 24 23 23 22 22 22 22 21 21 21 20 20 19 19 19 19 19 19 19 19 19 19 20 19 19 19 19 20 20 20 20 21 21 21 22 22 21
19 18 17 17 17 18 16 16 17 18 18 19 22 23 23 22 21 22 21 21 21 21 20 20 20 20 19 19 19 19 19 19 19 18 19 19 19 19 19 20 20 20 21 20 20 21 21 21 22
19 20 17 18 17 16 16 16 17 19 17 19 19 22 23 22 21 21 21 21 21 21 20 20 20 20 20 19 19 19 19 19 19 19 19 19 19 18 19 20 20 20 20 20 20 21 21 21 22
18 21 20 17 17 17 16 18 18 18 18 18 19 20 22 22 21 22 22 21 21 21 20 20 20 20 20 19 19 19 19 19 19 19 19 19 19 18 19 19 20 20 20 20 20 20 20 20 21
18 20 19 18 16 16 17 18 18 17 18 19 19 20 21 21 21 22 22 22 22 21 21 20 20 20 19 19 19 19 19 19 19 19 19 19 19 19 19 19 19 20 20 20 20 20 20 20 21
21 19 18 18 16 17 18 18 18 17 18 20 21 20 22 21 21 21 22 22 22 21 21 20 20 20 20 19 19 19 19 19 19 19 19 19 19 19 19 19 19 19 20 20 20 20 20 20 20
19 17 17 18 18 18 17 17 18 19 19 20 21 19 21 21 21 21 21 21 21 21 21 21 20 20 20 20 19 19 19 19 19 19 19 19 19 19 19 19 19 19 20 20 20 20 20 20 20
18 19 18 19 17 19 18 19 19 20 21 22 21 21 21 21 22 22 21 22 21 21 21 21 21 20 20 20 19 19 19 19 19 19 19 19 19 19 19 19 19 19 19 20 19 19 19 20 20
19 20 20 17 18 18 18 19 19 21 21 21 20 20 20 20 21 22 22 22 21 21 21 21 21 20 20 20 19 19 18 19 19 19 19 19 20 19 19 19 19 19 19 19 19 19 19 19 19
22 22 20 17 18 18 18 17 18 20 20 20 20 19 19 21 21 21 22 22 21 21 21 21 21 21 20 19 19 19 19 18 18 19 20 19 19 19 20 19 19 19 20 19 19 19 19 19 19
22 21 20 19 18 18 18 18 17 20 20 19 19 19 19 21 21 21 21 22 22 21 21 21 20 20 20 19 19 18 19 18 18 18 19 19 19 20 20 19 19 19 18 19 18 18 18 19 19
22 22 19 18 22 19 20 19 22 20 21 20 20 19 20 21 22 21 21 21 21 21 21 21 20 19 19 19 19 18 18 18 18 18 19 19 19 19 19 19 19 19 19 19 18 18 18 19 19

GFSSGP_850_temp_111.txt.gz
Temp
21 20 19 18 18 19 22 22 24 23 23 24 22 23 21 19 20 18 21 19 19 18 18 18 17 18 18 18 18 18 18 18 17 17 18 17 18 18 17 18 18 18 18 18 17 17 17 18 17
20 19 19 19 18 19 20 22 21 22 22 23 22 22 20 18 18 20 19 19 18 18 18 18 18 18 18 18 18 18 18 18 18 18 18 17 17 17 17 18 19 18 18 17 17 17 17 17 17
20 19 19 18 17 19 20 22 21 22 23 22 21 21 20 17 19 20 20 19 19 18 18 18 18 17 18 18 18 18 18 18 18 18 18 18 18 18 18 19 19 18 18 18 17 18 17 18 18
20 20 20 19 21 22 22 22 22 22 23 23 21 20 19 19 20 19 19 19 19 18 19 18 18 17 17 18 17 18 18 18 18 18 18 18 18 18 18 17 18 18 18 18 17 17 18 18 17
21 20 18 20 21 23 23 22 23 21 21 22 21 19 18 18 20 20 20 19 19 19 18 18 18 17 17 17 17 18 18 18 18 18 18 17 17 18 18 18 18 18 18 18 17 17 17 18 18
21 20 19 21 22 23 23 23 22 21 20 20 19 19 17 19 20 20 19 19 19 18 18 18 17 17 17 17 17 18 18 18 17 17 17 18 18 18 18 17 18 18 18 18 17 17 17 17 18
20 19 20 21 22 23 23 22 21 21 21 21 20 17 17 19 19 19 19 18 18 18 18 18 17 17 17 18 18 18 18 18 18 18 18 18 18 18 18 18 19 19 18 18 17 17 17 17 17
20 18 21 21 22 23 23 23 22 22 21 21 21 17 16 18 18 18 18 18 18 18 18 18 18 18 18 18 18 18 18 18 18 18 18 18 18 18 18 19 19 19 19 18 18 18 17 17 17
20 18 19 20 23 22 24 23 22 22 21 21 21 20 20 19 18 18 18 18 18 18 18 18 18 18 18 18 18 18 18 18 18 18 18 18 18 19 19 19 19 19 18 18 18 18 17 17 17
19 19 19 20 20 20 22 23 23 22 22 21 20 20 19 19 18 19 19 18 18 18 18 18 18 18 19 18 18 18 18 18 18 18 17 18 19 19 19 19 19 19 18 18 18 17 17 18 17
19 19 19 21 19 20 20 23 23 22 21 21 20 19 19 18 19 19 19 19 18 18 18 18 18 18 19 19 18 18 19 18 18 18 17 18 19 18 19 19 19 19 18 18 18 18 18 18 18
20 20 19 20 20 20 21 21 23 22 23 22 22 21 20 18 19 19 19 18 18 19 19 19 18 18 18 18 18 18 18 17 17 17 18 18 19 18 18 18 18 18 19 19 19 19 19 19 19
20 19 18 19 19 20 19 20 22 23 23 23 22 21 20 20 19 20 19 19 19 18 19 19 18 18 19 18 18 18 18 18 18 18 18 18 18 18 18 18 18 18 19 19 19 19 20 20 19
22 20 19 19 19 19 19 22 21 23 22 22 21 20 20 20 19 19 19 19 19 19 19 19 18 18 18 18 18 18 18 18 18 18 18 18 18 18 19 18 18 19 19 19 19 20 20 20 20
21 20 18 17 17 19 19 21 21 23 22 22 21 20 20 20 20 20 20 20 20 20 19 19 18 18 19 18 18 18 18 18 18 18 18 19 18 18 19 19 19 19 19 20 20 20 20 20 20
22 21 20 18 18 17 19 20 21 23 22 22 22 21 20 20 21 20 20 20 19 19 19 19 19 19 19 19 18 18 19 18 19 19 18 18 19 18 19 20 20 20 20 20 20 20 21 20 20
20 20 20 18 16 17 18 18 20 21 22 22 22 22 21 20 20 20 20 20 20 19 19 19 19 19 19 19 19 19 19 19 18 18 19 19 19 18 19 19 20 20 20 20 20 20 21 21 20
20 19 18 18 17 17 17 17 18 22 22 23 23 22 20 20 21 21 21 20 20 19 19 19 19 19 19 20 19 19 19 19 18 18 19 19 19 18 19 19 19 20 20 20 20 21 21 21 21
20 19 18 17 16 16 17 16 17 18 21 23 22 21 20 21 21 21 21 20 20 19 19 19 19 19 19 19 19 19 19 19 19 19 18 19 19 18 19 19 19 19 19 20 20 21 21 21 21
20 18 17 17 16 16 16 16 15 16 18 19 22 21 20 20 20 21 20 20 20 20 19 19 19 19 19 19 19 19 19 19 19 19 18 18 19 19 19 19 20 19 20 20 20 21 21 22 22
17 19 17 18 17 16 17 17 16 17 17 18 20 21 21 21 21 20 20 20 20 20 20 20 19 19 19 19 19 19 19 19 18 19 18 19 18 19 19 19 20 20 20 21 20 20 21 21 21
18 20 19 17 17 17 16 18 17 16 17 18 19 20 21 20 21 21 20 20 21 20 20 20 19 19 19 19 19 19 19 19 19 19 18 18 18 19 19 19 20 20 20 20 20 20 21 21 21
19 20 18 18 15 16 17 17 18 17 17 18 19 19 20 20 22 21 21 21 21 21 20 20 19 19 20 19 19 19 19 19 19 19 19 19 18 19 19 19 19 19 20 20 20 20 20 20 21
19 18 17 17 16 17 19 18 18 17 18 20 19 19 19 20 19 22 21 21 21 20 20 20 19 20 20 20 20 19 19 19 19 19 19 19 19 18 19 19 19 19 19 20 20 20 20 20 20
17 15 15 18 17 18 17 17 17 19 19 20 19 19 20 20 20 20 20 20 21 21 20 20 20 20 19 20 20 20 19 19 19 19 19 19 19 19 19 19 19 19 19 19 20 20 20 20 20
16 16 16 19 17 18 17 18 19 19 19 18 17 19 20 20 20 20 21 21 21 21 21 20 20 20 19 19 20 19 19 20 19 19 19 19 19 19 18 19 19 19 19 19 20 19 19 20 20
19 18 18 16 16 17 18 19 19 19 20 19 19 20 19 19 19 21 21 21 21 21 21 21 20 20 20 20 20 19 19 19 19 19 19 19 19 19 19 19 19 19 19 19 19 19 19 19 19
19 19 19 16 18 17 17 18 18 19 20 20 20 19 19 20 20 20 21 21 21 22 22 21 21 20 20 19 19 19 19 19 19 19 19 19 19 19 19 19 19 19 18 19 19 19 18 19 19
20 20 18 17 16 17 17 18 19 21 21 19 20 20 19 19 20 20 20 22 22 22 21 21 21 20 20 19 19 18 18 18 18 18 19 19 19 19 19 19 18 18 18 18 18 18 18 18 18
21 19 18 18 20 17 17 19 19 19 19 19 19 19 19 19 20 21 20 21 22 22 21 21 21 20 20 19 19 18 18 18 18 18 18 19 19 19 19 19 18 18 18 18 18 18 18 18 18

GFSSGP_850_temp_114.txt.gz
Temp
20 20 19 18 18 17 20 21 22 21 20 22 21 21 20 18 19 18 19 19 18 17 17 16 16 17 17 17 18 18 18 18 18 18 18 18 18 17 17 17 17 17 17 17 17 18 17 18 18
20 19 19 19 17 18 19 21 21 21 22 23 21 20 19 17 18 19 19 18 18 18 17 17 17 17 18 18 18 18 18 18 18 18 18 18 17 17 17 17 17 17 17 17 17 17 18 17 17
19 19 19 16 17 18 19 21 20 21 22 22 20 20 19 17 19 20 19 19 19 18 18 18 18 18 18 18 18 18 18 18 18 18 17 17 17 17 18 18 17 17 17 17 17 17 17 17 17
20 19 19 19 20 21 21 20 21 21 22 21 20 19 19 18 19 20 19 19 19 18 18 18 18 18 18 18 18 18 18 18 18 17 17 17 18 17 17 17 17 17 17 17 17 17 17 17 17
20 20 19 20 21 22 22 22 21 20 20 20 20 18 17 19 19 20 20 19 19 19 18 17 17 17 17 18 18 18 18 18 18 18 18 17 17 17 17 17 17 17 18 17 18 18 17 17 17
20 20 19 20 21 22 22 22 21 20 20 19 19 18 17 18 19 20 19 19 18 19 18 17 17 17 17 17 18 18 17 18 17 18 18 17 17 17 17 17 17 18 18 17 17 17 18 18 17
20 19 20 20 20 21 22 22 20 20 20 19 19 16 17 18 19 19 18 18 18 18 18 17 17 17 17 17 18 18 18 18 18 18 18 18 17 17 17 18 18 18 17 17 17 17 17 17 17
20 19 21 21 21 21 21 22 21 21 20 20 21 17 16 18 19 18 18 18 17 18 18 17 17 17 17 17 18 18 18 18 18 17 17 17 17 18 18 18 18 18 17 17 17 17 17 17 18
20 18 19 21 22 21 22 21 21 21 20 21 20 20 20 19 18 18 18 17 17 17 17 17 17 18 18 18 18 18 18 18 18 18 17 18 18 18 18 18 18 18 18 17 17 17 17 17 17
20 19 20 20 20 20 21 22 22 21 21 19 19 20 19 18 18 19 18 18 17 17 18 18 17 17 18 17 17 17 18 17 18 18 18 18 19 19 18 18 18 18 18 18 18 18 18 17 18
19 20 19 20 20 19 19 22 22 21 20 20 19 19 19 18 18 19 19 19 18 18 18 18 18 18 18 17 18 18 18 18 18 18 18 18 18 18 18 18 18 18 18 18 18 18 18 18 19
21 20 19 17 17 21 20 21 21 22 22 22 21 20 19 19 18 19 19 18 18 18 18 18 18 18 18 18 18 18 18 18 18 18 18 18 18 18 18 18 18 18 18 18 19 18 19 19 19
20 20 19 17 18 20 20 21 21 22 23 22 20 20 19 19 19 19 19 19 18 18 18 19 19 18 18 18 18 18 18 18 18 19 18 18 18 18 18 18 18 19 19 19 19 19 19 19 20
21 20 19 18 19 19 19 21 21 22 22 21 20 20 19 19 19 19 19 19 19 18 19 18 19 18 18 18 18 18 18 18 18 18 18 18 18 18 18 18 18 19 19 19 19 20 19 20 20
19 19 19 18 19 19 18 20 20 22 21 20 20 20 19 20 20 20 20 19 19 19 19 18 18 18 18 18 18 18 18 18 18 18 18 18 18 18 18 18 19 19 19 19 20 20 20 20 20
21 20 19 18 17 17 19 19 20 21 21 20 19 19 19 19 20 20 20 19 19 19 19 18 18 18 18 18 18 18 18 18 18 18 18 18 18 18 19 19 19 19 20 20 20 20 20 20 20
17 18 19 18 17 18 18 19 18 20 21 20 19 19 19 19 20 19 20 20 19 19 19 18 18 18 18 18 18 18 18 18 18 18 18 18 18 19 19 19 19 20 20 20 20 21 21 21 20
19 17 18 18 17 17 16 17 17 19 20 21 20 20 19 19 20 20 20 20 19 19 19 19 19 19 18 19 19 19 18 18 18 18 18 18 18 18 19 19 20 20 20 20 21 21 21 21 21
19 19 17 18 17 17 16 16 16 16 19 20 21 20 20 20 21 21 20 20 19 19 18 19 19 19 19 19 19 19 19 18 18 18 18 18 18 18 19 19 19 19 20 20 20 21 21 21 21
18 17 17 17 17 17 16 16 16 16 16 18 20 20 20 20 19 20 20 20 20 19 18 18 19 19 19 19 19 19 19 19 18 18 18 18 18 18 18 19 19 19 20 20 20 21 21 21 22
18 18 16 18 17 16 16 17 16 16 16 18 18 20 21 21 20 20 20 20 19 19 18 18 19 19 19 19 19 19 19 18 18 18 18 18 18 18 18 19 19 19 20 20 20 21 21 21 21
18 18 18 16 17 17 17 17 16 17 16 16 18 20 20 21 21 21 20 20 20 19 19 18 19 19 19 19 19 19 19 19 19 19 18 18 18 18 18 19 19 19 19 20 20 20 21 21 21
19 18 17 17 16 16 16 17 18 16 16 17 18 19 20 20 21 21 22 21 20 20 20 19 19 19 19 19 19 19 19 19 19 19 19 19 18 18 18 19 19 19 19 20 19 20 20 21 21
18 17 15 15 15 16 17 17 16 16 16 18 19 19 20 20 21 22 22 21 20 20 20 19 19 19 19 19 19 19 19 19 19 19 19 19 18 18 18 18 19 19 19 19 19 20 20 20 20
16 14 14 16 15 17 16 17 18 18 17 17 18 19 19 20 20 19 20 20 20 20 20 19 19 19 19 19 19 19 19 19 19 19 19 19 19 19 19 18 19 19 19 19 19 19 20 20 20
16 16 14 18 16 17 17 17 18 20 20 19 20 19 19 19 20 19 21 20 20 21 20 20 19 19 19 19 19 19 19 19 19 19 19 19 19 19 19 18 18 18 18 19 19 19 19 20 20
17 17 16 15 15 16 17 18 19 19 18 18 18 18 19 19 19 20 20 21 21 21 21 21 20 19 19 19 19 19 19 19 19 19 19 19 19 19 19 19 18 18 18 18 19 19 18 19 19
18 18 18 14 17 18 17 17 18 18 18 18 18 18 18 19 19 20 21 21 21 21 21 21 21 20 20 19 19 19 19 19 19 18 18 19 19 19 19 18 18 18 18 18 18 18 18 18 18
18 18 17 15 15 16 17 18 18 19 19 18 20 21 21 21 20 20 21 20 21 21 21 21 21 21 20 19 19 19 18 18 18 18 18 18 19 19 19 18 19 18 18 18 18 18 18 18 18
18 18 17 16 18 15 16 18 17 19 20 20 20 20 19 19 19 20 19 20 20 20 21 21 21 21 21 20 19 19 19 18 18 18 18 18 18 18 19 19 19 19 19 18 18 18 18 18 18

GFSSGP_850_temp_120.txt.gz
Temp
20 19 19 20 26 29 27 26 28 26 26 25 24 25 25 23 24 23 19 18 18 18 17 18 17 17 17 17 17 17 18 17 17 17 18 18 18 18 18 17 17 17 17 17 18 18 18 18 18
19 20 20 22 28 28 27 27 27 26 25 24 24 24 25 23 21 19 19 18 19 18 18 18 18 18 18 17 18 18 17 18 18 18 18 18 18 17 17 17 17 17 17 18 18 18 18 18 18
20 20 22 24 27 28 27 27 27 26 24 25 24 23 23 21 20 20 19 19 19 18 18 18 18 18 18 18 18 17 18 18 18 18 18 18 18 18 18 17 17 17 17 18 18 18 18 17 18
21 21 22 25 27 27 28 27 26 25 24 24 24 23 21 21 20 20 19 19 19 18 19 19 19 18 18 17 18 18 18 17 17 17 17 18 17 18 17 18 17 18 18 18 18 18 18 18 18
22 24 25 24 26 27 28 26 26 26 25 24 25 24 21 19 19 19 19 19 19 19 19 17 18 18 18 17 17 17 17 17 17 18 17 17 17 17 17 18 18 18 18 18 18 18 18 18 18
25 25 26 23 26 27 27 26 25 25 24 23 24 23 21 19 19 19 19 19 19 19 19 17 18 18 18 17 17 17 17 17 17 17 17 17 17 17 17 18 18 18 18 18 18 18 18 18 18
25 26 27 28 27 26 26 25 26 26 25 25 24 25 21 20 19 19 19 19 19 19 19 18 17 17 18 17 17 17 18 17 17 17 17 17 17 17 18 18 18 18 18 18 18 18 18 18 18
24 26 26 27 27 26 25 25 25 25 25 23 24 25 22 19 19 19 19 19 19 18 19 18 18 18 17 16 18 18 17 17 17 17 17 17 18 18 18 18 18 18 18 18 18 18 18 18 18
22 25 27 27 27 25 25 25 24 24 24 24 23 24 22 19 19 19 19 19 18 18 19 19 18 17 16 16 17 17 18 18 17 17 17 16 17 16 16 18 18 18 18 18 18 18 18 18 19
24 25 24 24 22 22 25 25 25 25 25 24 23 22 20 19 19 20 19 19 19 19 19 19 18 17 17 17 16 17 17 18 17 16 16 17 17 17 17 19 18 18 18 18 18 19 18 18 19
20 21 23 20 19 20 23 25 25 25 26 25 24 21 20 20 20 20 20 20 19 19 19 18 18 17 17 17 17 17 18 17 16 16 17 17 17 17 17 18 17 17 18 18 18 18 19 18 19
24 23 21 22 20 19 21 25 25 25 25 25 24 22 21 21 21 21 21 20 19 19 18 18 17 17 17 18 18 18 18 18 18 17 16 16 18 17 17 18 18 18 18 18 18 19 18 18 19
26 24 21 22 22 21 22 24 25 24 24 24 23 22 22 22 21 21 21 20 19 19 18 18 17 16 16 17 18 18 18 18 18 17 17 17 18 17 18 18 18 18 18 18 19 19 19 19 20
25 24 23 22 22 22 23 25 24 25 23 23 23 23 22 22 22 21 20 20 19 19 18 18 17 17 17 17 16 17 18 18 18 18 17 18 18 17 17 17 18 18 18 19 19 19 20 20 20
24 24 23 22 21 21 21 23 23 25 23 23 23 23 23 23 22 21 20 20 19 19 18 17 17 17 16 16 17 18 18 18 18 18 18 18 18 18 18 18 18 18 19 19 19 19 20 21 21
26 26 24 22 22 21 21 22 21 24 24 23 24 23 23 22 22 21 21 21 20 19 18 17 18 17 17 17 17 18 18 18 18 18 18 19 19 19 18 18 19 19 19 19 20 20 21 21 21
26 27 25 22 22 21 21 21 21 21 24 23 22 24 23 23 22 21 21 20 20 19 18 18 18 18 17 17 17 18 17 18 18 18 18 19 19 19 18 19 19 19 19 20 21 21 21 21 22
27 26 26 25 22 22 23 23 19 20 23 25 24 24 24 23 22 21 21 21 20 19 18 18 18 17 17 17 17 18 18 18 18 18 18 19 18 19 18 18 19 19 20 20 20 20 20 21 22
26 26 26 24 22 23 24 23 20 19 19 24 25 23 24 24 23 22 21 21 20 19 18 18 18 17 17 17 18 18 18 18 18 18 18 19 18 19 19 19 19 19 20 20 19 21 20 21 21
27 26 26 23 22 22 23 23 23 21 20 22 25 21 24 25 24 22 22 21 20 19 19 18 17 17 17 18 18 19 19 19 19 18 17 17 18 19 19 19 19 20 20 20 20 21 21 21 21
27 27 27 25 22 22 23 24 23 21 20 20 22 22 22 24 24 23 22 22 21 20 19 18 17 17 18 18 18 18 18 18 18 18 18 18 18 18 19 19 19 20 20 20 20 20 21 22 21
26 27 26 24 24 25 23 26 24 23 21 21 21 22 20 24 24 24 22 22 21 20 19 19 18 18 18 19 18 18 18 19 19 18 18 17 17 18 18 19 20 20 19 20 19 20 20 21 22
27 26 26 25 25 24 24 24 28 25 22 22 22 22 22 24 24 24 23 22 22 21 20 19 18 18 18 19 18 18 19 19 19 19 18 18 18 18 18 19 19 20 19 20 20 20 20 20 21
26 25 25 25 24 24 27 25 28 25 24 23 21 22 23 24 24 24 24 23 22 21 20 19 18 19 18 19 18 18 18 18 18 18 18 19 18 18 18 18 19 19 19 19 19 19 20 20 20
26 26 25 25 25 26 26 25 27 28 27 26 24 22 23 24 24 24 24 23 22 22 20 19 18 18 18 18 18 18 18 18 18 17 18 18 18 19 18 18 19 18 19 19 19 19 19 19 19
26 27 27 25 27 27 24 25 28 28 27 26 24 23 24 24 25 25 24 23 22 21 20 19 18 18 18 18 17 17 17 18 18 18 18 18 18 19 18 18 18 18 18 18 19 18 19 19 19
26 24 28 27 28 26 28 27 28 29 27 27 26 24 24 24 24 25 24 23 22 21 20 20 19 18 18 18 17 17 18 18 19 18 18 18 18 18 18 18 17 18 17 19 18 18 18 18 18
26 27 26 26 24 25 27 27 27 27 27 27 26 23 22 23 24 24 24 23 22 21 21 20 19 18 18 18 18 18 18 18 18 17 18 18 18 18 19 19 19 17 17 17 18 18 18 18 18
25 25 26 27 27 25 25 27 27 26 25 27 25 24 22 21 21 23 23 23 22 21 21 20 19 19 18 18 18 18 18 18 17 17 18 18 19 19 19 19 19 18 18 17 18 17 18 17 18
27 27 28 26 25 27 27 22 25 25 25 26 25 21 21 20 20 21 22 22 22 21 21 20 20 19 19 18 18 18 18 18 18 18 17 18 18 18 19 19 19 19 18 17 17 18 18 18 18

GFSSGP_850_temp_123.txt.gz
Temp
21 21 22 23 25 29 29 29 30 29 28 28 27 27 27 25 26 23 21 19 19 18 17 18 18 17 18 17 17 17 17 17 17 17 17 17 17 17 18 18 18 18 18 18 18 18 18 18 18
22 22 22 25 26 28 28 30 29 29 28 27 26 26 26 25 23 22 21 19 18 19 18 17 18 18 18 16 17 17 17 17 17 17 17 17 17 17 18 18 18 18 18 18 18 18 18 18 17
21 22 25 29 27 28 28 30 29 28 27 26 26 26 26 24 23 23 20 19 20 19 19 18 18 17 17 17 17 17 17 17 17 18 18 18 18 18 18 18 18 18 18 18 18 18 17 17 18
24 25 23 25 28 30 30 30 28 28 27 27 26 26 24 24 24 22 21 21 21 19 18 18 18 18 17 17 18 17 17 17 17 18 17 18 18 17 18 18 18 18 18 18 17 17 18 18 18
24 27 28 28 29 30 30 29 28 28 27 27 27 25 23 23 23 22 22 22 21 20 19 17 18 18 18 18 17 17 17 17 17 18 17 18 17 18 18 18 18 18 17 17 18 19 19 19 19
26 28 24 26 27 30 29 29 28 27 27 26 26 25 24 23 22 22 22 22 22 22 20 18 18 18 18 17 17 17 17 17 18 18 18 18 18 18 18 18 18 18 18 18 18 18 19 19 19
26 28 21 28 28 29 29 28 28 28 28 28 26 26 23 23 22 22 22 22 22 22 20 19 17 18 18 17 17 17 17 17 18 18 18 18 18 18 18 17 17 17 18 18 18 18 18 18 19
26 28 28 26 29 27 28 28 28 28 28 27 27 26 24 23 22 22 22 22 21 21 20 19 19 18 17 16 17 17 18 18 18 18 18 18 18 18 18 18 17 17 18 18 18 18 18 19 19
26 26 22 27 26 27 27 28 27 27 27 27 26 26 24 22 22 22 22 22 21 20 20 20 19 18 18 17 17 18 18 18 18 17 18 18 18 17 17 17 18 18 18 18 18 19 19 20 20
27 23 25 26 25 25 26 27 27 27 27 27 26 25 23 22 22 23 23 22 22 22 20 19 19 19 18 18 17 17 18 17 18 18 18 19 18 18 17 18 18 18 19 19 19 20 20 20 20
25 23 27 25 23 21 23 27 27 28 26 28 26 24 23 23 23 23 23 23 23 22 21 21 20 19 19 19 18 18 19 19 17 17 18 18 18 18 18 18 18 19 19 19 20 20 20 20 21
26 26 25 25 23 21 21 21 27 27 24 27 25 24 23 23 24 24 24 23 23 22 21 21 20 19 19 19 20 20 19 20 19 18 18 18 19 18 19 19 19 19 20 20 20 21 20 20 21
26 26 23 25 24 23 23 23 24 27 27 27 25 25 24 24 24 24 24 23 22 22 21 21 19 18 19 19 20 20 20 20 19 19 19 20 20 18 19 18 20 20 21 21 21 21 21 21 21
27 27 26 25 25 24 25 26 24 27 26 26 25 25 25 25 25 24 23 23 22 22 21 20 19 18 19 19 19 20 20 20 20 19 19 18 19 19 19 19 20 20 21 21 21 20 21 22 21
28 27 26 24 24 24 25 25 26 26 26 26 26 26 26 25 24 23 23 22 22 21 21 20 19 18 18 17 18 20 21 21 20 19 18 18 19 18 19 20 19 20 19 20 20 20 21 22 22
29 29 26 26 25 23 22 23 24 25 26 26 26 26 26 25 25 24 23 23 22 22 20 19 21 19 18 18 18 20 20 20 20 18 19 18 18 18 19 20 21 20 20 21 22 22 23 23 23
29 28 27 26 25 25 24 19 19 21 25 25 24 27 26 25 24 24 23 23 22 21 20 19 20 19 18 18 19 20 20 20 19 19 20 18 18 18 20 20 20 20 22 22 22 22 23 23 23
30 29 29 27 26 25 25 24 23 20 21 20 25 26 27 26 25 24 24 23 22 21 20 20 20 19 18 18 18 19 19 19 20 19 19 19 19 18 19 20 20 20 22 22 21 22 22 23 24
30 29 29 28 26 26 26 26 25 23 21 23 24 25 27 27 26 24 24 23 22 21 20 19 20 19 19 19 20 19 20 20 20 19 19 18 18 18 20 20 20 20 21 20 21 21 22 23 23
30 29 29 27 26 26 27 26 27 24 23 24 20 25 27 27 26 25 24 24 23 21 20 19 19 18 19 19 20 20 20 20 19 20 18 19 19 18 19 20 21 20 21 21 21 21 22 23 23
29 29 30 28 26 26 26 27 27 27 24 24 23 23 27 27 26 26 25 24 23 22 20 20 19 18 19 19 19 19 19 19 20 20 19 19 19 19 18 19 19 21 20 21 20 21 22 21 23
29 30 29 28 26 26 26 27 28 28 26 25 24 25 26 26 27 26 25 25 24 22 21 20 19 18 18 19 19 19 19 20 20 20 19 19 19 19 19 19 19 19 20 21 20 21 21 22 22
29 30 29 29 28 28 28 27 29 30 26 25 25 25 25 25 26 27 26 25 25 23 22 21 19 18 18 18 18 19 19 20 20 20 19 19 18 19 19 19 18 18 20 20 20 20 20 21 22
30 28 29 29 28 27 29 28 30 29 28 28 26 25 25 26 25 27 26 25 24 24 22 21 19 19 18 18 18 19 19 19 20 20 19 20 20 19 19 19 19 18 19 19 19 19 19 20 21
29 28 27 27 28 28 29 29 30 28 29 30 28 25 24 25 26 26 26 26 24 24 23 22 20 19 18 18 18 18 19 19 19 18 19 20 20 20 20 19 19 19 19 18 18 19 19 19 20
28 29 29 27 29 26 28 28 29 24 30 30 29 26 25 25 25 26 26 26 24 24 23 22 20 19 18 18 18 18 18 19 19 19 20 20 20 20 19 18 18 18 18 18 18 18 19 20 20
29 28 30 29 31 30 29 28 31 28 29 30 29 27 25 24 25 24 26 26 24 24 23 22 21 19 19 19 19 18 18 18 19 20 19 19 19 19 19 18 18 18 18 18 18 18 19 19 19
28 25 26 29 26 27 29 29 29 27 28 29 29 27 25 25 26 25 26 26 26 24 23 22 21 20 19 20 19 19 19 18 18 19 19 19 19 19 19 18 18 18 18 18 18 19 20 19 19
28 28 25 27 27 25 27 27 17 28 27 28 28 27 27 25 25 26 23 26 25 24 23 22 21 20 19 20 20 19 19 19 19 19 19 18 18 19 18 18 18 18 18 18 18 19 19 19 19
29 26 28 28 26 23 24 23 21 28 28 27 25 25 25 24 23 24 26 24 25 24 23 22 22 21 20 20 20 19 19 19 20 19 19 18 18 18 18 18 18 18 18 18 18 18 19 18 19

GFSSGP_850_temp_126.txt.gz
Temp
23 22 22 23 21 22 29 29 30 26 28 28 26 27 26 26 25 20 19 18 17 17 18 18 18 18 18 18 16 16 17 18 17 17 17 18 18 18 18 18 18 18 18 18 18 18 18 18 18
22 22 23 24 22 26 29 30 29 29 27 26 27 27 26 24 23 20 18 18 19 17 18 18 18 18 18 18 17 17 17 18 18 17 18 18 18 18 18 18 18 18 18 18 18 18 18 18 18
23 23 24 18 20 24 28 29 29 28 25 24 27 26 25 24 23 22 19 19 19 19 17 18 18 18 18 18 17 17 18 18 18 18 18 18 18 17 17 18 18 18 18 18 18 18 18 19 18
22 25 24 25 25 30 30 29 29 28 26 26 27 26 25 24 22 21 20 20 19 18 18 18 18 18 18 18 17 17 17 17 18 18 18 18 18 17 18 17 18 18 18 18 17 19 19 19 19
25 23 20 22 27 30 30 30 29 28 28 27 26 25 24 24 22 21 21 21 19 18 18 18 18 18 18 18 17 17 17 17 17 17 18 17 17 18 17 17 18 18 18 19 19 19 19 19 19
26 15 17 25 28 30 30 29 28 29 28 27 26 25 24 24 23 23 21 21 20 17 17 19 18 18 18 17 17 17 17 17 18 18 18 18 18 18 18 17 18 18 18 18 19 19 19 19 19
24 17 19 23 25 29 29 26 26 29 29 28 25 25 24 24 23 22 22 22 21 20 18 19 19 18 18 18 18 18 18 18 18 18 18 18 18 18 18 18 18 18 18 18 18 19 20 20 20
28 18 20 22 21 28 29 27 29 29 28 26 24 25 25 24 23 22 23 22 21 21 19 18 18 18 18 18 18 18 18 18 18 18 18 19 19 18 18 18 18 18 18 19 19 20 20 20 21
28 21 22 20 23 19 28 28 28 28 28 26 25 26 25 24 23 23 23 22 21 19 20 20 18 17 18 18 18 18 19 18 18 18 18 18 18 18 17 18 18 18 19 19 20 19 19 20 20
27 19 21 20 21 20 23 25 28 29 28 26 26 25 24 24 24 23 22 22 21 19 18 19 19 18 18 17 18 18 17 17 18 18 18 17 18 17 18 18 19 19 20 20 20 20 20 20 20
27 23 24 26 25 24 24 23 24 28 28 28 26 25 24 24 24 23 23 23 22 21 20 20 19 19 18 19 17 18 17 18 18 18 18 18 19 19 19 19 19 19 20 20 20 20 20 20 20
27 26 26 26 25 24 22 22 22 23 23 25 26 25 24 24 25 24 23 22 22 20 20 20 19 19 18 19 18 18 19 19 18 18 19 19 19 18 19 19 20 19 20 19 20 20 20 21 21
28 27 25 26 26 24 23 23 20 24 26 26 26 25 25 24 24 25 24 23 23 21 21 20 19 20 19 17 19 20 20 19 19 19 19 19 19 19 19 20 19 20 21 21 21 21 21 21 21
25 26 27 27 25 25 25 23 21 26 28 27 26 26 25 24 25 24 24 24 23 22 21 20 20 19 19 19 19 20 20 20 19 19 19 20 20 19 20 20 20 21 21 21 21 21 21 22 21
26 26 27 26 25 24 26 19 22 21 24 27 27 27 25 25 25 25 24 23 23 22 21 20 20 20 19 19 20 20 20 19 19 20 20 18 19 19 20 20 20 21 21 21 21 22 22 22 22
30 25 25 27 26 25 25 20 17 23 22 27 28 27 26 26 25 25 24 24 23 22 21 21 19 19 19 19 20 20 21 20 19 18 19 19 19 20 20 20 21 21 21 21 21 22 22 23 22
30 27 25 20 26 25 25 19 17 18 20 24 27 27 26 26 25 25 24 24 23 22 20 20 20 20 19 20 20 19 20 20 20 18 19 19 19 20 19 20 20 21 21 21 22 22 23 23 23
30 30 28 24 27 26 24 24 21 21 21 23 23 23 26 26 25 25 24 24 23 21 20 20 20 20 19 19 19 20 20 20 19 19 19 20 19 20 19 20 20 20 18 21 22 22 23 23 23
31 30 29 27 28 28 26 25 25 24 23 21 20 23 26 26 25 25 25 24 22 21 20 20 20 20 19 19 19 19 20 19 19 19 18 19 19 20 19 19 21 20 19 18 21 22 22 23 23
31 30 30 29 28 28 28 27 27 26 25 24 22 23 23 26 25 25 25 24 23 21 20 20 19 18 19 20 19 19 20 20 19 19 19 19 19 20 19 20 19 19 20 21 20 22 20 21 23
30 30 30 29 28 28 28 27 28 28 25 25 24 21 22 23 24 25 25 24 23 21 20 20 19 19 19 20 19 19 19 19 19 19 19 19 19 20 19 20 19 20 20 20 21 21 21 21 22
29 32 31 30 28 27 27 23 28 28 26 26 25 21 22 23 26 26 25 24 23 21 20 20 19 19 19 19 19 20 20 20 20 20 20 20 19 19 19 20 20 20 19 18 20 20 21 22 19
30 32 31 30 28 28 27 26 29 29 28 27 26 25 24 25 27 26 26 25 24 22 21 20 20 19 19 18 19 19 20 20 20 20 20 19 19 19 20 19 19 20 21 20 20 21 21 20 19
31 30 30 29 29 27 29 29 30 30 28 26 27 27 26 24 25 26 26 26 25 22 22 21 20 20 19 18 19 19 20 19 20 19 20 20 20 20 20 19 19 19 20 20 20 20 20 21 21
29 29 27 27 27 27 30 30 30 28 27 26 24 27 26 25 25 27 26 26 25 23 22 21 21 20 20 19 19 19 19 19 19 19 20 19 20 20 19 20 19 19 20 20 19 20 20 20 20
29 29 28 27 28 27 29 26 26 27 26 25 24 23 27 25 26 26 26 25 25 24 23 22 21 20 20 19 19 19 19 19 19 20 20 20 20 20 20 20 19 19 19 19 19 19 20 20 19
29 28 30 29 30 30 31 29 28 28 27 29 30 28 27 26 25 26 26 25 25 24 23 22 22 21 20 19 19 19 19 19 20 20 20 20 20 20 19 19 19 19 19 19 19 19 19 19 20
30 30 27 28 26 27 30 26 23 25 27 28 29 29 27 26 26 25 26 25 24 24 23 23 22 21 20 19 19 19 19 19 19 19 19 19 19 20 19 19 19 19 19 19 19 19 19 19 19
29 28 28 28 27 26 27 22 24 24 27 27 24 21 26 26 26 24 24 25 22 24 23 23 22 21 20 19 19 19 19 19 19 19 19 19 19 19 19 19 19 19 19 19 19 19 19 19 19
30 29 29 26 26 28 26 26 26 27 28 24 20 22 23 25 22 24 24 23 22 21 23 23 22 21 21 20 20 20 20 20 19 20 20 19 19 19 19 19 19 19 19 19 19 19 20 19 19